ftp/pub/palmer/observations_modified/2020/September/AR200909_BASE.txt

Download

Sample DateTime	Unit Id	WS Avg 2min	WD Avg 2min	WGS 10min	WGD 10min	Air Temp	Rel Humidity	Dew Point	Pyranometer	Quantum	Air Pressure	Snow Level	Rainfall	PW Current	Visibility	CBase 1	CBase 2	CBase 3	Vert Vis
2020/09/09 00:00:00	BASE	0.23	354	1.54	314	-2.8	66	-8.2	0	0	980.4	NA	0.0000		9999	5770	0	0	0
2020/09/09 00:01:00	BASE	0.00	4	1.54	314	-2.8	67	-8.1	0	0	980.4	NA	0.0000		9999	5740	0	0	0
2020/09/09 00:02:00	BASE	0.00	5	1.54	314	-2.8	67	-8.1	0	0	980.4	NA	0.0000		9999	5840	0	0	0
2020/09/09 00:03:00	BASE	0.00	2	1.54	314	-2.7	67	-8.0	0	0	980.4	NA	0.0000		9999	5810	0	0	0
2020/09/09 00:04:00	BASE	0.00	5	1.54	314	-2.6	67	-7.9	0	0	980.4	NA	0.0000		9999	5610	0	0	0
2020/09/09 00:05:00	BASE	0.00	18	1.54	314	-2.6	67	-7.9	0	0	980.4	NA	0.0000		9999	5090	0	0	0
2020/09/09 00:06:00	BASE	0.04	33	1.54	314	-2.6	67	-7.9	0	0	980.4	NA	0.0000		9999	5810	0	0	0
2020/09/09 00:07:00	BASE	0.22	40	1.18	317	-2.6	67	-7.9	0	0	980.3	NA	0.0000		9999	5810	0	0	0
2020/09/09 00:08:00	BASE	0.32	47	1.18	44	-2.6	67	-7.9	0	0	980.3	NA	0.0000		9999	5410	0	0	0
2020/09/09 00:09:00	BASE	0.14	57	1.18	44	-2.6	67	-7.9	0	0	980.3	NA	0.0000		9999	6530	0	0	0
2020/09/09 00:10:00	BASE	0.00	111	1.18	44	-2.5	67	-7.8	0	0	980.2	NA	0.0000		9999	6890	0	0	0
2020/09/09 00:11:00	BASE	0.00	118	1.18	44	-2.5	67	-7.7	0	0	980.2	NA	0.0000		9999	6370	0	0	0
2020/09/09 00:12:00	BASE	0.00	66	1.18	44	-2.4	67	-7.7	0	0	980.2	NA	0.0000		9999	6170	0	0	0
2020/09/09 00:13:00	BASE	0.18	56	1.49	43	-2.4	67	-7.7	0	0	980.2	NA	0.0000		9999	6500	0	0	0
2020/09/09 00:14:00	BASE	0.98	51	1.80	47	-2.4	67	-7.7	0	0	980.1	NA	0.0000		9999	6530	7280	0	0
2020/09/09 00:15:00	BASE	1.54	52	1.80	47	-2.5	67	-7.8	0	0	980.1	NA	0.0000		9999	6400	0	0	0
2020/09/09 00:16:00	BASE	1.52	57	1.80	47	-2.7	67	-7.9	0	0	980.1	NA	0.0000		9999	6270	0	0	0
2020/09/09 00:17:00	BASE	1.52	58	1.80	47	-2.8	68	-7.9	0	0	980.1	NA	0.0000		9999	6230	0	0	0
2020/09/09 00:18:00	BASE	1.26	55	1.80	47	-2.8	68	-7.9	0	0	980.1	NA	0.0000		9999	6270	0	0	0
2020/09/09 00:19:00	BASE	0.90	58	1.80	47	-2.8	68	-7.8	0	0	980.1	NA	0.0000		9999	6330	0	0	0
2020/09/09 00:20:00	BASE	1.02	47	1.80	47	-2.7	69	-7.7	0	0	980.1	NA	0.0000		9999	6300	0	0	0
2020/09/09 00:21:00	BASE	0.87	31	1.80	47	-2.6	69	-7.6	0	0	980.1	NA	0.0000		9999	6230	0	0	0
2020/09/09 00:22:00	BASE	0.66	35	1.85	33	-2.5	68	-7.6	0	0	980.1	NA	0.0000		9999	4130	0	0	0
2020/09/09 00:23:00	BASE	0.60	56	1.85	33	-2.5	68	-7.6	0	0	980.0	NA	0.0000		9999	6300	0	0	0
2020/09/09 00:24:00	BASE	0.20	69	1.85	33	-2.6	68	-7.6	0	0	980.0	NA	0.0000		9999	3450	0	0	0
2020/09/09 00:25:00	BASE	0.04	81	1.85	33	-2.5	68	-7.6	0	0	979.9	NA	0.0000		9999	6270	0	0	0
2020/09/09 00:26:00	BASE	0.00	172	1.85	33	-2.5	68	-7.6	0	0	979.9	NA	0.0000		9999	5710	0	0	0
2020/09/09 00:27:00	BASE	0.00	225	1.85	33	-2.5	68	-7.6	0	0	979.9	NA	0.0000		9999	5150	0	0	0
2020/09/09 00:28:00	BASE	0.04	267	1.85	33	-2.4	68	-7.5	0	0	979.9	NA	0.0000		9999	4760	0	0	0
2020/09/09 00:29:00	BASE	0.23	317	1.85	33	-2.3	68	-7.4	0	0	979.9	NA	0.0000		9999	6270	0	0	0
2020/09/09 00:30:00	BASE	0.19	346	1.85	33	-2.3	68	-7.4	0	0	979.9	NA	0.0000		9999	6270	0	0	0
2020/09/09 00:31:00	BASE	0.44	19	1.85	33	-2.2	68	-7.3	0	0	979.9	NA	0.0000		9999	6300	0	0	0
2020/09/09 00:32:00	BASE	1.27	44	1.85	56	-2.2	68	-7.3	0	0	979.9	NA	0.0000		9999	6300	0	0	0
2020/09/09 00:33:00	BASE	1.76	55	2.21	56	-2.3	68	-7.4	0	0	979.9	NA	0.0000		9999	4790	0	0	0
2020/09/09 00:34:00	BASE	1.70	66	2.21	56	-2.3	68	-7.4	0	0	979.9	NA	0.0000		9999	7190	0	0	0
2020/09/09 00:35:00	BASE	1.52	77	2.21	56	-2.3	68	-7.4	0	0	979.9	NA	0.0000		9999	7840	0	0	0
2020/09/09 00:36:00	BASE	1.18	87	2.21	56	-2.4	69	-7.4	0	0	979.9	NA	0.0000		9999	6690	0	0	0
2020/09/09 00:37:00	BASE	0.70	96	2.21	56	-2.4	69	-7.3	0	0	979.8	NA	0.0000		9999	7970	0	0	0
2020/09/09 00:38:00	BASE	0.42	95	2.21	56	-2.4	69	-7.3	0	0	979.8	NA	0.0000		9999	8460	0	0	0
2020/09/09 00:39:00	BASE	0.75	92	2.21	56	-2.4	69	-7.3	0	0	979.8	NA	0.0000		9999	5710	0	0	0
2020/09/09 00:40:00	BASE	0.95	82	2.21	56	-2.3	69	-7.3	0	0	979.8	NA	0.0000		9999	6140	0	0	0
2020/09/09 00:41:00	BASE	1.37	67	2.62	67	-2.3	69	-7.2	0	0	979.8	NA	0.0000		9999	3150	0	0	0
2020/09/09 00:42:00	BASE	2.26	54	2.78	27	-2.3	69	-7.2	0	0	979.8	NA	0.0000		9999	5740	0	0	0
2020/09/09 00:43:00	BASE	2.37	44	2.98	53	-2.2	69	-7.2	0	0	979.8	NA	0.0000		9999	5710	0	0	0
2020/09/09 00:44:00	BASE	2.36	52	2.98	53	-2.2	69	-7.1	0	0	979.8	NA	0.0000		9999	5350	0	0	0
2020/09/09 00:45:00	BASE	2.45	59	2.98	53	-2.2	69	-7.1	0	0	979.8	NA	0.0000		9999	5380	0	0	0
2020/09/09 00:46:00	BASE	2.21	60	2.98	53	-2.2	69	-7.1	0	0	979.7	NA	0.0000		9999	5410	0	0	0
2020/09/09 00:47:00	BASE	1.87	65	2.98	53	-2.2	69	-7.1	0	0	979.7	NA	0.0000		9999	5180	0	0	0
2020/09/09 00:48:00	BASE	1.61	74	2.98	53	-2.2	69	-7.1	0	0	979.7	NA	0.0000		9999	5050	0	0	0
2020/09/09 00:49:00	BASE	1.49	80	2.98	53	-2.2	69	-7.1	0	0	979.6	NA	0.0000		9999	5090	0	0	0
2020/09/09 00:50:00	BASE	1.53	84	2.98	53	-2.2	69	-7.1	0	0	979.6	NA	0.0000		9999	4860	0	0	0
2020/09/09 00:51:00	BASE	1.44	80	2.98	53	-2.2	69	-7.1	0	0	979.6	NA	0.0000		9999	4890	0	0	0
2020/09/09 00:52:00	BASE	1.19	74	2.98	53	-2.1	69	-7.1	0	0	979.6	NA	0.0000		9999	4760	0	0	0
2020/09/09 00:53:00	BASE	1.44	76	2.93	55	-2.1	69	-7.0	0	0	979.5	NA	0.0000		9999	4820	0	0	0
2020/09/09 00:54:00	BASE	1.75	93	2.73	60	-2.1	69	-7.1	0	0	979.5	NA	0.0000		9999	4760	0	0	0
2020/09/09 00:55:00	BASE	1.63	106	2.06	76	-2.0	68	-7.1	0	0	979.5	NA	0.0000		9999	4890	0	0	0
2020/09/09 00:56:00	BASE	1.35	109	2.06	76	-2.0	68	-7.1	0	0	979.5	NA	0.0000		9999	5540	0	0	0
2020/09/09 00:57:00	BASE	0.56	107	2.01	109	-2.0	68	-7.1	0	0	979.5	NA	0.0000		9999	5480	0	0	0
2020/09/09 00:58:00	BASE	0.00	73	2.01	109	-2.0	69	-7.0	0	0	979.5	NA	0.0000		9999	5450	0	0	0
2020/09/09 00:59:00	BASE	0.37	81	2.01	109	-2.0	69	-6.9	0	0	979.4	NA	0.0000		9999	5410	0	0	0
2020/09/09 01:00:00	BASE	1.00	109	2.01	109	-1.9	69	-6.9	0	0	979.3	NA	0.0000		9999	5450	0	0	0
2020/09/09 01:01:00	BASE	1.32	118	2.01	109	-1.8	69	-6.9	0	0	979.3	NA	0.0000		9999	5510	0	0	0
2020/09/09 01:02:00	BASE	0.79	126	2.01	109	-1.8	68	-6.8	0	0	979.3	NA	0.0000		9999	5680	0	0	0
2020/09/09 01:03:00	BASE	0.15	126	2.01	109	-1.7	68	-6.8	0	0	979.3	NA	0.0000		9999	4860	0	0	0
2020/09/09 01:04:00	BASE	0.19	114	2.01	109	-1.7	68	-6.9	0	0	979.3	NA	0.0000		9999	3900	5480	0	0
2020/09/09 01:05:00	BASE	0.14	101	1.54	105	-1.7	68	-6.9	0	0	979.3	NA	0.0000		9999	3580	5410	0	0
2020/09/09 01:06:00	BASE	0.05	89	1.49	109	-1.7	67	-6.9	0	0	979.3	NA	0.0000		9999	3410	5350	0	0
2020/09/09 01:07:00	BASE	0.46	103	1.49	109	-1.7	67	-7.0	0	0	979.3	NA	0.0000		9999	3220	5320	0	0
2020/09/09 01:08:00	BASE	0.46	108	1.49	109	-1.7	67	-7.1	0	0	979.3	NA	0.0000		9999	3020	5320	0	0
2020/09/09 01:09:00	BASE	0.81	98	1.95	97	-1.8	67	-7.1	0	0	979.3	NA	0.0000		9999	2590	0	0	0
2020/09/09 01:10:00	BASE	1.51	109	1.95	131	-1.8	67	-7.1	0	0	979.2	NA	0.0000		9999	5090	0	0	0
2020/09/09 01:11:00	BASE	1.56	123	1.95	131	-1.8	67	-7.1	0	0	979.2	NA	0.0000		9999	4820	0	0	0
2020/09/09 01:12:00	BASE	1.66	127	1.95	126	-1.8	68	-7.0	0	0	979.2	NA	0.0000		9999	4760	0	0	0
2020/09/09 01:13:00	BASE	1.76	127	2.21	126	-1.9	68	-7.0	0	0	979.2	NA	0.0000		9999	4630	0	0	0
2020/09/09 01:14:00	BASE	2.06	129	2.62	132	-1.9	68	-7.0	0	0	979.2	NA	0.0000		9999	4530	0	0	0
2020/09/09 01:15:00	BASE	2.30	133	2.62	132	-1.9	68	-7.0	0	0	979.2	NA	0.0000		9999	4460	0	0	0
2020/09/09 01:16:00	BASE	2.31	129	2.62	132	-2.0	68	-7.0	0	0	979.1	NA	0.0000		9999	4430	0	0	0
2020/09/09 01:17:00	BASE	2.23	126	2.62	132	-2.0	69	-7.0	0	0	979.1	NA	0.0000		9999	4460	0	0	0
2020/09/09 01:18:00	BASE	2.16	124	2.62	132	-2.0	69	-6.9	0	0	979.1	NA	0.0000		9999	4400	0	0	0
2020/09/09 01:19:00	BASE	2.19	120	2.62	132	-2.0	69	-6.9	0	0	979.1	NA	0.0000		9999	4490	0	0	0
2020/09/09 01:20:00	BASE	2.30	117	3.09	126	-2.0	69	-6.9	0	0	979.1	NA	0.0000		9999	4720	0	0	0
2020/09/09 01:21:00	BASE	2.48	116	3.09	126	-2.0	69	-7.0	0	0	979.1	NA	0.0000		9999	4490	0	0	0
2020/09/09 01:22:00	BASE	2.65	116	3.09	116	-2.1	69	-7.0	0	0	979.1	NA	0.0000		9999	4490	0	0	0
2020/09/09 01:23:00	BASE	2.86	118	3.09	124	-2.1	69	-7.0	0	0	979.0	NA	0.0000		9999	4720	0	0	0
2020/09/09 01:24:00	BASE	3.07	119	3.45	123	-2.1	70	-6.9	0	0	979.0	NA	0.0000		9999	4920	0	0	0
2020/09/09 01:25:00	BASE	3.11	123	3.50	128	-2.1	70	-6.9	0	0	979.0	NA	0.0000		9999	1870	0	0	0
2020/09/09 01:26:00	BASE	3.27	127	3.76	129	-2.1	70	-6.8	0	0	979.0	NA	0.0000		9999	2030	4950	0	0
2020/09/09 01:27:00	BASE	3.44	128	3.76	129	-2.0	70	-6.8	0	0	978.9	NA	0.0000		9999	2000	4950	0	0
2020/09/09 01:28:00	BASE	3.31	131	3.76	129	-2.0	69	-6.9	0	0	978.9	NA	0.0000		9999	1870	0	0	0
2020/09/09 01:29:00	BASE	3.19	131	3.76	129	-2.0	69	-6.9	0	0	978.9	NA	0.0000		9999	1710	4890	0	0
2020/09/09 01:30:00	BASE	3.18	130	3.76	129	-2.0	69	-7.0	0	0	978.9	NA	0.0000		9999	1670	0	0	0
2020/09/09 01:31:00	BASE	3.22	128	3.76	129	-2.0	69	-7.0	0	0	978.9	NA	0.0000		9999	2200	0	0	0
2020/09/09 01:32:00	BASE	3.42	125	4.12	124	-2.0	69	-7.0	0	0	978.9	NA	0.0000		9999	4820	0	0	0
2020/09/09 01:33:00	BASE	3.83	121	4.32	119	-2.0	69	-7.0	0	0	978.9	NA	0.0000		9999	4860	0	0	0
2020/09/09 01:34:00	BASE	4.23	121	4.53	126	-2.0	69	-6.9	0	0	978.9	NA	0.0000		9999	4860	0	0	0
2020/09/09 01:35:00	BASE	4.44	123	4.78	128	-1.9	69	-6.9	0	0	978.9	NA	0.0000		9999	4860	0	0	0
2020/09/09 01:36:00	BASE	4.52	126	4.78	128	-1.9	69	-6.9	0	0	978.9	NA	0.0000		9999	4990	0	0	0
2020/09/09 01:37:00	BASE	4.37	130	4.78	128	-1.9	68	-7.0	0	0	978.9	NA	0.0000		9999	5770	0	0	0
2020/09/09 01:38:00	BASE	4.23	132	4.78	128	-1.9	68	-7.0	0	0	978.9	NA	0.0000		9999	4990	0	0	0
2020/09/09 01:39:00	BASE	4.26	133	4.78	128	-2.0	68	-7.1	0	0	978.9	NA	0.0000		9999	5970	0	0	0
2020/09/09 01:40:00	BASE	4.45	132	4.94	126	-2.0	68	-7.1	0	0	978.8	NA	0.0000		9999	5810	0	0	0
2020/09/09 01:41:00	BASE	4.83	125	5.56	121	-2.1	68	-7.1	0	0	978.7	NA	0.0000		9999	5480	0	0	0
2020/09/09 01:42:00	BASE	5.21	119	6.02	112	-2.1	69	-7.1	0	0	978.7	NA	0.0000		9999	5580	0	0	0
2020/09/09 01:43:00	BASE	5.63	115	6.33	113	-2.2	69	-7.1	0	0	978.7	NA	0.0000		9999	5510	0	0	0
2020/09/09 01:44:00	BASE	5.75	114	6.33	113	-2.3	70	-7.1	0	0	978.7	NA	0.0000		9999	5250	0	0	0
2020/09/09 01:45:00	BASE	5.51	114	6.33	113	-2.3	70	-7.1	0	0	978.7	NA	0.0000		9999	5180	0	0	0
2020/09/09 01:46:00	BASE	5.44	110	6.33	113	-2.3	70	-7.1	0	0	978.7	NA	0.0000		9999	5090	0	0	0
2020/09/09 01:47:00	BASE	5.45	105	6.33	113	-2.3	69	-7.1	0	0	978.7	NA	0.0000		9999	5020	0	0	0
2020/09/09 01:48:00	BASE	5.24	102	6.33	113	-2.3	69	-7.2	0	0	978.7	NA	0.0000		9999	4820	0	0	0
2020/09/09 01:49:00	BASE	5.03	101	6.33	113	-2.4	69	-7.2	0	0	978.7	NA	0.0000		9999	4860	0	0	0
2020/09/09 01:50:00	BASE	4.87	103	6.33	113	-2.4	69	-7.3	0	0	978.7	NA	0.0000		9999	4790	0	0	0
2020/09/09 01:51:00	BASE	4.69	102	6.33	113	-2.5	70	-7.2	0	0	978.7	NA	0.0000		9999	4660	0	0	0
2020/09/09 01:52:00	BASE	4.62	101	6.33	113	-2.5	70	-7.2	0	0	978.7	NA	0.0000		9999	4630	0	0	0
2020/09/09 01:53:00	BASE	4.52	102	5.86	116	-2.5	71	-7.1	0	0	978.6	NA	0.0000		9999	4460	0	0	0
2020/09/09 01:54:00	BASE	4.11	110	5.71	100	-2.5	71	-7.1	0	0	978.6	NA	0.0000		9999	4400	0	0	0
2020/09/09 01:55:00	BASE	3.70	112	5.71	100	-2.4	71	-7.0	0	0	978.6	NA	0.0000		9999	4560	0	0	0
2020/09/09 01:56:00	BASE	3.29	111	5.71	100	-2.4	71	-6.9	0	0	978.5	NA	0.0000		9999	4530	0	0	0
2020/09/09 01:57:00	BASE	3.07	113	5.45	98	-2.3	71	-6.9	0	0	978.5	NA	0.0000		9999	4490	0	0	0
2020/09/09 01:58:00	BASE	3.26	112	5.20	100	-2.3	71	-6.9	0	0	978.5	NA	0.0000		9999	5510	0	0	0
2020/09/09 01:59:00	BASE	3.27	112	4.89	104	-2.3	70	-7.0	0	0	978.5	NA	0.0000		9999	5380	0	0	0
2020/09/09 02:00:00	BASE	3.44	114	4.84	96	-2.4	70	-7.0	0	0	978.5	NA	0.0000		9999	5220	0	0	0
2020/09/09 02:01:00	BASE	3.44	119	4.84	96	-2.5	70	-7.1	0	0	978.5	NA	0.0000		9999	5090	0	0	0
2020/09/09 02:02:00	BASE	3.26	122	4.78	113	-2.5	71	-7.1	0	0	978.5	NA	0.0000		9999	5180	0	0	0
2020/09/09 02:03:00	BASE	3.58	122	4.78	113	-2.5	71	-7.0	0	0	978.5	NA	0.0000		9999	5180	0	0	0
2020/09/09 02:04:00	BASE	3.67	120	4.12	128	-2.4	71	-6.8	0	0	978.5	NA	0.0000		9999	4990	0	0	0
2020/09/09 02:05:00	BASE	3.30	120	4.12	128	-2.3	71	-6.7	0	0	978.5	NA	0.0000		9999	5280	0	0	0
2020/09/09 02:06:00	BASE	2.70	121	4.12	128	-2.2	71	-6.7	0	0	978.5	NA	0.0000		9999	5940	0	0	0
2020/09/09 02:07:00	BASE	2.29	122	4.12	128	-2.1	71	-6.7	0	0	978.5	NA	0.0000		9999	5940	0	0	0
2020/09/09 02:08:00	BASE	2.36	124	4.12	128	-2.1	70	-6.8	0	0	978.5	NA	0.0000		9999	5450	0	0	0
2020/09/09 02:09:00	BASE	2.25	134	4.12	128	-2.2	70	-6.9	0	0	978.5	NA	0.0000		9999	5410	0	0	0
2020/09/09 02:10:00	BASE	2.24	131	4.12	128	-2.2	70	-6.9	0	0	978.4	NA	0.0000		9999	5350	0	0	0
2020/09/09 02:11:00	BASE	2.54	124	4.12	128	-2.2	70	-6.9	0	0	978.4	NA	0.0000		9999	5350	0	0	0
2020/09/09 02:12:00	BASE	2.64	125	4.12	128	-2.1	70	-6.9	0	0	978.4	NA	0.0000		9999	5580	0	0	0
2020/09/09 02:13:00	BASE	2.66	122	3.91	118	-2.0	70	-6.8	0	0	978.4	NA	0.0000		9999	5410	0	0	0
2020/09/09 02:14:00	BASE	2.74	114	3.91	118	-2.0	70	-6.7	0	0	978.4	NA	0.0000		9999	5940	0	0	0
2020/09/09 02:15:00	BASE	2.81	116	3.34	125	-1.9	70	-6.7	0	0	978.4	NA	0.0000		9999	5450	0	0	0
2020/09/09 02:16:00	BASE	2.79	127	3.34	125	-1.9	69	-6.7	0	0	978.4	NA	0.0000		9999	5480	0	0	0
2020/09/09 02:17:00	BASE	2.33	133	3.34	125	-1.9	69	-6.7	0	0	978.4	NA	0.0000		9999	6330	0	0	0
2020/09/09 02:18:00	BASE	2.12	124	3.34	125	-1.8	69	-6.8	0	0	978.3	NA	0.0000		9999	6730	0	0	0
2020/09/09 02:19:00	BASE	2.29	120	3.34	125	-1.8	69	-6.8	0	0	978.3	NA	0.0000		9999	5940	0	0	0
2020/09/09 02:20:00	BASE	2.15	129	3.34	125	-1.8	69	-6.8	0	0	978.3	NA	0.0000		9999	5610	0	0	0
2020/09/09 02:21:00	BASE	1.98	115	3.34	125	-1.9	69	-6.8	0	0	978.4	NA	0.0000		9999	5220	0	0	0
2020/09/09 02:22:00	BASE	2.02	110	3.34	125	-1.9	69	-6.8	0	0	978.3	NA	0.0000		9999	4200	0	0	0
2020/09/09 02:23:00	BASE	1.42	121	3.29	131	-1.9	69	-6.8	0	0	978.3	NA	0.0000		9999	3940	0	0	0
2020/09/09 02:24:00	BASE	1.16	122	3.29	131	-1.9	69	-6.8	0	0	978.3	NA	0.0000		9999	3940	0	0	0
2020/09/09 02:25:00	BASE	1.63	133	3.09	141	-2.0	70	-6.8	0	0	978.3	NA	0.0000		9999	3810	0	0	0
2020/09/09 02:26:00	BASE	1.71	135	3.09	141	-2.0	70	-6.8	0	0	978.3	NA	0.0000		9999	3640	0	0	0
2020/09/09 02:27:00	BASE	1.91	127	2.68	117	-1.9	70	-6.7	0	0	978.3	NA	0.0000		9999	3610	0	0	0
2020/09/09 02:28:00	BASE	1.95	119	2.62	133	-1.9	70	-6.7	0	0	978.3	NA	0.0000		9999	3610	0	0	0
2020/09/09 02:29:00	BASE	1.68	103	2.42	121	-1.9	70	-6.6	0	0	978.2	NA	0.0000		9999	3540	0	0	0
2020/09/09 02:30:00	BASE	1.62	98	2.42	121	-1.9	70	-6.6	0	0	978.2	NA	0.0000		9999	3450	0	0	0
2020/09/09 02:31:00	BASE	0.97	100	2.42	121	-1.8	70	-6.6	0	0	978.2	NA	0.0000		9999	3350	0	0	0
2020/09/09 02:32:00	BASE	0.32	108	2.42	121	-1.8	70	-6.5	0	0	978.2	NA	0.0000		9999	3220	0	0	0
2020/09/09 02:33:00	BASE	0.19	99	2.42	121	-1.7	70	-6.5	0	0	978.2	NA	0.0000		9999	3150	0	0	0
2020/09/09 02:34:00	BASE	0.00	78	2.42	121	-1.7	70	-6.5	0	0	978.2	NA	0.0000		9999	3220	0	0	0
2020/09/09 02:35:00	BASE	0.05	78	2.42	121	-1.7	70	-6.5	0	0	978.1	NA	0.0000		9999	3220	0	0	0
2020/09/09 02:36:00	BASE	0.39	72	2.42	121	-1.6	69	-6.5	0	0	978.1	NA	0.0000		9999	0	0	0	3480
2020/09/09 02:37:00	BASE	0.99	70	2.06	112	-1.6	69	-6.6	0	0	978.1	NA	0.0000		9999	0	0	0	3410
2020/09/09 02:38:00	BASE	1.43	74	2.06	112	-1.7	69	-6.6	0	0	978.1	NA	0.0000		9999	0	0	0	3310
2020/09/09 02:39:00	BASE	1.52	75	2.06	112	-1.7	69	-6.7	0	0	978.0	NA	0.0000		9999	0	0	0	3220
2020/09/09 02:40:00	BASE	1.65	86	2.01	96	-1.8	69	-6.7	0	0	977.9	NA	0.0000		9999	0	0	0	3020
2020/09/09 02:41:00	BASE	1.74	89	2.01	96	-1.8	69	-6.7	0	0	977.9	NA	0.0000		9999	0	0	0	2850
2020/09/09 02:42:00	BASE	1.47	81	2.01	96	-1.8	69	-6.7	0	0	977.9	NA	0.0000	UP	9999	0	0	0	2720
2020/09/09 02:43:00	BASE	1.49	77	2.11	80	-1.8	69	-6.7	0	0	977.9	NA	0.0000	UP	9999	0	0	0	2590
2020/09/09 02:44:00	BASE	1.52	78	2.11	80	-1.8	69	-6.7	0	0	977.9	NA	0.0000	UP	9999	0	0	0	2460
2020/09/09 02:45:00	BASE	1.55	93	2.16	102	-1.7	69	-6.6	0	0	977.9	NA	0.0000	UP	9999	0	0	0	2400
2020/09/09 02:46:00	BASE	1.57	114	2.16	102	-1.7	69	-6.6	0	0	977.9	NA	0.0000	UP	9999	0	0	0	2400
2020/09/09 02:47:00	BASE	0.98	114	2.16	102	-1.7	70	-6.5	0	0	977.9	NA	0.0000	UP	9999	0	0	0	2400
2020/09/09 02:48:00	BASE	0.72	89	2.16	102	-1.8	70	-6.5	0	0	977.9	NA	0.0000	UP	5000	0	0	0	2460
2020/09/09 02:49:00	BASE	0.97	63	2.16	102	-1.8	71	-6.4	0	0	977.9	NA	0.0000	UP	8000	0	0	0	2530
2020/09/09 02:50:00	BASE	0.74	51	2.16	102	-1.9	71	-6.5	0	0	977.9	NA	0.0000	UP	9999	0	0	0	2490
2020/09/09 02:51:00	BASE	0.77	54	2.16	102	-1.9	71	-6.5	0	0	977.9	NA	0.0000	UP	9999	0	0	0	2490
2020/09/09 02:52:00	BASE	1.47	70	2.16	102	-2.0	71	-6.5	0	0	977.9	NA	0.0000	UP	9999	0	0	0	2490
2020/09/09 02:53:00	BASE	1.97	79	2.42	70	-2.1	72	-6.6	0	0	977.9	NA	0.0000	UP	9999	0	0	0	2560
2020/09/09 02:54:00	BASE	2.28	78	2.62	87	-2.2	72	-6.6	0	0	977.9	NA	0.0000	UP	8000	0	0	0	2560
2020/09/09 02:55:00	BASE	2.35	79	2.62	87	-2.3	72	-6.5	0	0	977.9	NA	0.0000	UP	8000	0	0	0	2720
2020/09/09 02:56:00	BASE	2.34	74	2.62	87	-2.3	73	-6.5	0	0	977.9	NA	0.0000	UP	7000	0	0	0	2690
2020/09/09 02:57:00	BASE	2.41	67	2.62	87	-2.3	73	-6.5	0	0	977.8	NA	0.0000	UP	7000	0	0	0	2790
2020/09/09 02:58:00	BASE	2.37	62	2.62	87	-2.4	74	-6.4	0	0	977.8	NA	0.0000	UP	6000	0	0	0	2850
2020/09/09 02:59:00	BASE	2.33	61	2.62	87	-2.4	74	-6.4	0	0	977.8	NA	0.0000	UP	6000	0	0	0	2890
2020/09/09 03:00:00	BASE	2.27	62	2.62	87	-2.5	75	-6.4	0	0	977.8	NA	0.0000	UP	6000	0	0	0	2920
2020/09/09 03:01:00	BASE	2.15	64	2.62	87	-2.5	75	-6.3	0	0	977.8	NA	0.0000	UP	5000	0	0	0	2920
2020/09/09 03:02:00	BASE	2.01	62	2.62	87	-2.5	75	-6.3	0	0	977.7	NA	0.0000	UP	6000	0	0	0	2920
2020/09/09 03:03:00	BASE	1.89	57	2.62	87	-2.5	76	-6.2	0	0	977.7	NA	0.0000	UP	6000	1210	0	0	0
2020/09/09 03:04:00	BASE	1.80	58	2.52	68	-2.5	76	-6.1	0	0	977.7	NA	0.0000	UP	7000	0	0	0	2690
2020/09/09 03:05:00	BASE	1.76	58	2.52	68	-2.5	77	-6.1	0	0	977.7	NA	0.0000	UP	9000	0	0	0	2720
2020/09/09 03:06:00	BASE	1.76	57	2.52	68	-2.5	77	-6.0	0	0	977.7	NA	0.0000	UP	9000	0	0	0	2850
2020/09/09 03:07:00	BASE	1.76	63	2.47	62	-2.5	77	-6.0	0	0	977.7	NA	0.0000	UP	7000	0	0	0	2820
2020/09/09 03:08:00	BASE	1.76	65	2.42	58	-2.5	77	-6.0	0	0	977.7	NA	0.0000	UP	8000	390	0	0	0
2020/09/09 03:09:00	BASE	1.66	61	2.31	65	-2.5	78	-5.9	0	0	977.7	NA	0.0000	UP	9000	360	0	0	0
2020/09/09 03:10:00	BASE	1.54	56	2.16	63	-2.5	78	-5.9	0	0	977.7	NA	0.0000	UP	9000	360	0	0	0
2020/09/09 03:11:00	BASE	1.44	55	2.11	60	-2.5	78	-5.8	0	0	977.7	NA	0.0000	UP	6000	330	0	0	0
2020/09/09 03:12:00	BASE	1.36	52	2.01	70	-2.5	78	-5.8	0	0	977.7	NA	0.0000	UP	5000	920	0	0	0
2020/09/09 03:13:00	BASE	1.25	40	2.01	70	-2.5	78	-5.8	0	0	977.7	NA	0.0000	UP	7000	330	0	0	0
2020/09/09 03:14:00	BASE	0.72	33	2.01	70	-2.5	79	-5.7	0	0	977.6	NA	0.0000	UP	5000	850	0	0	0
2020/09/09 03:15:00	BASE	0.13	33	2.01	70	-2.6	79	-5.8	0	0	977.6	NA	0.0000	-SN	5000	0	0	0	2620
2020/09/09 03:16:00	BASE	0.00	34	2.01	70	-2.6	79	-5.7	0	0	977.6	NA	0.0000	-SN	6000	0	0	0	2690
2020/09/09 03:17:00	BASE	0.00	44	1.85	63	-2.7	79	-5.7	0	0	977.6	NA	0.0000	-SN	5000	330	0	0	0
2020/09/09 03:18:00	BASE	0.00	52	1.75	62	-2.7	80	-5.7	0	0	977.6	NA	0.0000	-SN	6000	0	0	0	2620
2020/09/09 03:19:00	BASE	0.00	59	1.59	52	-2.7	80	-5.6	0	0	977.6	NA	0.0000	-SN	4600	0	0	0	2620
2020/09/09 03:20:00	BASE	0.00	65	1.44	50	-2.7	81	-5.5	0	0	977.6	NA	0.0000	-SN	6000	0	0	0	2530
2020/09/09 03:21:00	BASE	0.00	66	1.44	50	-2.7	81	-5.5	0	0	977.6	NA	0.0000	-SN	5000	0	0	0	2430
2020/09/09 03:22:00	BASE	0.00	68	1.39	41	-2.7	82	-5.4	0	0	977.6	NA	0.0000	-SN	6000	0	0	0	2360
2020/09/09 03:23:00	BASE	0.00	65	1.03	30	-2.7	82	-5.3	0	0	977.6	NA	0.0000	-SN	5000	0	0	0	2400
2020/09/09 03:24:00	BASE	0.00	63	M	M	-2.7	83	-5.2	0	0	977.5	NA	0.0000	-SN	4800	0	0	0	2360
2020/09/09 03:25:00	BASE	0.00	60	M	M	-2.7	83	-5.2	0	0	977.4	NA	0.0000	-SN	4000	0	0	0	2330
2020/09/09 03:26:00	BASE	0.00	61	M	M	-2.7	84	-5.1	0	0	977.4	NA	0.0000	-SN	3900	0	0	0	2230
2020/09/09 03:27:00	BASE	0.00	67	M	M	-2.7	84	-5.0	0	0	977.4	NA	0.0000	-SN	3800	0	0	0	2300
2020/09/09 03:28:00	BASE	0.31	77	1.18	93	-2.7	85	-4.9	0	0	977.4	NA	0.0000	-SN BR	3500	0	0	0	2460
2020/09/09 03:29:00	BASE	0.90	91	1.29	97	-2.7	85	-4.9	0	0	977.4	NA	0.0000	-SN BR	2800	0	0	0	2590
2020/09/09 03:30:00	BASE	1.20	102	1.29	111	-2.8	86	-4.8	0	0	977.3	NA	0.0000	-SN BR	2700	0	0	0	2590
2020/09/09 03:31:00	BASE	1.28	110	1.44	115	-2.8	87	-4.7	0	0	977.3	NA	0.0000	-SN BR	2800	0	0	0	2790
2020/09/09 03:32:00	BASE	1.23	115	1.44	115	-2.8	87	-4.7	0	0	977.3	NA	0.0000	-SN BR	2300	0	0	0	2790
2020/09/09 03:33:00	BASE	1.02	113	1.44	115	-2.9	88	-4.6	0	0	977.3	NA	0.0000	-SN BR	2900	0	0	0	2690
2020/09/09 03:34:00	BASE	0.50	112	1.44	115	-2.9	88	-4.5	0	0	977.2	NA	0.0000	-SN BR	2600	0	0	0	2850
2020/09/09 03:35:00	BASE	0.05	123	1.44	115	-2.9	89	-4.5	0	0	977.2	NA	0.0000	-SN BR	2900	0	0	0	2690
2020/09/09 03:36:00	BASE	0.19	126	1.44	115	-2.9	90	-4.4	0	0	977.2	NA	0.0000	-SN BR	2700	0	0	0	2590
2020/09/09 03:37:00	BASE	1.04	109	2.06	100	-3.0	90	-4.3	0	0	977.2	NA	0.0000	-SN BR	2300	0	0	0	2530
2020/09/09 03:38:00	BASE	1.83	100	2.06	100	-3.0	91	-4.3	0	0	977.3	NA	0.0000	-SN BR	2700	0	0	0	2950
2020/09/09 03:39:00	BASE	1.97	99	2.06	94	-3.0	91	-4.2	0	0	977.2	NA	0.0000	-SN BR	2200	0	0	0	2950
2020/09/09 03:40:00	BASE	1.92	97	2.06	94	-3.0	92	-4.1	0	0	977.2	NA	0.0000	-SN BR	2600	4400	0	0	0
2020/09/09 03:41:00	BASE	1.82	95	2.06	94	-3.0	92	-4.1	0	0	977.2	NA	0.0000	-SN BR	3100	4360	0	0	0
2020/09/09 03:42:00	BASE	1.71	94	2.06	94	-3.0	93	-4.0	0	0	977.2	NA	0.0000	-SN BR	3200	4330	0	0	0
2020/09/09 03:43:00	BASE	1.68	95	2.06	94	-3.0	93	-4.0	0	0	977.2	NA	0.0000	-SN BR	2400	4230	0	0	0
2020/09/09 03:44:00	BASE	1.55	101	2.06	94	-3.0	94	-3.9	0	0	977.1	NA	0.0000	-SN BR	2900	4200	0	0	0
2020/09/09 03:45:00	BASE	1.35	106	2.06	94	-3.0	94	-3.8	0	0	977.1	NA	0.0000	-SN BR	3400	4100	0	0	0
2020/09/09 03:46:00	BASE	1.38	108	2.06	94	-3.0	94	-3.8	0	0	977.1	NA	0.0000	-SN BR	3800	3940	0	0	0
2020/09/09 03:47:00	BASE	1.40	120	2.06	94	-3.0	95	-3.7	0	0	977.0	NA	0.0000	-SN BR	3600	3900	0	0	0
2020/09/09 03:48:00	BASE	1.30	132	2.06	94	-3.0	95	-3.7	0	0	977.0	NA	0.0000	-SN BR	3700	3810	0	0	0
2020/09/09 03:49:00	BASE	1.30	138	2.01	96	-3.0	95	-3.6	0	0	977.0	NA	0.0000	-SN BR	4100	3740	0	0	0
2020/09/09 03:50:00	BASE	1.31	142	1.85	92	-3.0	96	-3.6	0	0	977.0	NA	0.0000	-SN BR	3500	3740	0	0	0
2020/09/09 03:51:00	BASE	1.35	143	1.75	96	-3.0	96	-3.6	0	0	976.8	NA	0.0000	-SN BR	5000	3740	0	0	0
2020/09/09 03:52:00	BASE	1.41	149	1.75	96	-3.0	96	-3.5	0	0	976.8	NA	0.0000	-SN BR	7000	3670	0	0	0
2020/09/09 03:53:00	BASE	1.47	151	1.65	146	-3.0	96	-3.5	0	0	976.8	NA	0.0000	-SN BR	8000	3610	0	0	0
2020/09/09 03:54:00	BASE	1.55	145	1.85	134	-3.1	97	-3.5	0	0	976.8	NA	0.0000	-SN BR	9999	3610	0	0	0
2020/09/09 03:55:00	BASE	1.73	139	2.06	137	-3.1	97	-3.5	0	0	976.7	NA	0.0000	-SN BR	9999	3510	0	0	0
2020/09/09 03:56:00	BASE	1.97	137	2.31	142	-3.1	97	-3.5	0	0	976.7	NA	0.0000	-SN BR	9999	2790	3510	0	0
2020/09/09 03:57:00	BASE	1.97	140	2.31	142	-3.1	97	-3.5	0	0	976.7	NA	0.0000	-SN BR	9999	3540	0	0	0
2020/09/09 03:58:00	BASE	1.79	134	2.31	142	-3.1	98	-3.4	0	0	976.7	NA	0.0000	-SN BR	9999	1640	0	0	0
2020/09/09 03:59:00	BASE	1.63	126	2.31	142	-3.1	98	-3.4	0	0	976.7	NA	0.0000	-SN BR	9999	3510	0	0	0
2020/09/09 04:00:00	BASE	1.52	123	2.31	142	-3.1	98	-3.3	0	0	976.7	NA	0.0000	-SN	9999	3480	0	0	0
2020/09/09 04:01:00	BASE	1.73	126	2.42	134	-3.0	98	-3.3	0	0	976.7	NA	0.0000	-SN	9999	3450	0	0	0
2020/09/09 04:02:00	BASE	2.03	132	2.42	134	-3.0	99	-3.2	0	0	976.7	NA	0.0000	-SN	9999	3410	0	0	0
2020/09/09 04:03:00	BASE	2.31	134	2.78	130	-3.0	99	-3.2	0	0	976.6	NA	0.0000	-SN	9999	3410	0	0	0
2020/09/09 04:04:00	BASE	2.65	130	2.93	130	-3.0	99	-3.2	0	0	976.6	NA	0.0000		9999	3410	0	0	0
2020/09/09 04:05:00	BASE	2.80	128	3.19	127	-3.0	99	-3.1	0	0	976.6	NA	0.0000		9999	3610	0	0	0
2020/09/09 04:06:00	BASE	2.99	127	3.40	123	-3.0	99	-3.1	0	0	976.6	NA	0.0000		9999	3540	0	0	0
2020/09/09 04:07:00	BASE	2.89	126	3.40	123	-3.0	99	-3.1	0	0	976.5	NA	0.0000		9999	3450	0	0	0
2020/09/09 04:08:00	BASE	2.70	123	3.40	123	-3.0	99	-3.1	0	0	976.5	NA	0.0000		9999	3410	0	0	0
2020/09/09 04:09:00	BASE	2.86	119	3.40	123	-2.9	99	-3.1	0	0	976.5	NA	0.0000		9999	3380	0	0	0
2020/09/09 04:10:00	BASE	3.07	112	3.40	123	-2.9	99	-3.1	0	0	976.5	NA	0.0000		9999	3380	0	0	0
2020/09/09 04:11:00	BASE	3.19	109	3.40	113	-2.9	99	-3.1	0	0	976.5	NA	0.0000		9999	3350	0	0	0
2020/09/09 04:12:00	BASE	3.23	110	3.40	113	-2.9	99	-3.1	0	0	976.4	NA	0.0000		9999	3250	0	0	0
2020/09/09 04:13:00	BASE	3.33	112	3.55	114	-3.0	99	-3.1	0	0	976.4	NA	0.0000		9999	3380	0	0	0
2020/09/09 04:14:00	BASE	3.45	119	3.65	124	-3.0	99	-3.1	0	0	976.4	NA	0.0000		9999	3480	0	0	0
2020/09/09 04:15:00	BASE	3.22	122	3.65	124	-3.0	99	-3.1	0	0	976.4	NA	0.0000		9999	3510	0	0	0
2020/09/09 04:16:00	BASE	2.80	120	3.65	124	-3.0	99	-3.1	0	0	976.3	NA	0.0000		9999	3380	0	0	0
2020/09/09 04:17:00	BASE	2.66	119	3.65	124	-3.0	100	-3.0	0	0	976.3	NA	0.0000		9999	3280	0	0	0
2020/09/09 04:18:00	BASE	2.80	124	3.65	124	-2.9	100	-3.0	0	0	976.2	NA	0.0000		9999	3220	0	0	0
2020/09/09 04:19:00	BASE	3.00	126	3.65	124	-2.9	100	-2.9	0	0	976.2	NA	0.0000		9999	3220	0	0	0
2020/09/09 04:20:00	BASE	3.05	126	3.65	124	-2.9	100	-2.9	0	0	976.2	NA	0.0000		9999	3310	0	0	0
2020/09/09 04:21:00	BASE	2.86	124	3.65	124	-2.9	100	-2.9	0	0	976.2	NA	0.0000		9999	3280	0	0	0
2020/09/09 04:22:00	BASE	2.75	121	3.65	124	-2.9	100	-2.9	0	0	976.2	NA	0.0000		9999	3280	0	0	0
2020/09/09 04:23:00	BASE	3.00	119	3.65	124	-3.0	100	-3.0	0	0	976.2	NA	0.0000		9999	3220	0	0	0
2020/09/09 04:24:00	BASE	3.42	120	3.81	118	-3.0	100	-3.0	0	0	976.2	NA	0.0000		9999	3310	0	0	0
2020/09/09 04:25:00	BASE	3.45	123	3.81	118	-3.0	100	-3.0	0	0	976.2	NA	0.0000		9999	3280	0	0	0
2020/09/09 04:26:00	BASE	3.04	124	3.81	118	-3.1	100	-3.1	0	0	976.2	NA	0.0000		9999	3380	0	0	0
2020/09/09 04:27:00	BASE	2.93	121	3.81	118	-3.1	100	-3.1	0	0	976.2	NA	0.0000		9999	3310	0	0	0
2020/09/09 04:28:00	BASE	2.97	118	3.81	118	-3.1	100	-3.1	0	0	976.1	NA	0.0000		9999	3050	0	0	0
2020/09/09 04:29:00	BASE	2.73	121	3.81	118	-3.2	100	-3.2	0	0	976.0	NA	0.0000		9999	3250	0	0	0
2020/09/09 04:30:00	BASE	2.57	123	3.81	118	-3.2	100	-3.2	0	0	976.0	NA	0.0000		9999	3080	0	0	0
2020/09/09 04:31:00	BASE	2.42	122	3.81	118	-3.2	100	-3.2	0	0	976.0	NA	0.0000		9999	3120	0	0	0
2020/09/09 04:32:00	BASE	2.33	119	3.81	118	-3.2	100	-3.2	0	0	976.0	NA	0.0000		9999	3150	0	0	0
2020/09/09 04:33:00	BASE	2.34	115	3.81	118	-3.1	100	-3.1	0	0	976.0	NA	0.0000		9999	3150	0	0	0
2020/09/09 04:34:00	BASE	2.17	117	3.45	127	-3.1	100	-3.1	0	0	975.9	NA	0.0000		9999	3150	0	0	0
2020/09/09 04:35:00	BASE	2.06	121	3.34	108	-3.1	100	-3.1	0	0	975.9	NA	0.0000		9999	3080	0	0	0
2020/09/09 04:36:00	BASE	2.19	115	3.34	108	-3.1	100	-3.1	0	0	975.9	NA	0.0000		9999	3080	0	0	0
2020/09/09 04:37:00	BASE	2.10	109	3.29	115	-3.1	100	-3.1	0	0	976.0	NA	0.0000		9999	3180	0	0	0
2020/09/09 04:38:00	BASE	1.57	113	3.14	129	-3.1	100	-3.1	0	0	975.9	NA	0.0000		9999	2950	0	0	0
2020/09/09 04:39:00	BASE	0.92	117	2.98	127	-3.1	100	-3.1	0	0	975.9	NA	0.0000		9999	2990	0	0	0
2020/09/09 04:40:00	BASE	0.56	115	2.78	127	-3.1	100	-3.1	0	0	975.9	NA	0.0000		9999	2950	0	0	0
2020/09/09 04:41:00	BASE	0.35	113	2.78	127	-3.1	100	-3.1	0	0	975.9	NA	0.0000		9999	2990	0	0	0
2020/09/09 04:42:00	BASE	0.78	125	2.52	112	-3.1	100	-3.1	0	0	975.9	NA	0.0000		9999	3050	0	0	0
2020/09/09 04:43:00	BASE	1.38	138	2.47	124	-3.1	100	-3.1	0	0	975.9	NA	0.0000		9999	2990	0	0	0
2020/09/09 04:44:00	BASE	1.39	140	2.42	108	-3.0	100	-3.0	0	0	975.9	NA	0.0000		9999	3050	0	0	0
2020/09/09 04:45:00	BASE	1.15	152	2.42	108	-3.0	100	-3.0	0	0	975.8	NA	0.0000		9999	3220	0	0	0
2020/09/09 04:46:00	BASE	0.59	170	2.21	107	-3.0	100	-3.0	0	0	975.8	NA	0.0000		9999	3150	0	0	0
2020/09/09 04:47:00	BASE	0.13	161	1.85	139	-3.0	100	-3.0	0	0	975.8	NA	0.0000		9999	3180	0	0	0
2020/09/09 04:48:00	BASE	0.00	153	1.85	139	-3.0	100	-3.0	0	0	975.9	NA	0.0000		9999	3310	0	0	0
2020/09/09 04:49:00	BASE	0.17	167	1.85	139	-3.0	100	-3.0	0	0	975.9	NA	0.0000		9999	3220	0	0	0
2020/09/09 04:50:00	BASE	0.17	190	1.85	139	-3.0	100	-3.0	0	0	975.9	NA	0.0000		9999	3220	0	0	0
2020/09/09 04:51:00	BASE	0.28	284	1.85	139	-3.0	100	-3.0	0	0	976.0	NA	0.0000		9999	3310	0	0	0
2020/09/09 04:52:00	BASE	0.56	334	1.85	139	-3.1	100	-3.1	0	0	975.9	NA	0.0000		9999	3180	0	0	0
2020/09/09 04:53:00	BASE	0.27	324	1.85	139	-3.1	100	-3.1	0	0	975.9	NA	0.0000		9999	3220	0	0	0
2020/09/09 04:54:00	BASE	0.00	0	1.80	150	-3.1	100	-3.1	0	0	975.9	NA	0.0000		9999	3250	0	0	0
2020/09/09 04:55:00	BASE	0.00	134	1.44	171	-3.1	100	-3.1	0	0	975.9	NA	0.0000		9999	3220	0	0	0
2020/09/09 04:56:00	BASE	0.09	158	1.44	171	-3.0	100	-3.0	0	0	975.8	NA	0.0000		9999	3080	0	0	0
2020/09/09 04:57:00	BASE	0.09	137	1.44	171	-3.0	100	-3.0	0	0	975.9	NA	0.0000		9999	2990	0	0	0
2020/09/09 04:58:00	BASE	0.00	120	1.44	171	-3.0	100	-3.0	0	0	975.9	NA	0.0000		9999	3180	0	0	0
2020/09/09 04:59:00	BASE	0.00	152	1.18	338	-3.0	100	-3.0	0	0	975.8	NA	0.0000		9999	3150	0	0	0
2020/09/09 05:00:00	BASE	0.31	235	1.39	278	-3.0	100	-3.0	0	0	975.8	NA	0.0000		9999	2990	0	0	0
2020/09/09 05:01:00	BASE	0.98	269	1.54	267	-3.0	100	-3.0	0	0	975.8	NA	0.0000		9999	3080	0	0	0
2020/09/09 05:02:00	BASE	0.76	243	1.54	267	-3.0	100	-3.0	0	0	975.8	NA	0.0000		9999	2950	0	0	0
2020/09/09 05:03:00	BASE	0.30	190	1.54	267	-3.0	100	-3.0	0	0	975.8	NA	0.0000		9999	3120	0	0	0
2020/09/09 05:04:00	BASE	1.00	173	1.75	199	-3.0	100	-3.0	0	0	975.7	NA	0.0000		9999	3080	0	0	0
2020/09/09 05:05:00	BASE	1.61	190	1.85	196	-3.0	100	-3.0	0	0	975.7	NA	0.0000		9999	2850	0	0	0
2020/09/09 05:06:00	BASE	1.40	198	1.85	196	-3.0	100	-3.0	0	0	975.8	NA	0.0000		9999	2820	0	0	0
2020/09/09 05:07:00	BASE	1.22	207	1.85	196	-3.0	100	-3.0	0	0	975.8	NA	0.0000		9999	2990	0	0	0
2020/09/09 05:08:00	BASE	1.32	234	1.85	196	-3.0	100	-3.0	0	0	975.8	NA	0.0000		9999	3050	0	0	0
2020/09/09 05:09:00	BASE	1.33	274	1.85	196	-3.1	100	-3.1	0	0	975.8	NA	0.0000		9999	2990	0	0	0
2020/09/09 05:10:00	BASE	1.20	298	1.85	196	-3.1	100	-3.1	0	0	975.8	NA	0.0000		9999	3150	0	0	0
2020/09/09 05:11:00	BASE	1.25	275	1.85	196	-3.1	100	-3.1	0	0	975.7	NA	0.0000		9999	2920	3900	0	0
2020/09/09 05:12:00	BASE	1.43	232	1.85	196	-3.0	100	-3.0	0	0	975.6	NA	0.0000		9999	2990	0	0	0
2020/09/09 05:13:00	BASE	1.55	203	2.06	183	-3.0	100	-3.0	0	0	975.6	NA	0.0000		9999	3020	0	0	0
2020/09/09 05:14:00	BASE	1.99	184	2.52	179	-3.0	100	-3.0	0	0	975.6	NA	0.0000		9999	2790	0	0	0
2020/09/09 05:15:00	BASE	2.39	179	2.57	180	-3.0	100	-3.0	0	0	975.6	NA	0.0000		9999	3020	0	0	0
2020/09/09 05:16:00	BASE	2.15	193	2.57	180	-3.0	100	-3.0	0	0	975.6	NA	0.0000		9999	2850	0	0	0
2020/09/09 05:17:00	BASE	1.30	210	2.57	180	-3.0	100	-3.0	0	0	975.7	NA	0.0000		9999	2590	0	0	0
2020/09/09 05:18:00	BASE	0.35	206	2.57	180	-3.0	100	-3.0	0	0	975.8	NA	0.0000		9999	2620	0	0	0
2020/09/09 05:19:00	BASE	0.00	184	2.57	180	-3.0	100	-3.0	0	0	975.8	NA	0.0000		9999	2820	0	0	0
2020/09/09 05:20:00	BASE	0.41	161	2.57	180	-3.0	100	-3.0	0	0	975.8	NA	0.0000		9999	2660	0	0	0
2020/09/09 05:21:00	BASE	1.46	153	2.83	157	-3.0	100	-3.0	0	0	975.6	NA	0.0000		9999	2690	0	0	0
2020/09/09 05:22:00	BASE	2.73	155	3.76	157	-3.0	100	-3.0	0	0	975.6	NA	0.0000		9999	2950	0	0	0
2020/09/09 05:23:00	BASE	3.37	151	3.76	146	-3.0	100	-3.0	0	0	975.5	NA	0.0000		9999	2790	0	0	0
2020/09/09 05:24:00	BASE	2.39	151	3.76	146	-3.0	100	-3.0	0	0	975.6	NA	0.0000		9999	2820	0	0	0
2020/09/09 05:25:00	BASE	0.84	167	3.76	146	-3.0	100	-3.0	0	0	975.7	NA	0.0000		9999	2790	0	0	0
2020/09/09 05:26:00	BASE	1.46	331	3.76	146	-3.0	100	-3.0	0	0	975.8	NA	0.0000		9999	2400	0	0	0
2020/09/09 05:27:00	BASE	1.80	345	3.76	146	-3.1	100	-3.1	0	0	975.8	NA	0.0000		9999	2460	0	0	0
2020/09/09 05:28:00	BASE	0.86	309	3.76	146	-3.1	100	-3.1	0	0	975.7	NA	0.0000		9999	2890	0	0	0
2020/09/09 05:29:00	BASE	1.72	223	3.76	146	-3.1	100	-3.1	0	0	975.5	NA	0.0000		9999	2720	0	0	0
2020/09/09 05:30:00	BASE	2.44	204	3.76	146	-3.1	100	-3.1	0	0	975.6	NA	0.0000		9999	2590	0	0	0
2020/09/09 05:31:00	BASE	1.37	221	3.76	146	-3.0	100	-3.0	0	0	975.7	NA	0.0000		9999	2560	0	0	0
2020/09/09 05:32:00	BASE	0.74	315	3.76	146	-3.0	100	-3.0	0	0	975.8	NA	0.0000		9999	2660	0	0	0
2020/09/09 05:33:00	BASE	1.00	289	3.09	199	-3.0	100	-3.0	0	0	975.6	NA	0.0000		9999	2530	0	0	0
2020/09/09 05:34:00	BASE	1.74	232	3.09	199	-3.0	100	-3.0	0	0	975.4	NA	0.0000		9999	2490	0	0	0
2020/09/09 05:35:00	BASE	1.70	236	3.09	199	-3.0	100	-3.0	0	0	975.5	NA	0.0000		9999	2490	0	0	0
2020/09/09 05:36:00	BASE	0.78	286	3.09	199	-3.1	100	-3.1	0	0	975.6	NA	0.0000		9999	2660	0	0	0
2020/09/09 05:37:00	BASE	0.40	308	3.09	199	-3.1	100	-3.1	0	0	975.6	NA	0.0000		9999	2920	0	0	0
2020/09/09 05:38:00	BASE	0.68	259	3.09	199	-3.1	100	-3.1	0	0	975.6	NA	0.0000		9999	2790	0	0	0
2020/09/09 05:39:00	BASE	1.56	227	2.88	201	-3.0	100	-3.0	0	0	975.6	NA	0.0000		9999	2690	0	0	0
2020/09/09 05:40:00	BASE	1.79	221	2.73	218	-3.0	100	-3.0	0	0	975.6	NA	0.0000		9999	2760	0	0	0
2020/09/09 05:41:00	BASE	0.97	196	2.73	218	-3.0	100	-3.0	0	0	975.7	NA	0.0000		9999	2760	0	0	0
2020/09/09 05:42:00	BASE	0.69	151	2.73	218	-3.0	100	-3.0	0	0	975.7	NA	0.0000		9999	2690	0	0	0
2020/09/09 05:43:00	BASE	1.77	131	2.73	136	-2.9	100	-2.9	0	0	975.6	NA	0.0000		9999	2620	0	0	0
2020/09/09 05:44:00	BASE	2.13	136	2.73	136	-2.9	100	-2.9	0	0	975.6	NA	0.0000		9999	2530	0	0	0
2020/09/09 05:45:00	BASE	1.12	148	2.73	136	-2.9	100	-2.9	0	0	975.6	NA	0.0000		9999	2530	0	0	0
2020/09/09 05:46:00	BASE	0.23	167	2.73	136	-2.9	100	-2.9	0	0	975.6	NA	0.0000		9999	2460	0	0	0
2020/09/09 05:47:00	BASE	0.23	336	2.73	136	-2.9	100	-2.9	0	0	975.6	NA	0.0000		9999	2620	0	0	0
2020/09/09 05:48:00	BASE	0.65	338	2.73	136	-2.9	100	-2.9	0	0	975.6	NA	0.0000		9999	2820	0	0	0
2020/09/09 05:49:00	BASE	0.42	335	2.73	136	-3.0	100	-3.0	0	0	975.6	NA	0.0000		9999	2820	0	0	0
2020/09/09 05:50:00	BASE	0.00	321	2.73	136	-3.0	100	-3.0	0	0	975.6	NA	0.0000		9999	2890	0	0	0
2020/09/09 05:51:00	BASE	0.04	234	2.73	136	-3.1	100	-3.1	0	0	975.6	NA	0.0000		9999	2820	0	0	0
2020/09/09 05:52:00	BASE	0.91	222	2.73	136	-3.1	100	-3.1	0	0	975.6	NA	0.0000		9999	2890	0	0	0
2020/09/09 05:53:00	BASE	1.96	241	2.37	245	-3.1	100	-3.1	0	0	975.6	NA	0.0000		9999	2790	0	0	0
2020/09/09 05:54:00	BASE	1.78	245	2.37	245	-3.1	100	-3.1	0	0	975.6	NA	0.0000		9999	2820	0	0	0
2020/09/09 05:55:00	BASE	0.68	235	2.37	245	-3.1	100	-3.1	0	0	975.6	NA	0.0000		9999	2890	0	0	0
2020/09/09 05:56:00	BASE	0.55	207	2.37	245	-3.2	100	-3.2	0	0	975.6	NA	0.0000		9999	2620	0	0	0
2020/09/09 05:57:00	BASE	1.85	189	2.88	188	-3.2	100	-3.2	0	0	975.4	NA	0.0000		9999	2920	0	0	0
2020/09/09 05:58:00	BASE	2.18	178	2.88	188	-3.2	100	-3.2	0	0	975.5	NA	0.0000		9999	2890	0	0	0
2020/09/09 05:59:00	BASE	1.47	138	2.88	188	-3.2	100	-3.2	0	0	975.6	NA	0.0000		9999	2990	0	0	0
2020/09/09 06:00:00	BASE	1.43	108	2.88	188	-3.2	100	-3.2	0	0	975.5	NA	0.0000		9999	2990	0	0	0
2020/09/09 06:01:00	BASE	1.16	114	2.88	188	-3.2	100	-3.2	0	0	975.5	NA	0.0000		9999	3080	0	0	0
2020/09/09 06:02:00	BASE	0.33	132	2.88	188	-3.1	100	-3.1	0	0	975.6	NA	0.0000		9999	3120	0	0	0
2020/09/09 06:03:00	BASE	0.19	221	2.88	188	-3.0	100	-3.0	0	0	975.5	NA	0.0000		9999	3020	0	0	0
2020/09/09 06:04:00	BASE	0.42	270	2.88	188	-3.0	100	-3.0	0	0	975.5	NA	0.0000		9999	2990	0	0	0
2020/09/09 06:05:00	BASE	0.23	328	2.88	188	-3.0	100	-3.0	0	0	975.6	NA	0.0000		9999	2590	0	0	0
2020/09/09 06:06:00	BASE	0.18	56	2.88	188	-3.0	100	-3.0	0	0	975.6	NA	0.0000		9999	3020	0	0	0
2020/09/09 06:07:00	BASE	0.75	133	2.31	179	-3.0	100	-3.0	0	0	975.5	NA	0.0000		9999	3080	0	0	0
2020/09/09 06:08:00	BASE	1.81	178	2.68	184	-3.0	100	-3.0	0	0	975.4	NA	0.0000		9999	2990	0	0	0
2020/09/09 06:09:00	BASE	2.47	186	2.68	184	-3.0	100	-3.0	0	0	975.4	NA	0.0000		9999	3050	0	0	0
2020/09/09 06:10:00	BASE	1.85	175	2.68	184	-3.0	100	-3.0	0	0	975.4	NA	0.0000		9999	2990	0	0	0
2020/09/09 06:11:00	BASE	1.43	114	2.68	45	-3.0	100	-3.0	0	0	975.4	NA	0.0000		9999	3050	0	0	0
2020/09/09 06:12:00	BASE	2.05	55	2.88	45	-3.0	100	-3.0	0	0	975.4	NA	0.0000		9999	2990	0	0	0
2020/09/09 06:13:00	BASE	2.08	49	2.88	45	-3.0	100	-3.0	0	0	975.4	NA	0.0000		9999	3020	0	0	0
2020/09/09 06:14:00	BASE	1.54	48	2.88	45	-3.1	100	-3.1	0	0	975.4	NA	0.0000		9999	3080	0	0	0
2020/09/09 06:15:00	BASE	1.42	48	2.88	45	-3.1	100	-3.1	0	0	975.4	NA	0.0000		9999	3050	0	0	0
2020/09/09 06:16:00	BASE	1.47	49	2.88	45	-3.2	100	-3.2	0	0	975.4	NA	0.0000		9999	3080	0	0	0
2020/09/09 06:17:00	BASE	1.00	41	2.88	45	-3.2	100	-3.2	0	0	975.4	NA	0.0000		9999	3120	0	0	0
2020/09/09 06:18:00	BASE	0.25	21	2.88	45	-3.2	100	-3.2	0	0	975.4	NA	0.0000		9999	3020	0	0	0
2020/09/09 06:19:00	BASE	0.00	12	2.88	45	-3.2	100	-3.2	0	0	975.4	NA	0.0000		9999	2990	0	0	0
2020/09/09 06:20:00	BASE	0.22	26	2.88	45	-3.1	100	-3.1	0	0	975.4	NA	0.0000		9999	2990	0	0	0
2020/09/09 06:21:00	BASE	0.35	54	2.88	45	-3.1	100	-3.1	0	0	975.4	NA	0.0000		9999	3020	0	0	0
2020/09/09 06:22:00	BASE	0.13	112	2.06	54	-3.1	100	-3.1	0	0	975.4	NA	0.0000		9999	2990	0	0	0
2020/09/09 06:23:00	BASE	0.35	87	1.70	52	-3.1	100	-3.1	0	0	975.4	NA	0.0000		9999	3020	0	0	0
2020/09/09 06:24:00	BASE	0.40	26	1.70	52	-3.0	100	-3.0	0	0	975.4	NA	0.0000		9999	3020	0	0	0
2020/09/09 06:25:00	BASE	0.64	265	2.42	208	-3.0	100	-3.0	0	0	975.3	NA	0.0000		9999	3050	0	0	0
2020/09/09 06:26:00	BASE	1.73	217	2.78	208	-2.9	100	-2.9	0	0	975.2	NA	0.0000		9999	3050	0	0	0
2020/09/09 06:27:00	BASE	1.91	203	2.78	208	-2.9	100	-2.9	0	0	975.3	NA	0.0000		9999	3020	0	0	0
2020/09/09 06:28:00	BASE	1.62	173	2.78	208	-2.8	100	-2.8	0	0	975.3	NA	0.0000		9999	2990	0	0	0
2020/09/09 06:29:00	BASE	1.95	141	2.78	208	-2.8	100	-2.8	0	0	975.3	NA	0.0000		9999	2920	0	0	0
2020/09/09 06:30:00	BASE	2.23	128	2.78	208	-2.7	100	-2.7	0	0	975.3	NA	0.0000		9999	2920	0	0	0
2020/09/09 06:31:00	BASE	2.43	131	2.78	142	-2.7	100	-2.7	0	0	975.3	NA	0.0000		9999	2950	0	0	0
2020/09/09 06:32:00	BASE	2.75	140	3.19	134	-2.7	100	-2.7	0	0	975.3	NA	0.0000		9999	3050	0	0	0
2020/09/09 06:33:00	BASE	3.08	141	3.81	128	-2.6	100	-2.6	0	0	975.2	NA	0.0000		9999	2990	0	0	0
2020/09/09 06:34:00	BASE	3.64	136	4.53	136	-2.6	100	-2.6	0	0	975.2	NA	0.0000		9999	3050	0	0	0
2020/09/09 06:35:00	BASE	4.41	136	4.89	138	-2.6	100	-2.6	0	0	975.2	NA	0.0000		9999	2990	0	0	0
2020/09/09 06:36:00	BASE	4.56	136	4.89	138	-2.5	100	-2.5	0	0	975.2	NA	0.0000		9999	2950	3670	0	0
2020/09/09 06:37:00	BASE	4.46	128	5.30	118	-2.4	100	-2.4	0	0	975.2	NA	0.0000		9999	2790	0	0	0
2020/09/09 06:38:00	BASE	4.56	119	5.30	118	-2.3	100	-2.3	0	0	975.2	NA	0.0000		9999	2460	0	0	0
2020/09/09 06:39:00	BASE	4.26	118	5.30	118	-2.0	100	-2.0	0	0	975.2	NA	0.0000		9999	2950	0	0	0
2020/09/09 06:40:00	BASE	4.05	126	5.30	118	-1.8	100	-1.8	0	0	975.1	NA	0.0000		9999	2460	0	0	0
2020/09/09 06:41:00	BASE	4.55	133	5.40	137	-1.7	100	-1.7	0	0	975.1	NA	0.0000		9999	2530	0	0	0
2020/09/09 06:42:00	BASE	5.12	141	5.86	157	-1.6	100	-1.6	0	0	975.0	NA	0.0000		9999	2560	0	0	0
2020/09/09 06:43:00	BASE	5.73	152	6.48	161	-1.6	100	-1.6	0	0	974.8	NA	0.0000		9999	2530	0	0	0
2020/09/09 06:44:00	BASE	6.08	159	6.58	160	-1.6	100	-1.7	0	0	974.8	NA	0.0000		9999	2530	0	0	0
2020/09/09 06:45:00	BASE	5.81	161	6.58	160	-1.6	99	-1.7	0	0	974.8	NA	0.0000		9999	2490	0	0	0
2020/09/09 06:46:00	BASE	5.61	149	6.58	160	-1.7	99	-1.8	0	0	974.9	NA	0.0000		9999	2460	0	0	0
2020/09/09 06:47:00	BASE	5.50	136	6.58	160	-1.6	99	-1.8	0	0	974.9	NA	0.0000		9999	2430	0	0	0
2020/09/09 06:48:00	BASE	5.07	131	6.58	160	-1.6	98	-1.8	0	0	974.9	NA	0.0000		9999	2530	0	0	0
2020/09/09 06:49:00	BASE	4.64	132	6.58	160	-1.5	98	-1.8	0	0	974.9	NA	0.0000		9999	2790	0	0	0
2020/09/09 06:50:00	BASE	4.45	139	6.58	160	-1.5	97	-1.9	0	0	974.8	NA	0.0000		9999	2530	0	0	0
2020/09/09 06:51:00	BASE	4.27	140	6.58	160	-1.4	97	-1.9	0	0	974.8	NA	0.0000		9999	2530	0	0	0
2020/09/09 06:52:00	BASE	4.84	132	6.69	131	-1.4	96	-1.9	0	0	974.8	NA	0.0000		9999	2530	0	0	0
2020/09/09 06:53:00	BASE	6.16	133	7.25	138	-1.4	96	-2.0	0	0	974.7	NA	0.0000		9999	2530	0	0	0
2020/09/09 06:54:00	BASE	6.63	143	7.25	138	-1.4	95	-2.1	0	0	974.6	NA	0.0000		9999	2850	0	0	0
2020/09/09 06:55:00	BASE	6.25	152	7.25	138	-1.4	95	-2.1	0	0	974.6	NA	0.0000		9999	2360	0	0	0
2020/09/09 06:56:00	BASE	5.42	150	7.25	138	-1.4	94	-2.2	0	0	974.7	NA	0.0000		9999	2460	0	0	0
2020/09/09 06:57:00	BASE	4.38	139	7.25	138	-1.4	94	-2.3	0	0	974.8	NA	0.0000		9999	2660	0	0	0
2020/09/09 06:58:00	BASE	3.84	133	7.25	138	-1.4	94	-2.3	0	0	974.7	NA	0.0000		9999	2660	0	0	0
2020/09/09 06:59:00	BASE	4.15	140	7.25	138	-1.5	93	-2.4	0	0	974.6	NA	0.0000		9999	2620	0	0	0
2020/09/09 07:00:00	BASE	4.64	146	7.25	138	-1.5	93	-2.5	0	0	974.6	NA	0.0000		9999	2490	3020	0	0
2020/09/09 07:01:00	BASE	4.24	140	7.25	138	-1.6	93	-2.6	0	0	974.6	NA	0.0000		9999	2460	0	0	0
2020/09/09 07:02:00	BASE	3.43	128	7.25	138	-1.6	92	-2.6	0	0	974.8	NA	0.0000		9999	2660	0	0	0
2020/09/09 07:03:00	BASE	2.76	117	6.74	144	-1.6	92	-2.7	0	0	974.8	NA	0.0000		9999	2660	0	0	0
2020/09/09 07:04:00	BASE	2.38	119	6.53	156	-1.5	92	-2.7	0	0	974.7	NA	0.0000		9999	2690	0	0	0
2020/09/09 07:05:00	BASE	2.41	130	5.14	152	-1.5	92	-2.6	0	0	974.7	NA	0.0000		9999	2530	0	0	0
2020/09/09 07:06:00	BASE	2.78	138	4.99	148	-1.4	92	-2.6	0	0	974.6	NA	0.0000		9999	2690	0	0	0
2020/09/09 07:07:00	BASE	2.96	146	4.99	148	-1.4	92	-2.6	0	0	974.6	NA	0.0000		9999	2690	0	0	0
2020/09/09 07:08:00	BASE	2.47	157	4.99	148	-1.4	91	-2.6	0	0	974.6	NA	0.0000		9999	2790	0	0	0
2020/09/09 07:09:00	BASE	1.40	169	4.99	148	-1.4	91	-2.7	0	0	974.6	NA	0.0000		9999	2620	0	0	0
2020/09/09 07:10:00	BASE	0.37	160	4.27	136	-1.5	90	-2.9	0	0	974.6	NA	0.0000		9999	2790	0	0	0
2020/09/09 07:11:00	BASE	0.13	79	3.65	129	-1.6	90	-3.0	0	0	974.6	NA	0.0000		9999	2760	0	0	0
2020/09/09 07:12:00	BASE	0.65	39	3.29	143	-1.6	90	-3.0	0	0	974.7	NA	0.0000		9999	2560	0	0	0
2020/09/09 07:13:00	BASE	1.18	18	3.29	143	-1.6	90	-3.0	0	0	974.6	NA	0.0000		9999	2690	0	0	0
2020/09/09 07:14:00	BASE	1.16	337	3.29	143	-1.7	91	-3.0	0	0	974.5	NA	0.0000		9999	2790	0	0	0
2020/09/09 07:15:00	BASE	0.86	64	3.29	143	-1.6	91	-2.9	0	0	974.5	NA	0.0000		9999	2620	0	0	0
2020/09/09 07:16:00	BASE	0.84	120	2.98	152	-1.5	91	-2.8	0	0	974.6	NA	0.0000		9999	2820	0	0	0
2020/09/09 07:17:00	BASE	0.48	131	2.68	154	-1.5	91	-2.8	0	0	974.5	NA	0.0000		9999	2920	0	0	0
2020/09/09 07:18:00	BASE	0.65	132	2.98	123	-1.4	90	-2.8	0	0	974.5	NA	0.0000		9999	2690	0	0	0
2020/09/09 07:19:00	BASE	2.53	134	5.09	130	-1.3	90	-2.7	0	0	974.5	NA	0.0000		9999	2590	0	0	0
2020/09/09 07:20:00	BASE	3.96	126	5.09	130	-1.2	90	-2.7	0	0	974.5	NA	0.0000		9999	2820	0	0	0
2020/09/09 07:21:00	BASE	4.29	121	5.09	130	-1.1	90	-2.6	0	0	974.4	NA	0.0000		9999	2690	0	0	0
2020/09/09 07:22:00	BASE	4.31	123	5.09	130	-1.0	90	-2.5	0	0	974.3	NA	0.0000		9999	2760	0	0	0
2020/09/09 07:23:00	BASE	4.49	126	5.45	127	-1.0	89	-2.5	0	0	974.2	NA	0.0000		9999	2890	0	0	0
2020/09/09 07:24:00	BASE	5.24	127	6.48	124	-0.9	89	-2.5	0	0	974.2	NA	0.0000		9999	2850	0	0	0
2020/09/09 07:25:00	BASE	5.50	129	6.48	124	-0.9	88	-2.6	0	0	974.1	NA	0.0000		9999	2890	0	0	0
2020/09/09 07:26:00	BASE	5.38	129	6.48	124	-0.8	88	-2.6	0	0	974.0	NA	0.0000		9999	2690	0	0	0
2020/09/09 07:27:00	BASE	4.82	126	6.48	124	-0.8	87	-2.7	0	0	974.1	NA	0.0000		9999	2820	0	0	0
2020/09/09 07:28:00	BASE	4.54	118	6.48	124	-0.8	87	-2.6	0	0	974.1	NA	0.0000		9999	2890	0	0	0
2020/09/09 07:29:00	BASE	4.79	112	6.48	124	-0.7	87	-2.6	0	0	974.1	NA	0.0000		9999	2720	0	0	0
2020/09/09 07:30:00	BASE	4.69	115	6.48	124	-0.5	86	-2.5	0	0	974.1	NA	0.0000		9999	2850	0	0	0
2020/09/09 07:31:00	BASE	4.52	116	6.48	124	-0.4	86	-2.5	0	0	974.1	NA	0.0000		9999	3050	0	0	0
2020/09/09 07:32:00	BASE	4.18	119	6.48	124	-0.3	85	-2.5	0	0	974.1	NA	0.0000		9999	2990	0	0	0
2020/09/09 07:33:00	BASE	4.09	125	6.48	124	-0.3	85	-2.6	0	0	974.1	NA	0.0000		9999	2990	0	0	0
2020/09/09 07:34:00	BASE	4.17	118	5.97	131	-0.4	84	-2.8	0	0	974.0	NA	0.0000		9999	3080	0	0	0
2020/09/09 07:35:00	BASE	4.45	118	5.86	129	-0.5	84	-3.0	0	0	973.9	NA	0.0000		9999	3020	0	0	0
2020/09/09 07:36:00	BASE	5.21	127	5.92	129	-0.6	83	-3.1	0	0	973.9	NA	0.0000		9999	2950	0	0	0
2020/09/09 07:37:00	BASE	5.38	128	5.92	129	-0.7	83	-3.2	0	0	973.9	NA	0.0000		9999	3120	0	0	0
2020/09/09 07:38:00	BASE	4.82	123	5.92	129	-0.7	83	-3.2	0	0	973.9	NA	0.0000		9999	3120	0	0	0
2020/09/09 07:39:00	BASE	4.29	121	5.92	129	-0.6	83	-3.2	0	0	973.9	NA	0.0000		9999	3150	0	0	0
2020/09/09 07:40:00	BASE	3.37	129	5.92	129	-0.6	83	-3.1	0	0	973.9	NA	0.0000		9999	3080	0	0	0
2020/09/09 07:41:00	BASE	3.43	136	5.92	129	-0.5	83	-3.1	0	0	973.9	NA	0.0000		9999	3120	0	0	0
2020/09/09 07:42:00	BASE	4.40	134	5.92	129	-0.5	83	-3.1	0	0	973.8	NA	0.0000		9999	3180	0	0	0
2020/09/09 07:43:00	BASE	4.32	131	5.92	129	-0.5	82	-3.1	0	0	973.8	NA	0.0000		9999	3080	0	0	0
2020/09/09 07:44:00	BASE	3.33	128	5.92	129	-0.5	82	-3.2	0	0	973.9	NA	0.0000		9999	3150	0	0	0
2020/09/09 07:45:00	BASE	2.66	120	5.92	129	-0.5	82	-3.2	0	0	973.8	NA	0.0000		9999	3250	0	0	0
2020/09/09 07:46:00	BASE	3.14	121	5.50	128	-0.5	82	-3.2	0	0	973.7	NA	0.0000		9999	3180	0	0	0
2020/09/09 07:47:00	BASE	4.26	130	5.35	134	-0.5	82	-3.2	0	0	973.7	NA	0.0000		9999	3220	0	0	0
2020/09/09 07:48:00	BASE	4.71	134	5.35	134	-0.5	82	-3.2	0	0	973.7	NA	0.0000		9999	3180	0	0	0
2020/09/09 07:49:00	BASE	4.24	135	5.35	134	-0.4	82	-3.2	0	0	973.7	NA	0.0000		9999	3050	0	0	0
2020/09/09 07:50:00	BASE	3.27	132	5.35	134	-0.3	81	-3.1	0	0	973.7	NA	0.0000		9999	3310	0	0	0
2020/09/09 07:51:00	BASE	2.69	133	5.35	134	-0.3	81	-3.1	0	0	973.7	NA	0.0000		9999	3350	0	0	0
2020/09/09 07:52:00	BASE	2.34	142	5.35	134	-0.3	81	-3.2	0	0	973.7	NA	0.0000		9999	3020	0	0	0
2020/09/09 07:53:00	BASE	1.82	147	5.35	134	-0.3	80	-3.3	0	0	973.7	NA	0.0000		9999	3120	0	0	0
2020/09/09 07:54:00	BASE	0.99	145	5.35	134	-0.4	80	-3.4	0	0	973.7	NA	0.0000		9999	2990	0	0	0
2020/09/09 07:55:00	BASE	0.19	178	5.35	134	-0.5	80	-3.5	0	0	973.7	NA	0.0000		9999	3150	0	0	0
2020/09/09 07:56:00	BASE	0.68	261	5.35	134	-0.5	80	-3.5	0	0	973.7	NA	0.0000		9999	3080	0	0	0
2020/09/09 07:57:00	BASE	1.70	282	4.68	133	-0.6	80	-3.6	0	0	973.7	NA	0.0000		9999	3120	0	0	0
2020/09/09 07:58:00	BASE	1.76	275	4.48	138	-0.7	81	-3.6	0	0	973.7	NA	0.0000		9999	3180	0	0	0
2020/09/09 07:59:00	BASE	1.06	254	3.24	134	-0.7	81	-3.6	0	0	973.7	NA	0.0000		9999	3180	0	0	0
2020/09/09 08:00:00	BASE	1.01	221	3.24	134	-0.8	81	-3.6	0	0	973.7	NA	0.0000		9999	3450	0	0	0
2020/09/09 08:01:00	BASE	1.07	198	2.42	294	-0.8	81	-3.6	0	0	973.6	NA	0.0000		9999	3410	0	0	0
2020/09/09 08:02:00	BASE	0.46	182	2.42	294	-0.9	82	-3.6	0	0	973.6	NA	0.0000		9999	3350	0	0	0
2020/09/09 08:03:00	BASE	0.36	160	2.42	294	-0.9	82	-3.6	0	0	973.6	NA	0.0000		9999	3380	0	0	0
2020/09/09 08:04:00	BASE	0.41	161	2.42	294	-0.8	82	-3.4	0	0	973.6	NA	0.0000		9999	3220	0	0	0
2020/09/09 08:05:00	BASE	0.74	205	2.42	294	-0.8	82	-3.4	0	0	973.6	NA	0.0000		9999	3220	0	0	0
2020/09/09 08:06:00	BASE	1.35	245	2.42	294	-0.8	82	-3.4	0	0	973.6	NA	0.0000		9999	3180	0	0	0
2020/09/09 08:07:00	BASE	0.75	244	2.01	242	-0.8	82	-3.4	0	0	973.6	NA	0.0000		9999	3250	0	0	0
2020/09/09 08:08:00	BASE	0.41	207	2.01	242	-0.9	82	-3.5	0	0	973.6	NA	0.0000		9999	3280	0	0	0
2020/09/09 08:09:00	BASE	1.36	174	2.37	156	-1.0	83	-3.6	0	0	973.5	NA	0.0000		9999	2990	0	0	0
2020/09/09 08:10:00	BASE	2.21	171	2.57	179	-1.0	83	-3.6	0	0	973.5	NA	0.0000		9999	2990	0	0	0
2020/09/09 08:11:00	BASE	2.56	180	2.88	180	-1.1	83	-3.5	0	0	973.4	NA	0.0000		9999	2920	0	0	0
2020/09/09 08:12:00	BASE	2.59	175	2.88	180	-1.1	84	-3.5	0	0	973.4	NA	0.0000		9999	3150	0	0	0
2020/09/09 08:13:00	BASE	2.60	157	2.88	135	-1.1	84	-3.5	0	0	973.4	NA	0.0000		9999	3220	0	0	0
2020/09/09 08:14:00	BASE	2.45	150	2.88	135	-1.1	84	-3.5	0	0	973.4	NA	0.0000		9999	3150	0	0	0
2020/09/09 08:15:00	BASE	2.06	165	2.88	135	-1.1	84	-3.4	0	0	973.4	NA	0.0000		9999	2890	0	0	0
2020/09/09 08:16:00	BASE	2.30	178	3.09	183	-1.2	85	-3.4	0	0	973.4	NA	0.0000		9999	2890	0	0	0
2020/09/09 08:17:00	BASE	2.69	179	3.09	183	-1.2	85	-3.5	0	0	973.4	NA	0.0000		9999	2820	0	0	0
2020/09/09 08:18:00	BASE	2.67	180	3.09	183	-1.3	85	-3.5	0	0	973.4	NA	0.0000		9999	3120	0	0	0
2020/09/09 08:19:00	BASE	2.79	179	3.09	176	-1.4	85	-3.5	0	0	973.4	NA	0.0000		9999	3220	0	0	0
2020/09/09 08:20:00	BASE	2.96	175	3.19	169	-1.4	86	-3.5	0	0	973.4	NA	0.0000		9999	3080	0	0	0
2020/09/09 08:21:00	BASE	3.09	166	3.50	159	-1.5	86	-3.5	0	0	973.4	NA	0.0000		9999	2890	0	0	0
2020/09/09 08:22:00	BASE	3.17	156	3.50	159	-1.5	86	-3.5	0	0	973.4	NA	0.0000		9999	3050	0	0	0
2020/09/09 08:23:00	BASE	2.98	150	3.50	159	-1.5	87	-3.4	0	0	973.4	NA	0.0000		9999	2820	0	0	0
2020/09/09 08:24:00	BASE	2.69	151	3.50	159	-1.5	87	-3.3	0	0	973.4	NA	0.0000		9999	2990	0	0	0
2020/09/09 08:25:00	BASE	2.46	152	3.50	159	-1.5	88	-3.3	0	0	973.4	NA	0.0000		9999	3020	0	0	0
2020/09/09 08:26:00	BASE	2.42	151	3.50	159	-1.5	88	-3.2	0	0	973.3	NA	0.0000		9999	2990	0	0	0
2020/09/09 08:27:00	BASE	2.91	153	3.55	159	-1.6	89	-3.2	0	0	973.3	NA	0.0000		9999	3020	0	0	0
2020/09/09 08:28:00	BASE	3.39	159	3.55	163	-1.6	89	-3.1	0	0	973.3	NA	0.0000		9999	3220	0	0	0
2020/09/09 08:29:00	BASE	3.41	162	3.55	164	-1.6	89	-3.1	0	0	973.3	NA	0.0000		9999	3080	0	0	0
2020/09/09 08:30:00	BASE	3.16	161	3.55	164	-1.5	90	-3.0	0	0	973.3	NA	0.0000		9999	2950	0	0	0
2020/09/09 08:31:00	BASE	3.15	157	4.12	155	-1.5	90	-3.0	0	0	973.2	NA	0.0000		9999	2920	0	0	0
2020/09/09 08:32:00	BASE	3.65	158	4.48	162	-1.5	90	-2.9	0	0	973.2	NA	0.0000		9999	2990	0	0	0
2020/09/09 08:33:00	BASE	3.68	159	4.48	162	-1.5	90	-2.9	0	0	973.2	NA	0.0000		9999	3080	0	0	0
2020/09/09 08:34:00	BASE	3.07	156	4.48	162	-1.5	90	-2.8	0	0	973.2	NA	0.0000		9999	3020	0	0	0
2020/09/09 08:35:00	BASE	2.84	159	4.48	162	-1.4	91	-2.8	0	0	973.1	NA	0.0000		9999	2850	0	0	0
2020/09/09 08:36:00	BASE	2.94	162	4.48	162	-1.4	91	-2.7	0	0	973.0	NA	0.0000		9999	2920	0	0	0
2020/09/09 08:37:00	BASE	2.93	157	4.48	162	-1.4	91	-2.7	0	0	973.0	NA	0.0000		9999	2950	0	0	0
2020/09/09 08:38:00	BASE	2.80	150	4.48	162	-1.4	91	-2.7	0	0	973.0	NA	0.0000		9999	2920	0	0	0
2020/09/09 08:39:00	BASE	2.44	144	4.48	162	-1.4	91	-2.7	0	0	973.0	NA	0.0000		9999	2890	0	0	0
2020/09/09 08:40:00	BASE	1.87	138	4.48	162	-1.5	91	-2.7	0	0	973.0	NA	0.0000		9999	2990	0	0	0
2020/09/09 08:41:00	BASE	1.36	136	4.48	162	-1.5	91	-2.7	0	0	973.0	NA	0.0000		9999	2990	0	0	0
2020/09/09 08:42:00	BASE	1.42	137	4.01	159	-1.4	91	-2.7	0	0	973.0	NA	0.0000		9999	3120	0	0	0
2020/09/09 08:43:00	BASE	1.94	134	3.24	163	-1.4	91	-2.7	0	0	973.0	NA	0.0000		9999	3020	0	0	0
2020/09/09 08:44:00	BASE	2.43	131	3.24	163	-1.4	91	-2.7	0	0	972.9	NA	0.0000		9999	2950	0	0	0
2020/09/09 08:45:00	BASE	2.57	125	3.19	151	-1.4	91	-2.6	0	0	973.0	NA	0.0000		9999	2950	0	0	0
2020/09/09 08:46:00	BASE	2.32	117	3.19	151	-1.3	91	-2.6	0	0	973.0	NA	0.0000		9999	3050	0	0	0
2020/09/09 08:47:00	BASE	1.98	103	2.78	129	-1.2	91	-2.5	0	0	973.0	NA	0.0000		9999	3120	0	0	0
2020/09/09 08:48:00	BASE	1.39	87	2.78	129	-1.2	91	-2.5	0	0	972.9	NA	0.0000		9999	3050	0	0	0
2020/09/09 08:49:00	BASE	0.72	77	2.78	129	-1.2	91	-2.5	0	0	972.9	NA	0.0000		9999	3020	4040	0	0
2020/09/09 08:50:00	BASE	0.30	78	2.78	129	-1.1	90	-2.5	0	0	972.9	NA	0.0000		9999	3050	4070	0	0
2020/09/09 08:51:00	BASE	0.34	85	2.78	129	-1.1	90	-2.5	0	0	972.9	NA	0.0000		9999	2950	0	0	0
2020/09/09 08:52:00	BASE	0.83	84	2.78	129	-1.1	90	-2.5	0	0	972.9	NA	0.0000		9999	3080	0	0	0
2020/09/09 08:53:00	BASE	1.12	76	2.78	129	-1.0	90	-2.5	0	0	972.9	NA	0.0000		9999	3770	0	0	0
2020/09/09 08:54:00	BASE	1.39	63	2.73	125	-0.9	89	-2.5	0	0	972.9	NA	0.0000		9999	3020	3900	0	0
2020/09/09 08:55:00	BASE	1.66	50	2.42	117	-0.9	89	-2.6	0	0	972.9	NA	0.0000		9999	3020	3640	0	0
2020/09/09 08:56:00	BASE	1.77	50	2.01	95	-1.0	88	-2.7	0	0	972.9	NA	0.0000		9999	2850	3670	0	0
2020/09/09 08:57:00	BASE	1.79	57	1.95	57	-1.0	88	-2.8	0	0	972.8	NA	0.0000		9999	3020	3810	0	0
2020/09/09 08:58:00	BASE	1.53	55	1.95	57	-1.1	87	-3.0	0	0	972.8	NA	0.0000		9999	3120	3840	0	0
2020/09/09 08:59:00	BASE	1.51	43	1.95	57	-1.1	87	-3.0	0	0	972.8	NA	0.0000		9999	3940	0	0	0
2020/09/09 09:00:00	BASE	1.95	38	2.52	40	-1.1	87	-3.0	0	0	972.8	NA	0.0000		9999	3940	0	0	0
2020/09/09 09:01:00	BASE	2.40	38	2.68	36	-1.2	87	-3.1	0	0	972.8	NA	0.0000		9999	3450	4040	0	0
2020/09/09 09:02:00	BASE	2.55	34	2.68	36	-1.2	87	-3.1	0	0	972.8	NA	0.0000		9999	3770	0	0	0
2020/09/09 09:03:00	BASE	2.30	39	2.68	36	-1.3	87	-3.2	0	0	972.8	NA	0.0000		9999	3020	3840	0	0
2020/09/09 09:04:00	BASE	2.13	53	2.68	36	-1.3	87	-3.2	0	0	972.8	NA	0.0000		9999	3970	0	0	0
2020/09/09 09:05:00	BASE	2.02	59	2.68	36	-1.3	87	-3.2	0	0	972.8	NA	0.0000		9999	3970	0	0	0
2020/09/09 09:06:00	BASE	1.84	62	2.68	36	-1.2	87	-3.0	0	0	972.8	NA	0.0000		9999	3740	0	0	0
2020/09/09 09:07:00	BASE	1.69	63	2.68	36	-1.1	87	-2.9	0	0	972.8	NA	0.0000		9999	3900	0	0	0
2020/09/09 09:08:00	BASE	1.47	58	2.68	36	-0.9	87	-2.8	0	0	972.8	NA	0.0000		9999	4000	0	0	0
2020/09/09 09:09:00	BASE	0.86	55	2.68	36	-0.8	87	-2.7	0	0	972.8	NA	0.0000		9999	2990	3810	0	0
2020/09/09 09:10:00	BASE	0.70	68	2.68	36	-0.7	86	-2.7	0	0	972.8	NA	0.0000		9999	3020	3770	0	0
2020/09/09 09:11:00	BASE	1.73	126	3.24	178	-0.7	86	-2.8	0	0	972.8	NA	0.0000		9999	3480	0	0	0
2020/09/09 09:12:00	BASE	2.28	173	3.24	178	-0.8	85	-3.0	0	0	972.8	NA	0.0000		9999	3580	0	0	0
2020/09/09 09:13:00	BASE	2.19	180	3.24	178	-0.8	85	-3.1	0	0	972.8	NA	0.0000		9999	2890	3540	0	0
2020/09/09 09:14:00	BASE	2.28	182	3.24	178	-0.9	84	-3.2	0	0	972.8	NA	0.0000		9999	2890	3580	0	0
2020/09/09 09:15:00	BASE	2.28	177	3.24	178	-1.0	84	-3.4	0	0	972.7	NA	0.0000		9999	2890	3710	0	0
2020/09/09 09:16:00	BASE	2.21	169	3.24	178	-1.1	84	-3.4	0	0	972.7	NA	0.0000		9999	2850	3710	0	0
2020/09/09 09:17:00	BASE	2.12	168	3.24	178	-1.1	84	-3.4	0	0	972.7	NA	0.0000		9999	2760	0	0	0
2020/09/09 09:18:00	BASE	2.04	179	3.24	178	-1.1	85	-3.4	0	0	972.7	NA	0.0000		9999	2850	3250	0	0
2020/09/09 09:19:00	BASE	1.97	185	3.24	178	-1.2	85	-3.4	0	0	972.7	NA	0.0000		9999	3380	0	0	0
2020/09/09 09:20:00	BASE	1.84	182	3.24	178	-1.3	85	-3.4	0	0	972.7	NA	0.0000		9999	2620	3450	0	0
2020/09/09 09:21:00	BASE	1.94	182	2.73	184	-1.3	85	-3.5	0	0	972.6	NA	0.0000		9999	2950	3770	0	0
2020/09/09 09:22:00	BASE	2.21	182	2.73	184	-1.4	85	-3.5	0	0	972.6	NA	0.0000		9999	3350	3810	0	0
2020/09/09 09:23:00	BASE	2.45	184	2.78	198	-1.4	86	-3.5	0	0	972.5	NA	0.0000		9999	3640	0	0	0
2020/09/09 09:24:00	BASE	2.77	192	3.14	193	-1.4	86	-3.5	0	0	972.5	NA	0.0000		9999	3310	0	0	0
2020/09/09 09:25:00	BASE	2.74	192	3.14	193	-1.5	86	-3.5	0	0	972.5	NA	0.0000		9999	3050	0	0	0
2020/09/09 09:26:00	BASE	2.28	176	3.14	193	-1.5	86	-3.4	0	0	972.6	NA	0.0000		9999	3610	0	0	0
2020/09/09 09:27:00	BASE	1.96	163	3.14	193	-1.5	87	-3.4	0	0	972.6	NA	0.0000		9999	3610	0	0	0
2020/09/09 09:28:00	BASE	1.89	162	3.14	193	-1.5	87	-3.4	0	0	972.6	NA	0.0000		9999	3610	0	0	0
2020/09/09 09:29:00	BASE	1.91	167	3.14	193	-1.5	88	-3.3	0	0	972.6	NA	0.0000		9999	3180	3610	0	0
2020/09/09 09:30:00	BASE	2.03	176	3.14	193	-1.5	88	-3.3	0	0	972.6	NA	0.0000		9999	2850	3540	0	0
2020/09/09 09:31:00	BASE	2.13	184	3.14	193	-1.6	88	-3.3	0	0	972.6	NA	0.0000		9999	2720	3640	0	0
2020/09/09 09:32:00	BASE	2.12	180	3.14	193	-1.6	88	-3.3	0	0	972.6	NA	0.0000		9999	2720	0	0	0
2020/09/09 09:33:00	BASE	2.18	168	3.14	193	-1.6	89	-3.3	0	0	972.6	NA	0.0000		9999	2530	3310	3740	0
2020/09/09 09:34:00	BASE	2.36	153	2.83	199	-1.7	89	-3.2	0	0	972.6	NA	0.0000		9999	2660	3150	3740	0
2020/09/09 09:35:00	BASE	2.55	141	3.04	134	-1.7	89	-3.2	0	0	972.6	NA	0.0000		9999	2850	3450	0	0
2020/09/09 09:36:00	BASE	2.59	135	3.04	134	-1.7	90	-3.1	0	0	972.6	NA	0.0000		9999	2620	0	0	0
2020/09/09 09:37:00	BASE	2.61	132	3.04	134	-1.6	90	-3.0	0	0	972.6	NA	0.0000		9999	2660	0	0	0
2020/09/09 09:38:00	BASE	2.78	131	3.50	133	-1.6	90	-2.9	0	0	972.6	NA	0.0000		9999	2620	0	0	0
2020/09/09 09:39:00	BASE	2.99	135	3.50	133	-1.5	91	-2.8	0	0	972.6	NA	0.0000		9999	2690	0	0	0
2020/09/09 09:40:00	BASE	3.02	137	3.50	133	-1.4	91	-2.7	0	0	972.6	NA	0.0000		9999	2590	0	0	0
2020/09/09 09:41:00	BASE	2.90	128	3.50	133	-1.2	91	-2.5	0	0	972.6	NA	0.0000		9999	2620	0	0	0
2020/09/09 09:42:00	BASE	2.68	112	3.50	133	-1.1	91	-2.4	0	0	972.6	NA	0.0000		9999	2560	0	0	0
2020/09/09 09:43:00	BASE	2.28	92	3.50	133	-1.0	91	-2.4	0	0	972.6	NA	0.0000		9999	2530	0	0	0
2020/09/09 09:44:00	BASE	2.00	77	3.50	133	-1.1	90	-2.4	0	0	972.6	NA	0.0000		9999	2460	0	0	0
2020/09/09 09:45:00	BASE	1.97	61	3.50	133	-1.1	90	-2.6	0	0	972.6	NA	0.0000		9999	2460	0	0	0
2020/09/09 09:46:00	BASE	1.81	59	3.50	133	-1.2	90	-2.7	0	0	972.6	NA	0.0000		9999	2560	3510	0	0
2020/09/09 09:47:00	BASE	1.31	55	3.50	133	-1.3	89	-2.8	0	0	972.5	NA	0.0000		9999	2400	0	0	0
2020/09/09 09:48:00	BASE	0.64	40	3.24	130	-1.4	89	-2.9	0	0	972.4	NA	0.0000		9999	2530	3770	0	0
2020/09/09 09:49:00	BASE	0.49	53	3.24	130	-1.4	89	-3.0	0	0	972.4	NA	0.0000		9999	2530	0	0	0
2020/09/09 09:50:00	BASE	0.43	79	3.24	130	-1.4	89	-2.9	0	0	972.4	NA	0.0000		9999	2530	0	0	0
2020/09/09 09:51:00	BASE	0.20	95	2.73	105	-1.3	89	-2.9	0	0	972.4	NA	0.0000		9999	2590	0	0	0
2020/09/09 09:52:00	BASE	0.53	94	2.47	39	-1.3	89	-2.8	0	0	972.4	NA	0.0000		9999	2430	0	0	0
2020/09/09 09:53:00	BASE	0.59	79	2.47	39	-1.1	89	-2.7	0	0	972.4	NA	0.0000		9999	2460	0	0	0
2020/09/09 09:54:00	BASE	0.76	76	2.47	39	-1.0	89	-2.6	0	0	972.4	NA	0.0000		9999	2360	0	0	0
2020/09/09 09:55:00	BASE	0.75	65	2.47	39	-0.9	89	-2.6	0	0	972.4	NA	0.0000		9999	2400	0	0	0
2020/09/09 09:56:00	BASE	0.61	17	1.65	45	-0.9	88	-2.6	0	0	972.3	NA	0.0000		9999	2400	0	0	0
2020/09/09 09:57:00	BASE	0.82	355	1.65	45	-1.0	88	-2.7	0	0	972.3	NA	0.0000		9999	2430	3900	0	0
2020/09/09 09:58:00	BASE	0.38	352	1.65	45	-1.1	88	-2.9	0	0	972.3	NA	0.0000		9999	2330	0	0	0
2020/09/09 09:59:00	BASE	0.00	324	1.59	67	-1.2	87	-3.0	0	0	972.3	NA	0.0000		9999	2330	0	0	0
2020/09/09 10:00:00	BASE	0.00	266	1.59	67	-1.3	87	-3.2	0	0	972.3	NA	0.0000		9999	2300	0	0	0
2020/09/09 10:01:00	BASE	0.05	176	1.59	67	-1.4	87	-3.2	0	0	972.3	NA	0.0000		9999	2360	0	0	0
2020/09/09 10:02:00	BASE	0.14	142	1.59	67	-1.3	88	-3.1	0	0	972.3	NA	0.0000		9999	2300	0	0	0
2020/09/09 10:03:00	BASE	0.09	135	1.54	75	-1.3	88	-3.0	0	0	972.3	NA	0.0000		9999	2430	0	0	0
2020/09/09 10:04:00	BASE	0.00	138	1.44	2	-1.1	88	-2.9	0	0	972.3	NA	0.0000		9999	2590	3220	4070	0
2020/09/09 10:05:00	BASE	0.00	145	1.44	2	-1.0	88	-2.7	0	0	972.3	NA	0.0000		9999	2360	0	0	0
2020/09/09 10:06:00	BASE	0.00	128	1.29	1	-1.0	88	-2.7	0	0	972.3	NA	0.0000		9999	2300	0	0	0
2020/09/09 10:07:00	BASE	0.00	100	1.18	152	-1.0	88	-2.8	0	0	972.3	NA	0.0000		9999	2760	0	0	0
2020/09/09 10:08:00	BASE	0.00	106	1.18	152	-1.0	88	-2.8	0	0	972.3	NA	0.0000		9999	2560	3410	0	0
2020/09/09 10:09:00	BASE	0.00	135	1.18	152	-1.0	87	-2.9	0	0	972.3	NA	0.0000		9999	2560	0	0	0
2020/09/09 10:10:00	BASE	0.00	183	1.18	152	-1.1	87	-2.9	0	0	972.3	NA	0.0000		9999	2790	0	0	0
2020/09/09 10:11:00	BASE	0.00	221	1.18	152	-1.1	87	-3.0	0	0	972.3	NA	0.0000		9999	2720	0	0	0
2020/09/09 10:12:00	BASE	0.00	266	M	M	-1.1	87	-3.0	0	0	972.3	NA	0.0000		9999	2720	0	0	0
2020/09/09 10:13:00	BASE	0.00	306	M	M	-1.2	87	-3.0	0	0	972.3	NA	0.0000		9999	2690	3610	0	0
2020/09/09 10:14:00	BASE	0.00	342	M	M	-1.2	87	-3.1	0	0	972.3	NA	0.0000		9999	2820	0	0	0
2020/09/09 10:15:00	BASE	0.00	360	M	M	-1.1	87	-3.0	0	0	972.3	NA	0.0000		9999	2760	0	0	0
2020/09/09 10:16:00	BASE	0.11	19	1.39	83	-1.1	87	-3.0	0	0	972.3	NA	0.0000		9999	2660	0	0	0
2020/09/09 10:17:00	BASE	0.39	113	1.39	83	-1.0	87	-2.9	0	0	972.2	NA	0.0000		9999	2660	3740	0	0
2020/09/09 10:18:00	BASE	0.45	142	1.49	167	-1.0	87	-2.8	0	0	972.2	NA	0.0000		9999	2760	0	0	0
2020/09/09 10:19:00	BASE	0.81	166	1.59	188	-0.9	87	-2.8	0	0	972.2	NA	0.0000		9999	2850	3610	0	0
2020/09/09 10:20:00	BASE	2.03	177	3.29	176	-1.0	87	-2.9	0	0	972.3	NA	0.0000		9999	2850	3710	0	0
2020/09/09 10:21:00	BASE	3.00	174	3.45	171	-1.1	86	-3.0	0	0	972.3	NA	0.0000		9999	3380	0	0	0
2020/09/09 10:22:00	BASE	3.08	167	3.45	171	-1.2	86	-3.2	0	0	972.3	NA	0.0000		9999	2920	3640	0	0
2020/09/09 10:23:00	BASE	2.66	163	3.45	171	-1.3	86	-3.3	0	0	972.2	NA	0.0000		9999	2760	0	0	0
2020/09/09 10:24:00	BASE	2.16	156	3.45	171	-1.4	87	-3.3	0	0	972.3	NA	0.0000		9999	2820	0	0	0
2020/09/09 10:25:00	BASE	1.87	137	3.45	171	-1.5	87	-3.3	0	0	972.3	NA	0.0000		9999	2950	0	0	0
2020/09/09 10:26:00	BASE	1.68	113	3.45	171	-1.4	88	-3.2	0	0	972.3	NA	0.0000		9999	2720	0	0	0
2020/09/09 10:27:00	BASE	1.77	101	3.45	171	-1.3	88	-3.1	0	0	972.3	NA	0.0000		9999	2760	0	0	0
2020/09/09 10:28:00	BASE	1.94	96	3.45	171	-1.2	88	-2.9	0	0	972.2	NA	0.0000		9999	2690	0	0	0
2020/09/09 10:29:00	BASE	1.74	94	3.45	171	-1.1	88	-2.7	0	0	972.2	NA	0.0000		9999	2690	0	0	0
2020/09/09 10:30:00	BASE	1.61	85	3.45	171	-0.9	88	-2.6	0	0	972.2	NA	0.0000		9999	2620	0	0	0
2020/09/09 10:31:00	BASE	1.64	75	3.19	160	-0.8	88	-2.6	0	0	972.2	NA	0.0000		9999	2620	0	0	0
2020/09/09 10:32:00	BASE	1.54	84	2.62	161	-0.8	88	-2.5	0	0	972.2	NA	0.0000		9999	2660	0	0	0
2020/09/09 10:33:00	BASE	0.89	112	2.42	103	-0.7	87	-2.5	0	0	972.2	NA	0.0000		9999	2660	0	0	0
2020/09/09 10:34:00	BASE	1.12	158	2.68	176	-0.7	87	-2.6	0	0	972.2	NA	0.0000		9999	2660	0	0	0
2020/09/09 10:35:00	BASE	2.53	170	3.76	160	-0.7	86	-2.8	0	0	972.2	NA	0.0000		9999	2590	0	0	0
2020/09/09 10:36:00	BASE	3.23	150	3.76	160	-0.8	86	-2.9	0	0	972.2	NA	0.0000		9999	2620	0	0	0
2020/09/09 10:37:00	BASE	3.23	135	3.76	160	-0.9	85	-3.0	1	0	972.2	NA	0.0000		9999	2660	0	0	0
2020/09/09 10:38:00	BASE	2.99	125	3.76	160	-1.0	85	-3.2	0	0	972.2	NA	0.0000		9999	2760	0	0	0
2020/09/09 10:39:00	BASE	2.46	123	3.76	160	-1.0	85	-3.2	1	0	972.2	NA	0.0000		9999	2790	0	0	0
2020/09/09 10:40:00	BASE	2.00	132	3.76	160	-1.1	85	-3.3	1	0	972.2	NA	0.0000		9999	2690	0	0	0
2020/09/09 10:41:00	BASE	1.73	140	3.76	160	-1.1	85	-3.3	1	0	972.2	NA	0.0000		9999	2660	0	0	0
2020/09/09 10:42:00	BASE	1.69	143	3.76	160	-1.1	85	-3.3	1	0	972.2	NA	0.0000		9999	2790	0	0	0
2020/09/09 10:43:00	BASE	1.57	144	3.76	160	-1.1	85	-3.3	1	0	972.2	NA	0.0000		9999	2720	0	0	0
2020/09/09 10:44:00	BASE	1.33	151	3.76	160	-1.1	85	-3.2	1	0	972.2	NA	0.0000		9999	2760	0	0	0
2020/09/09 10:45:00	BASE	1.87	158	3.60	142	-1.1	86	-3.2	1	0	972.2	NA	0.0000		9999	2720	0	0	0
2020/09/09 10:46:00	BASE	2.29	158	3.29	130	-1.2	86	-3.2	1	0	972.1	NA	0.0000		9999	2720	0	0	0
2020/09/09 10:47:00	BASE	2.09	153	3.24	124	-1.2	86	-3.2	1	0	972.1	NA	0.0000		9999	2760	0	0	0
2020/09/09 10:48:00	BASE	1.99	144	2.68	152	-1.2	86	-3.3	1	0	972.1	NA	0.0000		9999	2850	0	0	0
2020/09/09 10:49:00	BASE	1.93	142	2.68	152	-1.3	86	-3.3	1	0	972.1	NA	0.0000		9999	2760	0	0	0
2020/09/09 10:50:00	BASE	2.11	148	2.68	152	-1.3	86	-3.3	1	0	972.1	NA	0.0000		9999	2720	0	0	0
2020/09/09 10:51:00	BASE	2.50	153	2.78	153	-1.3	86	-3.3	1	0	972.1	NA	0.0000		9999	2820	0	0	0
2020/09/09 10:52:00	BASE	2.61	151	2.78	153	-1.4	87	-3.3	2	0	972.1	NA	0.0000		9999	2720	0	0	0
2020/09/09 10:53:00	BASE	2.39	146	2.78	153	-1.4	87	-3.3	2	0	972.0	NA	0.0000		9999	2660	0	0	0
2020/09/09 10:54:00	BASE	2.31	144	2.78	153	-1.4	87	-3.2	2	0	972.0	NA	0.0000		9999	2820	0	0	0
2020/09/09 10:55:00	BASE	2.33	144	2.78	153	-1.4	87	-3.2	2	0	972.0	NA	0.0000		9999	2850	0	0	0
2020/09/09 10:56:00	BASE	2.39	147	2.78	153	-1.4	88	-3.2	2	0	972.0	NA	0.0000		9999	2950	0	0	0
2020/09/09 10:57:00	BASE	2.60	151	2.88	155	-1.4	88	-3.1	2	0	972.0	NA	0.0000		9999	2850	0	0	0
2020/09/09 10:58:00	BASE	2.77	152	2.98	152	-1.4	88	-3.1	2	0	972.0	NA	0.0000		9999	2890	0	0	0
2020/09/09 10:59:00	BASE	2.75	150	2.98	152	-1.4	88	-3.2	2	0	972.0	NA	0.0000		9999	2950	0	0	0
2020/09/09 11:00:00	BASE	2.52	147	2.98	152	-1.5	88	-3.2	2	0	972.0	NA	0.0000		9999	2950	0	0	0
2020/09/09 11:01:00	BASE	2.25	144	2.98	152	-1.5	88	-3.2	2	0	972.0	NA	0.0000		9999	2820	0	0	0
2020/09/09 11:02:00	BASE	1.97	137	2.98	152	-1.5	88	-3.2	3	0	972.0	NA	0.0000		9999	2790	0	0	0
2020/09/09 11:03:00	BASE	1.79	131	2.98	152	-1.5	89	-3.2	3	0	972.0	NA	0.0000		9999	2790	0	0	0
2020/09/09 11:04:00	BASE	1.67	130	2.98	152	-1.5	89	-3.1	3	0	972.0	NA	0.0000		9999	2820	0	0	0
2020/09/09 11:05:00	BASE	1.52	124	2.98	152	-1.5	89	-3.0	3	0	972.0	NA	0.0000		9999	2950	0	0	0
2020/09/09 11:06:00	BASE	1.36	115	2.98	152	-1.5	90	-3.0	3	0	972.0	NA	0.0000		9999	3080	0	0	0
2020/09/09 11:07:00	BASE	1.43	90	2.98	152	-1.4	90	-2.9	4	0	972.0	NA	0.0000		9999	2990	0	0	0
2020/09/09 11:08:00	BASE	1.76	67	2.88	147	-1.3	90	-2.7	4	0	971.9	NA	0.0000		9999	3080	0	0	0
2020/09/09 11:09:00	BASE	1.92	67	2.52	142	-1.2	90	-2.7	4	0	971.8	NA	0.0000		9999	3050	0	0	0
2020/09/09 11:10:00	BASE	1.01	78	2.47	154	-1.1	90	-2.6	5	0	971.8	NA	0.0000		9999	3050	0	0	0
2020/09/09 11:11:00	BASE	0.13	61	2.42	57	-1.0	90	-2.5	5	0	971.8	NA	0.0000		9999	2950	0	0	0
2020/09/09 11:12:00	BASE	0.13	38	2.42	57	-1.0	89	-2.5	5	0	971.8	NA	0.0000		9999	3020	0	0	0
2020/09/09 11:13:00	BASE	0.04	33	2.42	57	-0.9	89	-2.5	5	0	971.8	NA	0.0000		9999	2990	0	0	0
2020/09/09 11:14:00	BASE	0.00	58	2.42	57	-0.9	88	-2.6	6	0	971.8	NA	0.0000		9999	2950	0	0	0
2020/09/09 11:15:00	BASE	0.00	82	2.42	57	-0.9	88	-2.7	6	0	971.8	NA	0.0000		9999	3080	0	0	0
2020/09/09 11:16:00	BASE	0.00	197	2.42	57	-0.9	87	-2.8	6	0	971.8	NA	0.0000		9999	3050	0	0	0
2020/09/09 11:17:00	BASE	0.00	214	2.42	57	-1.0	87	-2.9	6	0	971.9	NA	0.0000		9999	3050	0	0	0
2020/09/09 11:18:00	BASE	0.37	181	2.42	57	-1.0	86	-2.9	7	0	972.0	NA	0.0000		9999	3050	0	0	0
2020/09/09 11:19:00	BASE	0.37	165	1.23	150	-0.9	86	-2.9	7	0	972.0	NA	0.0000		9999	3080	0	0	0
2020/09/09 11:20:00	BASE	0.00	168	1.23	150	-0.9	86	-3.0	7	0	972.0	NA	0.0000		9999	3080	0	0	0
2020/09/09 11:21:00	BASE	0.00	172	1.23	150	-0.9	86	-3.0	7	0	971.9	NA	0.0000		9999	3120	0	0	0
2020/09/09 11:22:00	BASE	0.00	175	1.23	150	-1.0	85	-3.1	8	0	971.8	NA	0.0000		9999	3120	0	0	0
2020/09/09 11:23:00	BASE	0.00	177	1.23	150	-1.0	85	-3.2	8	0	971.8	NA	0.0000		9999	3150	0	0	0
2020/09/09 11:24:00	BASE	0.00	173	1.23	150	-1.1	85	-3.3	8	0	971.8	NA	0.0000		9999	3080	0	0	0
2020/09/09 11:25:00	BASE	0.00	163	1.23	150	-1.2	86	-3.3	9	0	971.8	NA	0.0000		9999	3050	0	0	0
2020/09/09 11:26:00	BASE	0.00	150	1.23	150	-1.2	86	-3.2	9	0	971.8	NA	0.0000		9999	3050	0	0	0
2020/09/09 11:27:00	BASE	0.00	121	1.23	150	-1.1	86	-3.2	9	0	971.8	NA	0.0000		9999	3120	0	0	0
2020/09/09 11:28:00	BASE	0.00	84	M	M	-1.1	86	-3.1	10	0	971.8	NA	0.0000		9999	3080	0	0	0
2020/09/09 11:29:00	BASE	0.00	56	M	M	-0.9	86	-3.0	10	0	971.8	NA	0.0000		9999	3050	0	0	0
2020/09/09 11:30:00	BASE	0.00	37	M	M	-0.8	86	-2.8	10	0	971.8	NA	0.0000		9999	3080	0	0	0
2020/09/09 11:31:00	BASE	0.30	31	1.29	29	-0.7	86	-2.7	11	0	971.8	NA	0.0000		9999	3150	0	0	0
2020/09/09 11:32:00	BASE	1.02	28	1.54	26	-0.5	85	-2.7	11	0	971.8	NA	0.0000		9999	3020	0	0	0
2020/09/09 11:33:00	BASE	1.44	29	1.54	34	-0.5	85	-2.7	11	0	971.8	NA	0.0000		9999	2920	0	0	0
2020/09/09 11:34:00	BASE	1.46	31	1.65	35	-0.6	84	-2.9	12	0	971.7	NA	0.0000		9999	2920	0	0	0
2020/09/09 11:35:00	BASE	1.56	31	1.65	29	-0.7	83	-3.2	12	0	971.7	NA	0.0000		9999	2920	0	0	0
2020/09/09 11:36:00	BASE	1.61	30	1.65	28	-0.8	83	-3.4	13	0	971.7	NA	0.0000		9999	2920	0	0	0
2020/09/09 11:37:00	BASE	1.63	31	1.85	36	-1.0	83	-3.6	13	0	971.7	NA	0.0000		9999	2920	0	0	0
2020/09/09 11:38:00	BASE	1.81	33	2.16	33	-1.1	83	-3.7	14	0	971.7	NA	0.0000		9999	3050	0	0	0
2020/09/09 11:39:00	BASE	2.07	37	2.37	48	-1.1	83	-3.6	15	0	971.7	NA	0.0000		9999	3080	0	0	0
2020/09/09 11:40:00	BASE	2.20	38	2.37	48	-1.1	83	-3.6	15	0	971.7	NA	0.0000		9999	3080	0	0	0
2020/09/09 11:41:00	BASE	2.11	31	2.37	48	-1.1	84	-3.5	16	0	971.7	NA	0.0000		9999	3150	0	0	0
2020/09/09 11:42:00	BASE	2.03	25	2.37	48	-1.1	84	-3.5	16	0	971.7	NA	0.0000		9999	3120	0	0	0
2020/09/09 11:43:00	BASE	2.27	18	2.78	8	-1.2	84	-3.5	17	0	971.7	NA	0.0000		9999	3080	0	0	0
2020/09/09 11:44:00	BASE	2.35	6	3.04	333	-1.3	84	-3.6	17	0	971.7	NA	0.0000		9999	3080	3510	0	0
2020/09/09 11:45:00	BASE	2.19	351	3.04	333	-1.4	84	-3.7	17	0	971.7	NA	0.0000		9999	3020	3580	0	0
2020/09/09 11:46:00	BASE	2.22	346	3.04	333	-1.4	84	-3.7	18	0	971.7	NA	0.0000		9999	2950	0	0	0
2020/09/09 11:47:00	BASE	2.54	343	3.60	330	-1.5	85	-3.7	18	0	971.7	NA	0.0000		9999	2920	3480	0	0
2020/09/09 11:48:00	BASE	2.66	337	3.60	330	-1.5	85	-3.7	18	0	971.7	NA	0.0000		9999	3450	0	0	0
2020/09/09 11:49:00	BASE	2.69	336	3.91	340	-1.5	86	-3.6	19	0	971.8	NA	0.0000		9999	3410	0	0	0
2020/09/09 11:50:00	BASE	3.44	336	4.37	334	-1.5	86	-3.5	19	0	971.7	NA	0.0000		9999	3450	0	0	0
2020/09/09 11:51:00	BASE	4.31	334	5.14	335	-1.5	87	-3.4	20	0	971.8	NA	0.0000		9999	3080	3450	0	0
2020/09/09 11:52:00	BASE	4.71	334	5.14	335	-1.5	87	-3.4	20	0	971.8	NA	0.0000		9999	3480	0	0	0
2020/09/09 11:53:00	BASE	4.95	334	5.40	334	-1.6	88	-3.3	20	0	971.7	NA	0.0000		9999	3480	0	0	0
2020/09/09 11:54:00	BASE	5.32	335	5.92	337	-1.6	88	-3.3	21	0	971.7	NA	0.0000		9999	3540	0	0	0
2020/09/09 11:55:00	BASE	5.28	333	5.92	337	-1.6	89	-3.2	21	0	971.8	NA	0.0000		9999	3480	0	0	0
2020/09/09 11:56:00	BASE	5.19	332	5.92	337	-1.6	89	-3.2	22	0	971.8	NA	0.0000		9999	3350	0	0	0
2020/09/09 11:57:00	BASE	5.47	334	5.92	337	-1.6	90	-3.1	22	0	971.7	NA	0.0000		9999	3120	0	0	0
2020/09/09 11:58:00	BASE	5.41	334	5.92	337	-1.7	90	-3.0	22	0	971.8	NA	0.0000		9999	3050	3480	0	0
2020/09/09 11:59:00	BASE	5.18	334	5.92	337	-1.7	91	-3.0	23	0	971.8	NA	0.0000		9999	3080	0	0	0
2020/09/09 12:00:00	BASE	5.25	336	5.92	337	-1.7	91	-3.0	23	0	971.7	NA	0.0000		9999	3020	0	0	0
2020/09/09 12:01:00	BASE	5.18	337	5.92	337	-1.7	91	-3.0	24	0	971.8	NA	0.0000		9999	2950	3480	0	0
2020/09/09 12:02:00	BASE	4.95	338	5.92	337	-1.8	92	-3.0	24	0	971.8	NA	0.0000		9999	2950	0	0	0
2020/09/09 12:03:00	BASE	4.95	340	5.92	337	-1.8	92	-2.9	25	0	971.8	NA	0.0000		9999	3120	0	0	0
2020/09/09 12:04:00	BASE	4.95	343	5.86	332	-1.8	92	-2.9	26	0	971.7	NA	0.0000		9999	3050	0	0	0
2020/09/09 12:05:00	BASE	4.76	344	5.86	332	-1.8	93	-2.8	27	0	971.8	NA	0.0000		9999	3180	0	0	0
2020/09/09 12:06:00	BASE	4.38	346	5.86	332	-1.7	93	-2.7	28	0	971.7	NA	0.0000		9999	3120	0	0	0
2020/09/09 12:07:00	BASE	4.23	348	5.86	332	-1.7	93	-2.7	29	0	971.7	NA	0.0000		9999	3150	0	0	0
2020/09/09 12:08:00	BASE	4.33	348	5.61	336	-1.7	94	-2.6	30	0	971.7	NA	0.0000		9999	3080	0	0	0
2020/09/09 12:09:00	BASE	4.34	348	5.61	336	-1.7	94	-2.6	31	0	971.7	NA	0.0000		9999	3050	0	0	0
2020/09/09 12:10:01	BASE	4.50	346	5.35	337	-1.7	94	-2.5	33	0	971.7	NA	0.0000		9999	3020	0	0	0
2020/09/09 12:11:01	BASE	4.76	344	5.25	342	-1.7	95	-2.4	34	0	971.7	NA	0.0000		9999	3020	0	0	0
2020/09/09 12:12:01	BASE	4.88	343	5.25	342	-1.6	95	-2.4	35	0	971.7	NA	0.0000		9999	2950	0	0	0
2020/09/09 12:13:01	BASE	4.68	341	5.14	343	-1.6	95	-2.3	36	0	971.7	NA	0.0000		9999	2920	0	0	0
2020/09/09 12:14:01	BASE	4.45	339	5.14	343	-1.6	95	-2.3	38	0	971.7	NA	0.0000		9999	2920	0	0	0
2020/09/09 12:15:01	BASE	4.59	338	5.14	343	-1.5	95	-2.2	39	0	971.7	NA	0.0000		9999	2890	0	0	0
2020/09/09 12:16:01	BASE	4.78	339	5.14	343	-1.5	95	-2.2	40	0	971.6	NA	0.0000		9999	2850	0	0	0
2020/09/09 12:17:01	BASE	4.81	340	5.14	343	-1.5	95	-2.2	42	0	971.6	NA	0.0000		9999	2820	0	0	0
2020/09/09 12:18:01	BASE	4.77	341	5.14	343	-1.5	95	-2.2	43	0	971.6	NA	0.0000		9999	2890	0	0	0
2020/09/09 12:19:01	BASE	4.62	339	5.14	343	-1.5	95	-2.2	44	0	971.6	NA	0.0000		9999	2820	0	0	0
2020/09/09 12:20:01	BASE	4.52	336	5.09	342	-1.5	95	-2.2	46	0	971.6	NA	0.0000		9999	2760	3280	0	0
2020/09/09 12:21:01	BASE	4.62	335	5.09	342	-1.5	95	-2.2	47	0	971.6	NA	0.0000		9999	2760	0	0	0
2020/09/09 12:22:01	BASE	4.71	336	4.99	336	-1.5	95	-2.2	48	0	971.6	NA	0.0000		9999	2790	0	0	0
2020/09/09 12:23:01	BASE	4.79	337	5.04	339	-1.6	95	-2.2	49	0	971.6	NA	0.0000		9999	2790	0	0	0
2020/09/09 12:24:01	BASE	4.73	337	5.04	339	-1.5	95	-2.2	50	0	971.6	NA	0.0000		9999	2790	0	0	0
2020/09/09 12:25:01	BASE	4.40	333	5.04	339	-1.5	95	-2.2	51	0	971.6	NA	0.0000		9999	2790	0	0	0
2020/09/09 12:26:01	BASE	4.31	329	5.04	339	-1.5	95	-2.2	52	0	971.6	NA	0.0000		9999	2820	0	0	0
2020/09/09 12:27:01	BASE	4.44	328	5.04	339	-1.5	95	-2.2	52	0	971.6	NA	0.0000		9999	2850	0	0	0
2020/09/09 12:28:01	BASE	4.32	328	5.04	339	-1.5	95	-2.2	53	0	971.6	NA	0.0000		9999	2850	0	0	0
2020/09/09 12:29:01	BASE	3.96	327	5.04	339	-1.4	95	-2.1	54	0	971.6	NA	0.0000		9999	2790	0	0	0
2020/09/09 12:30:01	BASE	3.87	328	5.04	339	-1.4	95	-2.1	54	0	971.6	NA	0.0000		9999	2720	0	0	0
2020/09/09 12:31:01	BASE	4.07	327	5.04	339	-1.4	95	-2.1	55	0	971.6	NA	0.0000		9999	2690	0	0	0
2020/09/09 12:32:01	BASE	3.91	326	5.04	339	-1.4	95	-2.1	55	0	971.5	NA	0.0000		9999	2660	0	0	0
2020/09/09 12:33:01	BASE	3.83	326	4.89	338	-1.5	95	-2.2	56	0	971.5	NA	0.0000		9999	2590	0	0	0
2020/09/09 12:34:01	BASE	4.06	326	4.68	325	-1.5	95	-2.2	57	0	971.5	NA	0.0000		9999	2590	0	0	0
2020/09/09 12:35:01	BASE	4.11	327	4.68	325	-1.5	95	-2.2	57	0	971.5	NA	0.0000		9999	2590	0	0	0
2020/09/09 12:36:01	BASE	4.04	328	4.68	325	-1.6	95	-2.3	58	0	971.5	NA	0.0000		9999	2560	0	0	0
2020/09/09 12:37:01	BASE	4.02	331	4.63	327	-1.6	95	-2.3	59	0	971.5	NA	0.0000		9999	2560	0	0	0
2020/09/09 12:38:01	BASE	4.21	333	4.37	335	-1.6	95	-2.3	59	0	971.5	NA	0.0000		9999	2620	0	0	0
2020/09/09 12:39:01	BASE	4.29	334	4.37	335	-1.6	95	-2.2	60	0	971.5	NA	0.0000		9999	2560	0	0	0
2020/09/09 12:40:01	BASE	4.22	334	4.37	335	-1.5	95	-2.2	60	0	971.5	NA	0.0000		9999	2590	0	0	0
2020/09/09 12:41:01	BASE	4.29	333	4.53	333	-1.5	96	-2.1	61	0	971.5	NA	0.0000		9999	2560	3250	0	0
2020/09/09 12:42:01	BASE	4.35	332	4.53	333	-1.5	96	-2.1	61	0	971.5	NA	0.0000		9999	2530	2920	0	0
2020/09/09 12:43:01	BASE	4.01	328	4.53	333	-1.5	96	-2.0	62	0	971.5	NA	0.0000		9999	2530	3220	0	0
2020/09/09 12:44:01	BASE	3.74	321	4.53	333	-1.5	96	-2.1	62	0	971.5	NA	0.0000		9999	2560	0	0	0
2020/09/09 12:45:01	BASE	4.01	317	4.53	333	-1.5	96	-2.1	63	0	971.4	NA	0.0000		9999	2560	0	0	0
2020/09/09 12:46:01	BASE	4.32	318	4.58	323	-1.6	96	-2.2	63	0	971.4	NA	0.0000		9999	2590	0	0	0
2020/09/09 12:47:01	BASE	4.53	319	4.73	316	-1.7	96	-2.3	63	0	971.4	NA	0.0000		9999	2590	0	0	0
2020/09/09 12:48:01	BASE	4.66	318	4.78	315	-1.7	96	-2.3	62	0	971.5	NA	0.0000		9999	2530	0	0	0
2020/09/09 12:49:01	BASE	4.60	317	4.78	315	-1.8	96	-2.3	62	0	971.5	NA	0.0000		9999	2560	3120	0	0
2020/09/09 12:50:01	BASE	4.65	316	4.89	314	-1.8	96	-2.3	62	0	971.5	NA	0.0000		9999	2490	3150	0	0
2020/09/09 12:51:01	BASE	4.75	315	4.94	313	-1.7	96	-2.2	62	0	971.5	NA	0.0000		9999	2530	3150	0	0
2020/09/09 12:52:01	BASE	4.70	315	4.94	314	-1.7	97	-2.2	62	0	971.5	NA	0.0000		9999	2490	3150	0	0
2020/09/09 12:53:01	BASE	4.73	314	4.99	314	-1.7	97	-2.1	63	0	971.5	NA	0.0000		9999	2490	3180	0	0
2020/09/09 12:54:01	BASE	4.77	314	4.99	314	-1.7	97	-2.1	63	0	971.4	NA	0.0000		9999	2490	3180	0	0
2020/09/09 12:55:01	BASE	4.60	316	4.99	314	-1.7	97	-2.1	64	0	971.4	NA	0.0000		9999	2490	3150	0	0
2020/09/09 12:56:01	BASE	4.39	319	4.99	314	-1.7	97	-2.1	64	0	971.4	NA	0.0000		9999	2460	3180	0	0
2020/09/09 12:57:01	BASE	4.33	320	4.99	314	-1.7	98	-2.0	65	0	971.4	NA	0.0000		9999	2400	0	0	0
2020/09/09 12:58:01	BASE	4.48	324	4.99	314	-1.7	98	-2.0	66	0	971.4	NA	0.0000		9999	2430	0	0	0
2020/09/09 12:59:01	BASE	4.60	329	4.99	314	-1.7	98	-2.0	67	0	971.4	NA	0.0000		9999	2430	3120	0	0
2020/09/09 13:00:01	BASE	4.60	332	5.14	329	-1.7	98	-1.9	68	0	971.3	NA	0.0000		9999	2430	3080	0	0
2020/09/09 13:01:01	BASE	4.57	332	5.14	329	-1.7	98	-1.9	68	0	971.2	NA	0.0000		9999	2400	3050	0	0
2020/09/09 13:02:01	BASE	4.41	334	5.14	329	-1.6	99	-1.8	69	0	971.2	NA	0.0000		9999	2360	3020	0	0
2020/09/09 13:03:01	BASE	4.29	333	5.14	329	-1.6	99	-1.8	70	0	971.2	NA	0.0000		9999	2400	2990	0	0
2020/09/09 13:04:01	BASE	4.16	332	5.14	329	-1.6	99	-1.7	70	0	971.2	NA	0.0000		9999	2430	2920	0	0
2020/09/09 13:05:01	BASE	4.05	333	5.14	329	-1.6	99	-1.7	70	0	971.2	NA	0.0000		9999	2950	0	0	0
2020/09/09 13:06:01	BASE	4.13	333	5.14	329	-1.6	99	-1.7	71	0	971.2	NA	0.0000		9999	2460	2920	0	0
2020/09/09 13:07:01	BASE	4.08	334	5.14	329	-1.6	99	-1.8	71	0	971.2	NA	0.0000		9999	2430	2890	0	0
2020/09/09 13:08:01	BASE	3.83	334	5.14	329	-1.7	99	-1.8	71	0	971.2	NA	0.0000		9999	2430	2950	0	0
2020/09/09 13:09:01	BASE	3.80	335	5.14	329	-1.7	99	-1.8	71	0	971.2	NA	0.0000		9999	2990	0	0	0
2020/09/09 13:10:01	BASE	3.86	335	4.89	332	-1.7	100	-1.8	72	0	971.2	NA	0.0000		9999	2990	19000	22150	0
2020/09/09 13:11:01	BASE	3.79	335	4.89	332	-1.7	100	-1.7	72	0	971.2	NA	0.0000		9999	3080	0	0	0
2020/09/09 13:12:01	BASE	3.61	335	4.89	332	-1.7	100	-1.7	72	0	971.2	NA	0.0000		9999	2990	0	0	0
2020/09/09 13:13:01	BASE	3.69	336	4.89	332	-1.7	100	-1.7	73	0	971.2	NA	0.0000		9999	2890	0	0	0
2020/09/09 13:14:01	BASE	3.96	334	4.89	332	-1.7	100	-1.7	73	0	971.2	NA	0.0000		9999	2950	0	0	0
2020/09/09 13:15:01	BASE	3.97	333	4.89	332	-1.7	100	-1.7	74	0	971.2	NA	0.0000		9999	3020	0	0	0
2020/09/09 13:16:01	BASE	3.99	331	4.78	319	-1.7	100	-1.7	74	0	971.2	NA	0.0000		9999	2990	4040	0	0
2020/09/09 13:17:01	BASE	4.07	329	4.78	319	-1.7	100	-1.7	75	0	971.2	NA	0.0000		9999	2820	0	0	0
2020/09/09 13:18:01	BASE	4.08	332	4.78	319	-1.7	100	-1.7	75	0	971.2	NA	0.0000		9999	2790	0	0	0
2020/09/09 13:19:01	BASE	4.09	330	4.78	319	-1.7	100	-1.7	76	0	971.3	NA	0.0000		9999	2720	0	0	0
2020/09/09 13:20:01	BASE	3.81	329	4.78	319	-1.7	100	-1.7	76	0	971.3	NA	0.0000		9999	2660	3120	4070	0
2020/09/09 13:21:01	BASE	3.55	329	4.78	319	-1.7	100	-1.7	77	0	971.3	NA	0.0000		9999	2660	3080	4070	0
2020/09/09 13:22:01	BASE	3.49	328	4.78	319	-1.7	100	-1.7	78	0	971.3	NA	0.0000		9999	2720	4070	0	0
2020/09/09 13:23:01	BASE	3.33	329	4.78	319	-1.7	100	-1.7	78	0	971.3	NA	0.0000		9999	3970	0	0	0
2020/09/09 13:24:01	BASE	3.27	330	4.78	319	-1.7	100	-1.7	79	0	971.3	NA	0.0000		9999	3940	0	0	0
2020/09/09 13:25:01	BASE	3.26	330	4.78	319	-1.8	100	-1.8	79	0	971.4	NA	0.0000		9999	2760	3940	0	0
2020/09/09 13:26:01	BASE	3.15	330	4.73	326	-1.8	100	-1.8	79	0	971.3	NA	0.0000		9999	2690	3940	0	0
2020/09/09 13:27:01	BASE	3.07	331	4.73	326	-1.8	100	-1.8	79	0	971.3	NA	0.0000		9999	2720	3900	0	0
2020/09/09 13:28:01	BASE	3.06	335	4.73	326	-1.7	100	-1.7	79	0	971.3	NA	0.0000		9999	2760	3940	0	0
2020/09/09 13:29:01	BASE	3.00	337	3.91	324	-1.8	100	-1.8	79	0	971.3	NA	0.0000		9999	2720	3900	0	0
2020/09/09 13:30:01	BASE	2.90	335	3.91	324	-1.8	100	-1.8	79	0	971.3	NA	0.0000		9999	2720	3900	0	0
2020/09/09 13:31:01	BASE	2.89	335	3.76	322	-1.8	100	-1.8	79	0	971.4	NA	0.0000		9999	2660	3940	0	0
2020/09/09 13:32:01	BASE	2.95	337	3.60	323	-1.8	100	-1.8	79	0	971.4	NA	0.0000		9999	2660	3900	0	0
2020/09/09 13:33:01	BASE	2.83	341	3.55	333	-1.8	100	-1.8	79	0	971.4	NA	0.0000		9999	2760	3940	0	0
2020/09/09 13:34:01	BASE	2.70	345	3.55	333	-1.8	100	-1.8	79	0	971.3	NA	0.0000		9999	2990	3940	0	0
2020/09/09 13:35:01	BASE	2.84	347	3.34	331	-1.8	100	-1.8	78	0	971.3	NA	0.0000		9999	3900	0	0	0
2020/09/09 13:36:01	BASE	2.90	344	3.34	331	-1.8	100	-1.8	78	0	971.3	NA	0.0000		9999	3900	0	0	0
2020/09/09 13:37:01	BASE	2.92	340	3.34	338	-1.8	100	-1.8	77	0	971.3	NA	0.0000		9999	3810	0	0	0
2020/09/09 13:38:01	BASE	2.98	337	3.34	338	-1.8	100	-1.8	77	0	971.2	NA	0.0000		9999	3120	3810	0	0
2020/09/09 13:39:01	BASE	2.96	335	3.34	338	-1.8	100	-1.8	77	0	971.2	NA	0.0000		9999	2430	3810	0	0
2020/09/09 13:40:01	BASE	3.02	335	3.34	338	-1.8	100	-1.8	76	0	971.3	NA	0.0000		9999	2430	3080	3840	0
2020/09/09 13:41:01	BASE	3.04	332	3.34	338	-1.8	100	-1.8	76	0	971.3	NA	0.0000		9999	3050	3870	0	0
2020/09/09 13:42:01	BASE	2.82	330	3.34	338	-1.7	100	-1.7	75	0	971.4	NA	0.0000		9999	3050	3840	0	0
2020/09/09 13:43:01	BASE	2.51	333	3.34	338	-1.7	100	-1.7	75	0	971.4	NA	0.0000		9999	2760	3870	0	0
2020/09/09 13:44:01	BASE	2.42	334	3.34	338	-1.7	100	-1.7	75	0	971.4	NA	0.0000		9999	2560	3080	3900	0
2020/09/09 13:45:01	BASE	2.43	332	3.34	338	-1.7	100	-1.7	75	0	971.4	NA	0.0000		9999	2590	3900	0	0
2020/09/09 13:46:01	BASE	2.40	329	3.34	338	-1.7	100	-1.7	75	0	971.4	NA	0.0000		9999	2820	0	0	0
2020/09/09 13:47:01	BASE	2.35	327	3.19	328	-1.7	100	-1.7	75	0	971.4	NA	0.0000		9999	3900	0	0	0
2020/09/09 13:48:01	BASE	2.33	328	3.19	328	-1.7	100	-1.7	75	0	971.4	NA	0.0000		9999	2690	3970	0	0
2020/09/09 13:49:01	BASE	2.33	328	3.19	328	-1.7	100	-1.7	75	0	971.4	NA	0.0000		9999	3970	0	0	0
2020/09/09 13:50:01	BASE	2.36	325	3.19	328	-1.7	100	-1.7	76	0	971.4	NA	0.0000		9999	4070	0	0	0
2020/09/09 13:51:01	BASE	2.38	328	2.78	329	-1.7	100	-1.7	77	0	971.4	NA	0.0000		9999	4040	0	0	0
2020/09/09 13:52:01	BASE	2.44	329	2.78	329	-1.7	100	-1.7	77	0	971.4	NA	0.0000		9999	0	0	0	3480
2020/09/09 13:53:01	BASE	2.38	328	2.78	329	-1.7	100	-1.7	78	0	971.4	NA	0.0000		9999	0	0	0	3350
2020/09/09 13:54:01	BASE	2.25	328	2.73	332	-1.7	100	-1.7	79	0	971.4	NA	0.0000		9999	0	0	0	4130
2020/09/09 13:55:01	BASE	2.26	328	2.73	332	-1.7	100	-1.7	80	0	971.4	NA	0.0000		9000	0	0	0	3380
2020/09/09 13:56:01	BASE	2.26	325	2.73	332	-1.7	100	-1.7	81	0	971.4	NA	0.0000		9999	0	0	0	4100
2020/09/09 13:57:01	BASE	2.09	326	2.73	332	-1.7	100	-1.7	82	0	971.3	NA	0.0000		9999	0	0	0	3150
2020/09/09 13:58:01	BASE	2.10	326	2.73	332	-1.6	100	-1.6	83	0	971.4	NA	0.0000		9000	0	0	0	3250
2020/09/09 13:59:01	BASE	2.19	316	2.73	332	-1.6	100	-1.6	84	0	971.4	NA	0.0000	UP	9999	0	0	0	3050
2020/09/09 14:00:01	BASE	2.01	314	2.73	332	-1.6	100	-1.6	85	0	971.4	NA	0.0000	UP	8000	22020	0	0	0
2020/09/09 14:01:01	BASE	1.78	319	2.73	332	-1.6	100	-1.6	85	0	971.4	NA	0.0000	UP	8000	0	0	0	2790
2020/09/09 14:02:01	BASE	1.66	313	2.52	323	-1.6	100	-1.6	86	0	971.4	NA	0.0000	UP	8000	0	0	0	2690
2020/09/09 14:03:01	BASE	1.76	305	2.47	312	-1.6	100	-1.6	87	0	971.4	NA	0.0000	UP BR	5000	0	0	0	2590
2020/09/09 14:04:01	BASE	1.81	300	2.47	312	-1.6	100	-1.6	88	0	971.4	NA	0.0000	UP BR	4000	0	0	0	2560
2020/09/09 14:05:01	BASE	1.54	300	2.47	312	-1.6	100	-1.6	89	0	971.4	NA	0.0000	UP BR	3600	0	0	0	2430
2020/09/09 14:06:01	BASE	0.76	299	2.47	312	-1.6	100	-1.6	90	0	971.4	NA	0.0000	UP BR	3300	0	0	0	2330
2020/09/09 14:07:01	BASE	0.60	306	2.47	312	-1.6	100	-1.6	91	0	971.4	NA	0.0000	-SN BR	3400	330	0	0	0
2020/09/09 14:08:01	BASE	0.50	318	2.42	302	-1.6	100	-1.6	92	0	971.4	NA	0.0000	-SN BR	3700	330	0	0	0
2020/09/09 14:09:01	BASE	0.05	319	2.21	289	-1.6	100	-1.6	93	0	971.4	NA	0.0000	-SN BR	2300	330	0	0	0
2020/09/09 14:10:01	BASE	0.32	313	2.21	289	-1.6	100	-1.6	94	0	971.4	NA	0.0000	-SN BR	2400	300	0	0	0
2020/09/09 14:11:01	BASE	0.32	311	2.21	289	-1.6	100	-1.6	95	0	971.4	NA	0.0000	-SN BR	2100	300	0	0	0
2020/09/09 14:12:01	BASE	0.04	313	2.21	289	-1.6	100	-1.6	96	0	971.4	NA	0.0000	-SN BR	2200	300	0	0	0
2020/09/09 14:13:01	BASE	0.23	306	1.90	305	-1.6	100	-1.6	97	0	971.4	NA	0.0000	-SN BR	2100	300	0	0	0
2020/09/09 14:14:01	BASE	0.76	307	1.70	301	-1.6	100	-1.6	99	0	971.4	NA	0.0000	-SN BR	2500	300	0	0	0
2020/09/09 14:15:01	BASE	0.96	301	1.29	298	-1.6	100	-1.6	100	0	971.4	NA	0.0000	-SN BR	2800	300	0	0	0
2020/09/09 14:16:01	BASE	0.72	286	1.39	264	-1.6	100	-1.6	101	0	971.4	NA	0.0000	-SN BR	2400	330	0	0	0
2020/09/09 14:17:01	BASE	0.82	283	1.54	266	-1.6	100	-1.6	102	0	971.4	NA	0.0000	-SN BR	2500	300	0	0	0
2020/09/09 14:18:01	BASE	0.92	287	1.54	266	-1.6	100	-1.6	103	0	971.4	NA	0.0000	-SN BR	2600	260	0	0	0
2020/09/09 14:19:01	BASE	0.84	293	1.54	266	-1.6	100	-1.6	105	0	971.4	NA	0.0000	-SN BR	2800	260	0	0	0
2020/09/09 14:20:01	BASE	1.29	290	2.06	284	-1.6	100	-1.6	107	0	971.3	NA	0.0000	-SN BR	3600	300	0	0	0
2020/09/09 14:21:01	BASE	1.44	280	2.06	284	-1.5	100	-1.5	108	0	971.3	NA	0.0000	-SN BR	3300	300	0	0	0
2020/09/09 14:22:01	BASE	0.60	275	2.06	284	-1.5	100	-1.5	108	0	971.2	NA	0.0000	-SN BR	3600	200	0	0	0
2020/09/09 14:23:01	BASE	0.14	280	2.06	284	-1.5	100	-1.5	109	0	971.2	NA	0.0000	-SN BR	3100	0	0	0	660
2020/09/09 14:24:01	BASE	0.31	291	2.06	284	-1.5	100	-1.5	109	0	971.2	NA	0.0000	-SN BR	3200	230	0	0	0
2020/09/09 14:25:01	BASE	0.87	288	2.06	284	-1.5	100	-1.5	110	0	971.2	NA	0.0000	-SN BR	3700	260	0	0	0
2020/09/09 14:26:01	BASE	0.79	299	2.06	284	-1.5	100	-1.5	111	0	971.2	NA	0.0000	-SN BR	4100	200	0	0	0
2020/09/09 14:27:01	BASE	0.60	321	2.06	284	-1.5	100	-1.5	112	0	971.3	NA	0.0000	-SN BR	3400	200	0	0	0
2020/09/09 14:28:01	BASE	1.22	300	2.06	284	-1.5	100	-1.5	112	0	971.3	NA	0.0000	-SN BR	4800	200	0	0	0
2020/09/09 14:29:01	BASE	0.72	279	2.06	284	-1.5	100	-1.5	111	0	971.2	NA	0.0000	-SN BR	4500	0	0	0	720
2020/09/09 14:30:01	BASE	0.47	316	2.01	282	-1.5	100	-1.5	112	0	971.2	NA	0.0000	-SN BR	5000	0	0	0	660
2020/09/09 14:31:01	BASE	1.18	340	2.01	282	-1.5	100	-1.5	113	0	971.2	NA	0.0000	-SN BR	5000	0	0	0	660
2020/09/09 14:32:01	BASE	1.29	335	2.01	282	-1.5	100	-1.5	114	0	971.3	NA	0.0000	-SN BR	5000	230	0	0	0
2020/09/09 14:33:01	BASE	0.72	336	2.01	282	-1.5	100	-1.5	114	0	971.3	NA	0.0000	-SN BR	6000	0	0	0	720
2020/09/09 14:34:01	BASE	0.34	2	2.01	282	-1.6	100	-1.6	113	0	971.2	NA	0.0000	-SN BR	5000	22210	23000	0	0
2020/09/09 14:35:01	BASE	0.20	15	2.01	282	-1.6	100	-1.6	113	0	971.2	NA	0.0000	-SN BR	5000	21980	0	0	0
2020/09/09 14:36:01	BASE	0.00	1	2.01	282	-1.6	100	-1.6	113	0	971.2	NA	0.0000	-SN BR	5000	230	0	0	0
2020/09/09 14:37:01	BASE	0.13	359	2.01	282	-1.5	100	-1.5	113	0	971.2	NA	0.0000	-SN BR	4800	200	0	0	0
2020/09/09 14:38:01	BASE	0.37	352	1.70	334	-1.5	100	-1.5	114	0	971.2	NA	0.0000	-SN BR	5000	230	0	0	0
2020/09/09 14:39:01	BASE	0.58	330	1.70	334	-1.5	100	-1.5	115	0	971.2	NA	0.0000	-SN BR	5000	200	0	0	0
2020/09/09 14:40:01	BASE	0.42	327	1.65	331	-1.5	100	-1.5	116	0	971.2	NA	0.0000	-SN BR	8000	0	0	0	660
2020/09/09 14:41:01	BASE	0.09	346	1.49	23	-1.6	100	-1.6	117	0	971.2	NA	0.0000	-SN BR	7000	200	0	0	0
2020/09/09 14:42:01	BASE	0.10	348	1.49	23	-1.6	100	-1.6	117	0	971.2	NA	0.0000	-SN BR	6000	0	0	0	690
2020/09/09 14:43:01	BASE	0.45	340	1.49	23	-1.6	100	-1.6	117	0	971.2	NA	0.0000	-SN BR	8000	200	0	0	0
2020/09/09 14:44:01	BASE	1.00	350	1.59	8	-1.6	100	-1.6	118	0	971.2	NA	0.0000	-SN BR	9000	0	0	0	660
2020/09/09 14:45:01	BASE	1.38	354	1.59	8	-1.6	100	-1.6	118	0	971.2	NA	0.0000	-SN BR	9000	200	0	0	0
2020/09/09 14:46:01	BASE	1.46	340	1.65	329	-1.6	100	-1.6	118	0	971.2	NA	0.0000	-SN BR	8000	200	0	0	0
2020/09/09 14:47:00	BASE	1.44	333	1.80	340	-1.6	100	-1.6	119	0	971.2	NA	0.0000	-SN BR	7000	0	0	0	690
2020/09/09 14:48:01	BASE	1.09	350	1.80	340	-1.6	100	-1.6	119	0	971.2	NA	0.0000	-SN BR	9000	0	0	0	690
2020/09/09 14:49:01	BASE	1.04	1	1.80	340	-1.6	100	-1.6	119	0	971.2	NA	0.0000	-SN BR	9000	0	0	0	620
2020/09/09 14:50:01	BASE	1.24	350	1.80	340	-1.6	100	-1.6	119	0	971.2	NA	0.0000	-SN BR	9000	0	0	0	660
2020/09/09 14:51:01	BASE	0.63	334	1.80	340	-1.6	100	-1.6	119	0	971.2	NA	0.0000	-SN BR	7000	230	0	0	0
2020/09/09 14:52:01	BASE	0.04	327	1.80	340	-1.6	100	-1.6	119	0	971.2	NA	0.0000	-SN BR	8000	0	0	0	660
2020/09/09 14:53:01	BASE	0.09	327	1.80	340	-1.6	100	-1.6	119	0	971.2	NA	0.0000	-SN BR	8000	0	0	0	660
2020/09/09 14:54:01	BASE	0.26	327	1.80	340	-1.6	100	-1.6	119	0	971.2	NA	0.0000	-SN BR	9000	0	0	0	620
2020/09/09 14:55:01	BASE	0.92	325	1.80	340	-1.6	100	-1.6	119	0	971.2	NA	0.0000	-SN BR	9000	0	0	0	660
2020/09/09 14:56:01	BASE	1.43	325	1.80	340	-1.6	100	-1.6	119	0	971.2	NA	0.0000	-SN BR	9999	0	0	0	620
2020/09/09 14:57:01	BASE	1.35	341	1.65	321	-1.6	100	-1.6	120	0	971.2	NA	0.0000	-SN BR	8000	0	0	0	620
2020/09/09 14:58:01	BASE	1.39	345	1.65	327	-1.6	100	-1.6	120	0	971.2	NA	0.0000	-SN BR	8000	0	0	0	590
2020/09/09 14:59:01	BASE	1.44	337	1.65	327	-1.7	100	-1.7	120	0	971.2	NA	0.0000	-SN BR	6000	0	0	0	590
2020/09/09 15:00:01	BASE	1.46	338	1.65	339	-1.7	100	-1.7	121	0	971.2	NA	0.0000	-SN BR	6000	0	0	0	590
2020/09/09 15:01:01	BASE	1.56	335	1.70	327	-1.7	100	-1.7	121	0	971.2	NA	0.0000	-SN BR	6000	0	0	0	590
2020/09/09 15:02:01	BASE	1.53	330	1.70	327	-1.7	100	-1.7	121	0	971.2	NA	0.0000	-SN BR	6000	0	0	0	560
2020/09/09 15:03:01	BASE	1.45	338	1.70	327	-1.7	100	-1.7	122	0	971.2	NA	0.0000	-SN BR	5000	0	0	0	560
2020/09/09 15:04:01	BASE	1.31	350	1.70	327	-1.7	100	-1.7	123	0	971.2	NA	0.0000	-SN BR	6000	0	0	0	590
2020/09/09 15:05:01	BASE	0.81	354	1.70	327	-1.7	100	-1.7	124	0	971.2	NA	0.0000	-SN BR	6000	0	0	0	590
2020/09/09 15:06:01	BASE	0.62	344	1.70	327	-1.7	100	-1.7	124	0	971.2	NA	0.0000	-SN BR	7000	0	0	0	620
2020/09/09 15:07:01	BASE	1.01	333	1.75	326	-1.7	100	-1.7	125	0	971.2	NA	0.0000	-SN BR	6000	0	0	0	620
2020/09/09 15:08:01	BASE	1.11	329	1.75	326	-1.7	100	-1.7	126	0	971.1	NA	0.0000	-SN BR	8000	0	0	0	660
2020/09/09 15:09:01	BASE	1.12	334	1.75	326	-1.7	100	-1.7	127	0	971.1	NA	0.0000	-SN BR	8000	0	0	0	590
2020/09/09 15:10:01	BASE	1.12	340	1.75	326	-1.7	100	-1.7	128	0	971.1	NA	0.0000	-SN BR	6000	0	0	0	660
2020/09/09 15:11:01	BASE	0.96	333	1.75	326	-1.7	100	-1.7	129	0	971.1	NA	0.0000	-SN BR	7000	0	0	0	660
2020/09/09 15:12:01	BASE	0.95	331	1.75	326	-1.7	100	-1.7	130	0	971.1	NA	0.0000	-SN BR	4800	0	0	0	620
2020/09/09 15:13:01	BASE	0.66	333	1.75	326	-1.7	100	-1.7	130	0	971.1	NA	0.0000	-SN BR	5000	0	0	0	620
2020/09/09 15:14:00	BASE	0.55	330	1.75	326	-1.7	100	-1.7	131	0	971.1	NA	0.0000	-SN BR	6000	0	0	0	620
2020/09/09 15:15:01	BASE	0.47	324	1.75	326	-1.7	100	-1.7	131	0	971.1	NA	0.0000	-SN BR	6000	0	0	0	1020
2020/09/09 15:16:01	BASE	0.10	326	1.75	326	-1.7	100	-1.7	132	0	971.1	NA	0.0000	-SN BR	4900	0	0	0	980
2020/09/09 15:17:01	BASE	0.05	332	1.44	316	-1.7	100	-1.7	132	0	971.1	NA	0.0000	-SN BR	5000	0	0	0	850
2020/09/09 15:18:01	BASE	0.09	323	1.39	339	-1.7	100	-1.7	133	0	971.1	NA	0.0000	-SN BR	5000	0	0	0	2100
2020/09/09 15:19:01	BASE	0.36	310	1.39	339	-1.7	100	-1.7	133	0	971.1	NA	0.0000	-SN BR	9000	0	0	0	790
2020/09/09 15:20:01	BASE	0.67	309	1.39	339	-1.7	100	-1.7	134	0	971.1	NA	0.0000	-SN BR	7000	0	0	0	1120
2020/09/09 15:21:01	BASE	0.83	317	1.29	323	-1.7	100	-1.7	135	0	971.1	NA	0.0000	-SN BR	7000	0	0	0	1540
2020/09/09 15:22:01	BASE	1.08	317	1.29	310	-1.7	100	-1.7	135	0	971.1	NA	0.0000	-SN BR	7000	0	0	0	1020
2020/09/09 15:23:01	BASE	1.14	312	1.29	310	-1.6	100	-1.6	135	0	971.1	NA	0.0000	-SN BR	6000	0	0	0	750
2020/09/09 15:24:01	BASE	1.16	313	1.39	319	-1.6	100	-1.6	135	0	971.1	NA	0.0000	-SN BR	8000	0	0	0	690
2020/09/09 15:25:01	BASE	0.81	322	1.39	319	-1.7	100	-1.7	135	0	971.1	NA	0.0000	-SN BR	7000	0	0	0	750
2020/09/09 15:26:01	BASE	0.19	329	1.39	319	-1.7	100	-1.7	136	0	971.1	NA	0.0000	-SN BR	3600	0	0	0	720
2020/09/09 15:27:01	BASE	0.00	327	1.39	319	-1.7	100	-1.7	136	0	971.1	NA	0.0000	-SN BR	4400	0	0	0	820
2020/09/09 15:28:01	BASE	0.00	328	1.39	319	-1.7	100	-1.7	135	0	971.1	NA	0.0000	-SN BR	4900	0	0	0	980
2020/09/09 15:29:01	BASE	0.00	329	1.39	319	-1.7	100	-1.7	134	0	971.1	NA	0.0000	-SN BR	5000	0	0	0	920
2020/09/09 15:30:01	BASE	0.00	332	1.39	319	-1.7	100	-1.7	134	0	971.1	NA	0.0000	-SN BR	4100	0	0	0	890
2020/09/09 15:31:01	BASE	0.00	333	1.39	319	-1.8	100	-1.8	134	0	971.1	NA	0.0000	-SN BR	4400	0	0	0	950
2020/09/09 15:32:01	BASE	0.00	335	1.39	319	-1.8	100	-1.8	135	0	971.1	NA	0.0000	-SN BR	4300	20510	0	0	0
2020/09/09 15:33:01	BASE	0.00	339	1.39	319	-1.8	100	-1.8	134	0	971.1	NA	0.0000	-SN BR	5000	0	0	0	950
2020/09/09 15:34:01	BASE	0.00	344	1.18	329	-1.8	100	-1.8	135	0	971.1	NA	0.0000	-SN BR	4700	0	0	0	1120
2020/09/09 15:35:01	BASE	0.00	350	M	M	-1.8	100	-1.8	134	0	971.1	NA	0.0000	-SN BR	4900	0	0	0	1020
2020/09/09 15:36:01	BASE	0.00	352	M	M	-1.9	100	-1.9	134	0	971.1	NA	0.0000	-SN BR	5000	0	0	0	1150
2020/09/09 15:37:01	BASE	0.00	344	M	M	-1.9	100	-1.9	135	0	971.1	NA	0.0000	-SN BR	4400	0	0	0	980
2020/09/09 15:38:01	BASE	0.00	338	M	M	-1.9	100	-1.9	135	0	971.1	NA	0.0000	-SN BR	6000	0	0	0	1120
2020/09/09 15:39:01	BASE	0.00	331	M	M	-1.9	100	-1.9	135	0	971.0	NA	0.0000	-SN BR	6000	0	0	0	1050
2020/09/09 15:40:01	BASE	0.00	324	M	M	-1.9	100	-1.9	135	0	971.0	NA	0.0000	-SN BR	7000	0	0	0	1050
2020/09/09 15:41:01	BASE	0.00	327	M	M	-1.9	100	-1.9	135	0	971.0	NA	0.0000	-SN BR	9999	0	0	0	1410
2020/09/09 15:42:01	BASE	0.04	328	1.03	327	-1.9	100	-1.9	134	0	971.0	NA	0.0000	-SN BR	6000	0	0	0	1080
2020/09/09 15:43:01	BASE	0.04	329	1.03	327	-1.9	100	-1.9	133	0	971.0	NA	0.0000	-SN BR	9999	0	0	0	1310
2020/09/09 15:44:01	BASE	0.00	328	1.03	327	-1.8	100	-1.8	132	0	971.0	NA	0.0000	-SN BR	9999	230	0	0	0
2020/09/09 15:45:01	BASE	0.37	323	1.13	310	-1.8	100	-1.8	148	0	971.0	NA	0.0000	-SN BR	9999	200	0	0	0
2020/09/09 15:46:01	BASE	0.50	322	1.18	314	-1.8	100	-1.8	148	0	971.0	NA	0.0000	-SN BR	9999	0	0	0	1410
2020/09/09 15:47:01	BASE	0.18	327	1.18	314	-1.8	100	-1.8	149	0	971.0	NA	0.0000	-SN BR	9999	0	0	0	1610
2020/09/09 15:48:01	BASE	0.04	327	1.18	314	-1.8	100	-1.8	150	0	971.0	NA	0.0000	-SN BR	9999	0	0	0	1570
2020/09/09 15:49:01	BASE	0.00	323	1.18	314	-1.8	100	-1.8	151	0	971.0	NA	0.0000	-SN BR	9999	0	0	0	1210
2020/09/09 15:50:01	BASE	0.45	317	1.29	305	-1.8	100	-1.8	151	0	971.0	NA	0.0000	-SN BR	9999	0	0	0	950
2020/09/09 15:51:01	BASE	0.86	316	1.29	305	-1.8	100	-1.8	152	0	971.0	NA	0.0000	-SN BR	9000	0	0	0	1080
2020/09/09 15:52:01	BASE	0.41	317	1.29	305	-1.8	100	-1.8	152	0	971.0	NA	0.0000	-SN	9000	200	0	0	0
2020/09/09 15:53:01	BASE	0.18	314	1.29	305	-1.8	100	-1.8	151	0	971.0	NA	0.0000	BR	9000	0	0	0	950
2020/09/09 15:54:01	BASE	0.18	310	1.29	305	-1.8	100	-1.8	151	0	971.0	NA	0.0000	BR	9000	0	0	0	980
2020/09/09 15:55:01	BASE	0.00	307	1.29	305	-1.7	100	-1.7	152	0	971.0	NA	0.0000	BR	9000	0	0	0	1120
2020/09/09 15:56:01	BASE	0.09	311	1.29	305	-1.7	100	-1.7	152	0	971.0	NA	0.0000	BR	9000	0	0	0	750
2020/09/09 15:57:00	BASE	0.13	312	1.29	305	-1.7	100	-1.7	152	0	971.0	NA	0.0000	BR	8000	0	0	0	720
2020/09/09 15:58:00	BASE	0.04	311	1.29	305	-1.7	100	-1.7	153	0	971.0	NA	0.0000	BR	8000	0	0	0	890
2020/09/09 15:59:01	BASE	0.00	316	1.29	305	-1.7	100	-1.7	154	0	971.0	NA	0.0000	BR	8000	0	0	0	790
2020/09/09 16:00:00	BASE	0.00	320	1.23	305	-1.7	100	-1.7	154	0	971.0	NA	0.0000	BR	7000	0	0	0	1180
2020/09/09 16:01:00	BASE	0.04	319	1.13	318	-1.7	100	-1.7	155	0	971.0	NA	0.0000	BR	7000	0	0	0	1180
2020/09/09 16:02:00	BASE	0.04	318	1.13	318	-1.7	100	-1.7	156	0	971.0	NA	0.0000	BR	7000	0	0	0	1210
2020/09/09 16:03:01	BASE	0.00	321	1.08	318	-1.8	100	-1.8	156	0	971.0	NA	0.0000	BR	7000	0	0	0	2360
2020/09/09 16:04:00	BASE	0.00	322	1.08	318	-1.8	100	-1.8	157	0	971.0	NA	0.0000	BR	7000	0	0	0	1150
2020/09/09 16:05:01	BASE	0.00	324	1.08	318	-1.8	100	-1.8	157	0	971.0	NA	0.0000	BR	6000	22510	0	0	0
2020/09/09 16:06:00	BASE	0.00	324	1.03	311	-1.8	100	-1.8	158	0	971.0	NA	0.0000	BR	6000	0	0	0	2330
2020/09/09 16:07:01	BASE	0.00	311	1.03	311	-1.8	100	-1.8	158	0	971.0	NA	0.0000	BR	6000	0	0	0	2330
2020/09/09 16:08:00	BASE	0.00	317	1.03	311	-1.8	100	-1.8	158	0	971.0	NA	0.0000	BR	6000	0	0	0	2260
2020/09/09 16:09:00	BASE	0.00	330	1.03	311	-1.9	100	-1.9	158	0	971.0	NA	0.0000	BR	6000	0	0	0	1350
2020/09/09 16:10:00	BASE	0.00	326	1.03	311	-1.9	100	-1.9	159	0	971.0	NA	0.0000	BR	6000	0	0	0	2130
2020/09/09 16:11:00	BASE	0.09	318	1.08	308	-1.9	100	-1.9	159	0	971.0	NA	0.0000	BR	5000	160	0	0	0
2020/09/09 16:12:00	BASE	0.13	305	1.08	308	-1.9	100	-1.9	160	0	971.0	NA	0.0000	BR	5000	0	0	0	2130
2020/09/09 16:13:00	BASE	0.04	303	1.08	308	-1.9	100	-1.9	161	0	971.0	NA	0.0000	BR	5000	200	0	0	0
2020/09/09 16:14:00	BASE	0.00	308	1.08	308	-1.9	100	-1.9	161	0	971.0	NA	0.0000	BR	5000	200	0	0	0
2020/09/09 16:15:00	BASE	0.00	306	1.08	308	-1.9	100	-1.9	161	0	971.0	NA	0.0000	BR	5000	200	0	0	0
2020/09/09 16:16:00	BASE	0.00	300	1.08	308	-1.8	100	-1.8	161	0	971.0	NA	0.0000	BR	5000	160	0	0	0
2020/09/09 16:17:00	BASE	0.00	299	1.08	308	-1.8	100	-1.8	161	0	971.0	NA	0.0000	BR	5000	200	0	0	0
2020/09/09 16:18:00	BASE	0.00	304	1.08	308	-1.8	100	-1.8	162	0	971.0	NA	0.0000	BR	5000	230	0	0	0
2020/09/09 16:19:00	BASE	0.00	301	1.08	308	-1.7	100	-1.7	162	0	971.0	NA	0.0000	BR	5000	0	0	0	2170
2020/09/09 16:20:00	BASE	0.00	290	1.08	308	-1.7	100	-1.7	162	0	971.0	NA	0.0000	BR	5000	160	0	0	0
2020/09/09 16:21:00	BASE	0.00	295	1.03	287	-1.7	100	-1.7	162	0	971.0	NA	0.0000	BR	4900	200	0	0	0
2020/09/09 16:22:00	BASE	0.00	300	M	M	-1.8	100	-1.8	163	0	971.0	NA	0.0000	BR	4900	200	0	0	0
2020/09/09 16:23:00	BASE	0.00	291	M	M	-1.8	100	-1.8	163	0	971.0	NA	0.0000	BR	4800	200	22640	0	0
2020/09/09 16:24:00	BASE	0.00	288	M	M	-1.8	100	-1.8	164	0	971.0	NA	0.0000	BR	4700	230	0	0	0
2020/09/09 16:25:00	BASE	0.00	290	M	M	-1.7	100	-1.7	164	0	971.0	NA	0.2540	BR	4700	200	0	0	0
2020/09/09 16:26:00	BASE	0.00	283	M	M	-1.7	100	-1.7	165	0	971.0	NA	0.0000	BR	4600	230	0	0	0
2020/09/09 16:27:00	BASE	0.00	276	M	M	-1.7	100	-1.7	165	0	971.0	NA	0.0000	BR	4600	200	0	0	0
2020/09/09 16:28:00	BASE	0.00	280	M	M	-1.8	100	-1.8	165	0	971.0	NA	0.0000	BR	4500	200	0	0	0
2020/09/09 16:29:00	BASE	0.00	272	M	M	-1.8	100	-1.8	165	0	971.0	NA	0.0000	BR	4500	200	2030	0	0
2020/09/09 16:30:00	BASE	0.00	255	M	M	-1.8	100	-1.8	166	0	971.0	NA	0.0000	BR	4400	200	0	0	0
2020/09/09 16:31:00	BASE	0.00	251	M	M	-1.9	100	-1.9	166	0	971.0	NA	0.0000	BR	4400	230	2030	0	0
2020/09/09 16:32:00	BASE	0.00	253	M	M	-1.9	100	-1.9	166	0	971.0	NA	0.0000	BR	4300	200	0	0	0
2020/09/09 16:33:00	BASE	0.00	252	M	M	-1.9	100	-1.9	166	0	971.0	NA	0.0000	BR	4300	200	0	0	0
2020/09/09 16:34:00	BASE	0.00	248	M	M	-1.9	100	-1.9	167	0	971.0	NA	0.0000	BR	4200	200	0	0	0
2020/09/09 16:35:00	BASE	0.00	240	M	M	-1.9	100	-1.9	167	0	971.0	NA	0.0000	BR	4200	200	0	0	0
2020/09/09 16:36:00	BASE	0.00	224	M	M	-1.9	100	-1.9	167	0	971.0	NA	0.0000	BR	4100	200	0	0	0
2020/09/09 16:37:00	BASE	0.00	210	M	M	-1.9	100	-1.9	167	0	971.0	NA	0.0000	BR	4100	200	0	0	0
2020/09/09 16:38:00	BASE	0.00	202	M	M	-1.9	100	-1.9	167	0	971.0	NA	0.0000	BR	4100	200	0	0	0
2020/09/09 16:39:00	BASE	0.00	199	M	M	-1.9	100	-1.9	166	0	971.0	NA	0.0000	BR	4000	200	0	0	0
2020/09/09 16:40:00	BASE	0.00	200	M	M	-1.9	100	-1.9	164	0	971.0	NA	0.0000	BR	4000	200	0	0	0
2020/09/09 16:41:01	BASE	0.00	194	M	M	-1.9	100	-1.9	163	0	971.0	NA	0.0000	BR	4000	200	0	0	0
2020/09/09 16:42:01	BASE	0.00	188	M	M	-1.9	100	-1.9	163	0	971.0	NA	0.0000	BR	3900	160	0	0	0
2020/09/09 16:43:00	BASE	0.00	189	M	M	-1.9	100	-1.9	162	0	971.0	NA	0.0000	BR	3900	160	0	0	0
2020/09/09 16:44:00	BASE	0.00	196	M	M	-1.9	100	-1.9	162	0	971.0	NA	0.0000	BR	3900	160	0	0	0
2020/09/09 16:45:00	BASE	0.00	190	M	M	-1.9	100	-1.9	163	0	971.0	NA	0.0000	BR	3900	160	0	0	0
2020/09/09 16:46:00	BASE	0.00	169	M	M	-1.9	100	-1.9	164	0	970.9	NA	0.0000	BR	3800	160	0	0	0
2020/09/09 16:47:00	BASE	0.00	157	M	M	-1.8	100	-1.8	164	0	970.9	NA	0.0000	BR	3800	160	0	0	0
2020/09/09 16:48:00	BASE	0.00	160	M	M	-1.8	100	-1.8	165	0	970.9	NA	0.0000	BR	3800	160	0	0	0
2020/09/09 16:49:00	BASE	0.00	168	M	M	-1.8	100	-1.8	166	0	970.9	NA	0.0000	BR	3800	160	0	0	0
2020/09/09 16:50:00	BASE	0.00	180	M	M	-1.8	100	-1.8	168	0	970.9	NA	0.0000	BR	3800	160	0	0	0
2020/09/09 16:51:00	BASE	0.00	184	M	M	-1.8	100	-1.8	169	0	970.9	NA	0.0000	BR	3700	160	0	0	0
2020/09/09 16:52:00	BASE	0.00	174	M	M	-1.9	100	-1.9	169	0	970.9	NA	0.0000	BR	3700	160	0	0	0
2020/09/09 16:53:00	BASE	0.00	157	M	M	-1.9	100	-1.9	170	0	970.9	NA	0.0000	BR	3700	160	0	0	0
2020/09/09 16:54:00	BASE	0.00	141	M	M	-1.9	100	-1.9	170	0	970.9	NA	0.0000	BR	3700	160	0	0	0
2020/09/09 16:55:00	BASE	0.00	132	M	M	-1.9	100	-1.9	171	0	970.9	NA	0.0000	BR	3700	160	0	0	0
2020/09/09 16:56:00	BASE	0.00	123	M	M	-1.8	100	-1.8	171	0	970.9	NA	0.0000	BR	3600	160	0	0	0
2020/09/09 16:57:00	BASE	0.00	128	M	M	-1.8	100	-1.8	172	0	970.9	NA	0.0000	BR	3600	160	0	0	0
2020/09/09 16:58:00	BASE	0.00	141	M	M	-1.8	100	-1.8	173	0	970.8	NA	0.0000	BR	3600	160	0	0	0
2020/09/09 16:59:00	BASE	0.00	146	M	M	-1.8	100	-1.8	173	0	970.8	NA	0.0000	BR	3600	160	0	0	0
2020/09/09 17:00:00	BASE	0.00	147	M	M	-1.9	100	-1.9	173	0	970.8	NA	0.0000	BR	3600	160	0	0	0
2020/09/09 17:01:00	BASE	0.00	147	M	M	-1.9	100	-1.9	173	0	970.8	NA	0.0000	BR	3600	160	0	0	0
2020/09/09 17:02:00	BASE	0.00	139	M	M	-1.9	100	-1.9	173	0	970.8	NA	0.0000	BR	3600	160	0	0	0
2020/09/09 17:03:00	BASE	0.00	139	M	M	-1.9	100	-1.9	173	0	970.8	NA	0.0000	BR	3500	160	0	0	0
2020/09/09 17:04:00	BASE	0.18	147	1.13	156	-1.9	100	-1.9	173	0	970.8	NA	0.0000	BR	3500	160	0	0	0
2020/09/09 17:05:00	BASE	0.78	152	1.34	156	-1.9	100	-1.9	173	0	970.8	NA	0.0000	BR	3500	160	0	0	0
2020/09/09 17:06:00	BASE	1.17	155	1.34	156	-1.9	100	-1.9	173	0	970.8	NA	0.0000	BR	3500	160	0	0	0
2020/09/09 17:07:00	BASE	1.15	156	1.34	156	-1.9	100	-1.9	173	0	970.8	NA	0.0000	UP BR	6000	160	0	0	0
2020/09/09 17:08:00	BASE	1.20	159	1.34	163	-1.9	100	-1.9	173	0	970.8	NA	0.0000	UP BR	6000	160	0	0	0
2020/09/09 17:09:00	BASE	1.24	161	1.39	158	-1.9	100	-1.9	174	0	970.8	NA	0.0000	UP BR	5000	0	0	0	520
2020/09/09 17:10:00	BASE	1.26	160	1.39	158	-2.0	100	-2.0	174	0	970.8	NA	0.0000	UP BR	6000	0	0	0	520
2020/09/09 17:11:00	BASE	1.30	160	1.44	160	-2.0	100	-2.0	173	0	970.8	NA	0.0000	UP BR	5000	0	0	0	560
2020/09/09 17:12:00	BASE	1.26	161	1.44	160	-2.0	100	-2.0	173	0	970.8	NA	0.0000	UP BR	5000	160	0	0	0
2020/09/09 17:13:00	BASE	1.12	163	1.44	160	-2.0	100	-2.0	173	0	970.9	NA	0.0000	UP BR	5000	160	0	0	0
2020/09/09 17:14:00	BASE	0.62	167	1.44	160	-2.0	100	-2.0	173	0	970.9	NA	0.0000	UP BR	4900	0	0	0	590
2020/09/09 17:15:00	BASE	0.13	171	1.44	160	-2.0	100	-2.0	172	0	970.9	NA	0.0000	UP BR	4900	0	0	0	590
2020/09/09 17:16:00	BASE	0.04	172	1.44	160	-2.0	100	-2.0	173	0	970.9	NA	0.0000	UP BR	5000	0	0	0	620
2020/09/09 17:17:00	BASE	0.00	172	1.44	160	-2.0	100	-2.0	173	0	970.9	NA	0.0000	UP BR	4600	0	0	0	750
2020/09/09 17:18:00	BASE	0.00	177	1.44	160	-2.0	100	-2.0	173	0	970.9	NA	0.0000	UP BR	5000	0	0	0	750
2020/09/09 17:19:00	BASE	0.00	184	1.44	160	-2.0	100	-2.0	173	0	970.8	NA	0.0000	UP BR	5000	200	0	0	0
2020/09/09 17:20:00	BASE	0.00	189	1.44	160	-2.0	100	-2.0	173	0	970.9	NA	0.0000	UP BR	5000	200	21560	0	0
2020/09/09 17:21:00	BASE	0.00	190	1.29	161	-2.0	100	-2.0	173	0	970.9	NA	0.0000	UP BR	5000	200	0	0	0
2020/09/09 17:22:00	BASE	0.00	189	1.29	161	-2.0	100	-2.0	173	0	970.9	NA	0.0000	UP BR	5000	200	0	0	0
2020/09/09 17:23:00	BASE	0.00	189	1.08	168	-2.0	100	-2.0	174	0	971.0	NA	0.0000	UP BR	5000	200	0	0	0
2020/09/09 17:24:00	BASE	0.00	189	1.03	171	-2.0	100	-2.0	173	0	971.0	NA	0.0000	UP BR	5000	0	0	0	1800
2020/09/09 17:25:00	BASE	0.00	189	M	M	-2.0	100	-2.0	175	0	971.0	NA	0.0000	UP BR	4400	0	0	0	1870
2020/09/09 17:26:00	BASE	0.00	189	M	M	-2.0	100	-2.0	177	0	970.9	NA	0.0000	UP BR	4200	0	0	0	1900
2020/09/09 17:27:00	BASE	0.00	189	M	M	-2.0	100	-2.0	178	0	970.9	NA	0.0000	UP BR	4800	0	0	0	2000
2020/09/09 17:28:00	BASE	0.00	184	M	M	-2.0	100	-2.0	179	0	970.9	NA	0.0000	UP BR	4200	200	0	0	0
2020/09/09 17:29:00	BASE	0.00	179	M	M	-2.0	100	-2.0	180	0	970.9	NA	0.0000	UP BR	3700	0	0	0	2070
2020/09/09 17:30:00	BASE	0.00	179	M	M	-2.0	100	-2.0	181	0	970.9	NA	0.0000	UP BR	3200	230	920	0	0
2020/09/09 17:31:00	BASE	0.00	179	M	M	-2.0	100	-2.0	182	0	970.9	NA	0.0000	UP BR	4200	230	850	0	0
2020/09/09 17:32:00	BASE	0.00	179	M	M	-2.0	100	-2.0	182	0	970.9	NA	0.0000	UP BR	4600	0	0	0	2400
2020/09/09 17:33:00	BASE	0.00	179	M	M	-1.9	100	-1.9	183	0	970.9	NA	0.0000	UP BR	4000	0	0	0	3940
2020/09/09 17:34:00	BASE	0.00	179	M	M	-1.9	100	-1.9	184	0	970.9	NA	0.0000	UP BR	3300	0	0	0	1710
2020/09/09 17:35:00	BASE	0.00	179	M	M	-1.9	100	-1.9	186	0	970.9	NA	0.0000	UP BR	3400	0	0	0	2990
2020/09/09 17:36:00	BASE	0.00	179	M	M	-1.9	100	-1.9	186	0	970.9	NA	0.0000	UP BR	4100	0	0	0	3180
2020/09/09 17:37:00	BASE	0.00	179	M	M	-1.9	100	-1.9	187	0	970.9	NA	0.0000	UP BR	2800	230	0	0	0
2020/09/09 17:38:00	BASE	0.00	172	M	M	-2.0	100	-2.0	188	0	970.9	NA	0.0000	UP BR	3300	260	0	0	0
2020/09/09 17:39:00	BASE	0.00	103	M	M	-2.0	100	-2.0	188	0	970.9	NA	0.0000	UP BR	2900	260	0	0	0
2020/09/09 17:40:00	BASE	0.00	36	M	M	-2.0	100	-2.0	189	0	970.9	NA	0.0000	UP BR	3400	260	0	0	0
2020/09/09 17:41:00	BASE	0.00	24	M	M	-2.0	100	-2.0	190	0	970.9	NA	0.0000	UP BR	3400	230	0	0	0
2020/09/09 17:42:00	BASE	0.00	28	M	M	-2.0	100	-2.0	190	0	970.9	NA	0.0000	UP BR	2900	200	0	0	0
2020/09/09 17:43:00	BASE	0.00	27	M	M	-2.0	100	-2.0	191	0	970.9	NA	0.0000	UP BR	2900	200	0	0	0
2020/09/09 17:44:00	BASE	0.00	14	M	M	-2.0	100	-2.0	191	0	970.9	NA	0.0000	UP BR	2800	230	0	0	0
2020/09/09 17:45:00	BASE	0.00	6	M	M	-2.0	100	-2.0	192	0	970.9	NA	0.0000	UP BR	2800	230	0	0	0
2020/09/09 17:46:00	BASE	0.00	5	M	M	-2.0	100	-2.0	193	0	970.9	NA	0.0000	UP BR	2800	230	0	0	0
2020/09/09 17:47:00	BASE	0.00	3	M	M	-2.0	100	-2.0	194	0	970.9	NA	0.0000	UP BR	2800	230	21690	0	0
2020/09/09 17:48:00	BASE	0.00	3	M	M	-2.0	100	-2.0	194	0	970.9	NA	0.0000	UP BR	2800	230	0	0	0
2020/09/09 17:49:00	BASE	0.00	8	M	M	-2.0	100	-2.0	195	0	970.9	NA	0.0000	UP BR	2800	230	0	0	0
2020/09/09 17:50:00	BASE	0.00	13	M	M	-2.0	100	-2.0	196	0	970.9	NA	0.0000	UP BR	2800	230	0	0	0
2020/09/09 17:51:00	BASE	0.00	14	M	M	-2.0	100	-2.0	195	0	970.9	NA	0.0000	UP BR	2800	230	0	0	0
2020/09/09 17:52:00	BASE	0.00	14	M	M	-2.0	100	-2.0	196	0	970.9	NA	0.0000	UP BR	2800	200	0	0	0
2020/09/09 17:53:00	BASE	0.04	14	1.03	14	-2.0	100	-2.0	196	0	970.9	NA	0.0000	UP BR	2800	0	0	0	5150
2020/09/09 17:54:00	BASE	0.13	14	1.18	14	-2.0	100	-2.0	194	0	970.9	NA	0.0000	BR	2800	7780	0	0	0
2020/09/09 17:55:00	BASE	0.18	14	1.18	14	-2.0	100	-2.0	195	0	970.9	NA	0.0000	BR	4800	200	0	0	0
2020/09/09 17:56:00	BASE	0.31	12	1.18	14	-2.1	100	-2.1	196	0	970.9	NA	0.0000	BR	7000	230	0	0	0
2020/09/09 17:57:00	BASE	0.58	10	1.18	9	-2.1	100	-2.1	197	0	970.9	NA	0.0000	BR	7000	260	0	0	0
2020/09/09 17:58:00	BASE	0.53	10	1.18	9	-2.1	100	-2.1	198	0	970.9	NA	0.0000	BR	8000	260	0	0	0
2020/09/09 17:59:00	BASE	0.30	13	1.18	9	-2.1	100	-2.1	198	0	970.9	NA	0.0000	BR	7000	300	0	0	0
2020/09/09 18:00:00	BASE	0.17	18	1.18	9	-2.1	100	-2.1	198	0	970.9	NA	0.0000	BR	8000	0	0	0	8140
2020/09/09 18:01:00	BASE	0.09	21	1.18	9	-2.1	100	-2.1	198	0	970.9	NA	0.0000	BR	7000	0	0	0	8500
2020/09/09 18:02:00	BASE	0.17	24	1.18	9	-2.1	100	-2.1	198	0	970.9	NA	0.0000	BR	8000	0	0	0	9420
2020/09/09 18:03:00	BASE	0.34	25	1.18	9	-2.2	100	-2.2	197	0	970.9	NA	0.0000	BR	9000	0	0	0	8630
2020/09/09 18:04:00	BASE	0.48	24	1.18	9	-2.2	100	-2.2	196	0	970.9	NA	0.0000	BR	9999	0	0	0	8010
2020/09/09 18:05:00	BASE	0.71	21	1.18	9	-2.2	100	-2.2	194	0	971.0	NA	0.0000	BR	9999	0	0	0	7940
2020/09/09 18:06:00	BASE	1.02	16	1.18	14	-2.2	100	-2.2	193	0	971.0	NA	0.0000	BR	7000	1150	0	0	0
2020/09/09 18:07:01	BASE	1.14	14	1.23	11	-2.2	100	-2.2	192	0	971.0	NA	0.0000	BR	9000	1080	0	0	0
2020/09/09 18:08:00	BASE	1.16	13	1.29	11	-2.2	100	-2.2	192	0	971.0	NA	0.0000	BR	6000	1050	0	0	0
2020/09/09 18:09:00	BASE	1.16	10	1.29	11	-2.2	100	-2.2	192	0	971.0	NA	0.0000	BR	7000	1050	0	0	0
2020/09/09 18:10:00	BASE	1.12	11	1.29	11	-2.2	100	-2.2	193	0	971.0	NA	0.0000	BR	7000	1050	0	0	0
2020/09/09 18:11:00	BASE	1.00	12	1.29	11	-2.2	100	-2.2	196	0	971.0	NA	0.0000	BR	9000	1020	0	0	0
2020/09/09 18:12:00	BASE	0.94	12	1.29	11	-2.2	100	-2.2	199	0	971.0	NA	0.0000	BR	9000	0	0	0	5940
2020/09/09 18:13:00	BASE	1.02	13	1.29	11	-2.2	100	-2.2	203	0	971.0	NA	0.0000	BR	9000	0	0	0	4660
2020/09/09 18:14:00	BASE	1.03	15	1.29	11	-2.2	100	-2.2	209	0	971.0	NA	0.0000	BR	9999	0	0	0	3810
2020/09/09 18:15:00	BASE	1.03	18	1.29	11	-2.1	100	-2.1	215	0	971.0	NA	0.0000	BR	9999	0	0	0	3450
2020/09/09 18:16:00	BASE	1.08	20	1.29	11	-2.1	100	-2.1	222	0	971.0	NA	0.0000	BR	9999	0	0	0	2950
2020/09/09 18:17:00	BASE	0.91	24	1.29	11	-2.1	100	-2.1	229	0	971.0	NA	0.0000	BR	9999	0	0	0	2920
2020/09/09 18:18:00	BASE	0.68	24	1.18	19	-2.1	100	-2.1	235	0	971.0	NA	0.0000	BR	9999	0	0	0	2790
2020/09/09 18:19:00	BASE	0.59	19	1.18	17	-2.0	100	-2.0	238	0	971.0	NA	0.0000	BR	9999	0	0	0	2690
2020/09/09 18:20:00	BASE	0.68	14	1.23	2	-2.0	100	-2.0	245	0	971.0	NA	0.0000		9999	0	0	0	2490
2020/09/09 18:21:00	BASE	0.78	11	1.23	10	-2.0	100	-2.0	249	0	971.0	NA	0.0000		9999	0	0	0	2170
2020/09/09 18:22:00	BASE	0.46	13	1.23	10	-2.0	100	-2.0	242	0	971.0	NA	0.0000		9999	0	0	0	2070
2020/09/09 18:23:00	BASE	0.36	12	1.23	10	-2.0	100	-2.0	233	0	971.0	NA	0.0000		6000	0	0	0	1840
2020/09/09 18:24:00	BASE	0.55	7	1.23	10	-1.9	100	-1.9	227	0	971.0	NA	0.0000	UP BR	5000	0	0	0	1670
2020/09/09 18:25:00	BASE	0.80	4	1.29	354	-1.9	100	-1.9	223	0	971.0	NA	0.0000	UP BR	5000	6370	0	0	0
2020/09/09 18:26:00	BASE	0.99	2	1.29	354	-1.9	100	-1.9	221	0	971.0	NA	0.0000	UP BR	5000	6270	0	0	0
2020/09/09 18:27:00	BASE	0.84	6	1.29	354	-1.9	100	-1.9	217	0	971.0	NA	0.0000	UP BR	9999	6270	0	0	0
2020/09/09 18:28:00	BASE	0.71	15	1.29	10	-1.9	100	-1.9	213	0	971.0	NA	0.0000	UP BR	9999	6070	0	0	0
2020/09/09 18:29:00	BASE	1.01	13	1.54	3	-1.9	100	-1.9	209	0	971.0	NA	0.0000	UP BR	9999	0	0	0	1050
2020/09/09 18:30:00	BASE	1.21	10	1.65	4	-1.9	100	-1.9	205	0	971.0	NA	0.0000	UP BR	9999	6270	0	0	0
2020/09/09 18:31:00	BASE	1.03	11	1.65	4	-1.9	100	-1.9	201	0	971.0	NA	0.0000	UP BR	9999	0	0	0	720
2020/09/09 18:32:00	BASE	1.16	8	1.65	4	-1.9	100	-1.9	197	0	971.0	NA	0.0000	UP BR	9999	3580	0	0	0
2020/09/09 18:33:00	BASE	1.32	2	1.65	352	-1.9	100	-1.9	195	0	971.0	NA	0.0000	UP BR	9000	3580	0	0	0
2020/09/09 18:34:00	BASE	1.24	2	1.65	352	-1.9	100	-1.9	193	0	971.0	NA	0.0000	UP	9999	2360	3080	0	0
2020/09/09 18:35:00	BASE	1.03	1	1.65	352	-1.9	100	-1.9	190	0	971.0	NA	0.0000	UP	9999	2230	3050	22180	0
2020/09/09 18:36:00	BASE	1.10	359	1.65	352	-1.9	100	-1.9	187	0	971.0	NA	0.0000	UP	9999	2130	3020	0	0
2020/09/09 18:37:00	BASE	1.23	5	1.65	352	-1.8	100	-1.8	183	0	971.0	NA	0.0000		9999	2070	2990	0	0
2020/09/09 18:38:00	BASE	1.28	5	1.65	352	-1.8	100	-1.8	182	0	971.1	NA	0.0000		9999	2000	2950	0	0
2020/09/09 18:39:00	BASE	1.40	0	1.70	360	-1.8	100	-1.8	185	0	971.1	NA	0.0000		9999	1970	2990	0	0
2020/09/09 18:40:00	BASE	1.41	356	1.70	360	-1.8	100	-1.8	188	0	971.1	NA	0.0000		9999	1900	0	0	0
2020/09/09 18:41:00	BASE	1.38	353	1.70	360	-1.8	100	-1.8	191	0	971.1	NA	0.0000		9999	1900	0	0	0
2020/09/09 18:42:00	BASE	1.29	349	1.70	360	-1.8	100	-1.8	195	0	971.1	NA	0.0000		9999	1870	3250	0	0
2020/09/09 18:43:00	BASE	1.23	349	1.70	360	-1.8	100	-1.8	201	0	971.1	NA	0.0000		9999	1800	3180	0	0
2020/09/09 18:44:00	BASE	1.34	346	1.70	360	-1.8	100	-1.8	206	0	971.1	NA	0.0000		9999	1840	3180	0	0
2020/09/09 18:45:00	BASE	1.45	339	1.70	360	-1.8	100	-1.8	209	0	971.1	NA	0.0000		9999	1840	3150	0	0
2020/09/09 18:46:00	BASE	1.58	339	1.80	341	-1.8	100	-1.8	208	0	971.1	NA	0.0000		9999	1770	3120	0	0
2020/09/09 18:47:00	BASE	1.69	338	1.85	333	-1.8	100	-1.8	204	0	971.1	NA	0.0000		9999	1710	3080	0	0
2020/09/09 18:48:00	BASE	1.66	335	1.85	333	-1.7	100	-1.7	199	0	971.1	NA	0.0000		9999	1710	3080	0	0
2020/09/09 18:49:00	BASE	1.56	332	1.85	333	-1.7	100	-1.7	197	0	971.1	NA	0.0000		9999	1670	2990	0	0
2020/09/09 18:50:00	BASE	1.45	327	1.85	333	-1.7	100	-1.7	195	0	971.1	NA	0.0000		9999	1440	0	0	0
2020/09/09 18:51:00	BASE	1.33	326	1.85	333	-1.6	100	-1.6	193	0	971.1	NA	0.0000		9999	1480	0	0	0
2020/09/09 18:52:00	BASE	1.21	327	1.85	333	-1.6	100	-1.6	190	0	971.1	NA	0.0000		9999	1480	22930	0	0
2020/09/09 18:53:00	BASE	1.21	326	1.85	333	-1.6	100	-1.6	188	0	971.1	NA	0.0000		9999	1480	0	0	0
2020/09/09 18:54:00	BASE	1.31	327	1.85	333	-1.6	100	-1.6	187	0	971.1	NA	0.0000		9999	1440	0	0	0
2020/09/09 18:55:00	BASE	1.52	328	1.95	331	-1.6	100	-1.6	184	0	971.1	NA	0.0000		9999	1440	0	0	0
2020/09/09 18:56:00	BASE	1.67	326	1.95	322	-1.6	100	-1.6	177	0	971.1	NA	0.0000		9999	1480	0	0	0
2020/09/09 18:57:00	BASE	1.65	318	1.95	323	-1.6	100	-1.6	169	0	971.2	NA	0.0000		9999	1510	0	0	0
2020/09/09 18:58:00	BASE	1.59	310	1.95	323	-1.5	100	-1.5	165	0	971.2	NA	0.0000		9999	1540	0	0	0
2020/09/09 18:59:00	BASE	1.59	302	1.95	323	-1.5	100	-1.5	165	0	971.2	NA	0.0000		9999	1540	0	0	0
2020/09/09 19:00:00	BASE	1.76	297	2.21	300	-1.5	100	-1.5	167	0	971.2	NA	0.0000		9999	1510	0	0	0
2020/09/09 19:01:00	BASE	1.95	298	2.21	300	-1.5	100	-1.5	168	0	971.2	NA	0.0000		9999	1080	1440	0	0
2020/09/09 19:02:00	BASE	2.11	297	2.47	301	-1.5	100	-1.5	171	0	971.2	NA	0.0000		9999	1080	23160	0	0
2020/09/09 19:03:00	BASE	2.35	298	2.62	301	-1.5	100	-1.5	172	0	971.2	NA	0.0000		9999	1080	0	0	0
2020/09/09 19:04:00	BASE	2.52	300	2.62	301	-1.5	100	-1.5	167	0	971.2	NA	0.0000		9999	1080	1510	0	0
2020/09/09 19:05:00	BASE	2.58	301	2.73	307	-1.5	100	-1.5	158	0	971.2	NA	0.0000		9999	1080	1480	0	0
2020/09/09 19:06:00	BASE	2.65	304	2.78	304	-1.5	100	-1.5	154	0	971.2	NA	0.0000		9999	1120	0	0	0
2020/09/09 19:07:00	BASE	2.61	303	2.78	304	-1.5	100	-1.5	156	0	971.2	NA	0.0000		9999	1150	0	0	0
2020/09/09 19:08:00	BASE	2.44	301	2.78	304	-1.5	100	-1.5	159	0	971.2	NA	0.0000		9999	1210	0	0	0
2020/09/09 19:09:00	BASE	2.44	300	2.78	295	-1.5	100	-1.5	161	0	971.2	NA	0.0000		9999	1180	0	0	0
2020/09/09 19:10:00	BASE	2.45	298	2.78	295	-1.5	100	-1.5	164	0	971.2	NA	0.0000		9999	1150	0	0	0
2020/09/09 19:11:00	BASE	2.59	298	2.98	299	-1.5	100	-1.5	169	0	971.2	NA	0.0000		9999	1080	0	0	0
2020/09/09 19:12:00	BASE	2.80	298	2.98	299	-1.5	100	-1.5	173	0	971.2	NA	0.0000		9999	1050	0	0	0
2020/09/09 19:13:00	BASE	2.89	298	2.98	296	-1.5	100	-1.5	170	0	971.2	NA	0.0000		9999	1020	0	0	0
2020/09/09 19:14:00	BASE	2.88	298	2.98	300	-1.5	100	-1.5	158	0	971.2	NA	0.0000		9999	1020	0	0	0
2020/09/09 19:15:00	BASE	2.87	298	3.09	300	-1.5	100	-1.5	144	0	971.2	NA	0.0000		9999	980	0	0	0
2020/09/09 19:16:00	BASE	3.07	298	3.50	299	-1.4	100	-1.4	134	0	971.2	NA	0.0000		9999	950	0	0	0
2020/09/09 19:17:00	BASE	3.30	299	3.55	297	-1.4	100	-1.4	131	0	971.2	NA	0.0000		9999	980	0	0	0
2020/09/09 19:18:00	BASE	3.37	301	3.60	302	-1.4	100	-1.4	132	0	971.2	NA	0.0000		9999	920	0	0	0
2020/09/09 19:19:00	BASE	3.58	304	4.17	304	-1.4	100	-1.4	132	0	971.2	NA	0.0000		9999	790	0	0	0
2020/09/09 19:20:00	BASE	3.61	308	4.17	304	-1.4	100	-1.4	126	0	971.2	NA	0.0000		9999	750	0	0	0
2020/09/09 19:21:00	BASE	3.23	308	4.17	304	-1.4	100	-1.4	119	0	971.3	NA	0.0000		9999	690	18440	0	0
2020/09/09 19:22:00	BASE	3.10	304	4.17	304	-1.5	100	-1.5	116	0	971.3	NA	0.0000		9999	690	0	0	0
2020/09/09 19:23:00	BASE	3.13	303	4.17	304	-1.5	100	-1.5	113	0	971.3	NA	0.0000		9999	590	0	0	0
2020/09/09 19:24:00	BASE	3.12	303	4.17	304	-1.5	100	-1.5	110	0	971.4	NA	0.0000		9999	590	0	0	0
2020/09/09 19:25:00	BASE	3.27	302	4.17	304	-1.5	100	-1.5	107	0	971.4	NA	0.0000		9999	590	0	0	0
2020/09/09 19:26:00	BASE	3.59	301	4.22	299	-1.5	100	-1.5	106	0	971.4	NA	0.0000		9999	490	0	0	0
2020/09/09 19:27:00	BASE	3.63	302	4.22	299	-1.5	100	-1.5	106	0	971.4	NA	0.0000		9999	590	0	0	0
2020/09/09 19:28:00	BASE	3.70	303	4.22	299	-1.5	100	-1.5	105	0	971.4	NA	0.0000		9999	490	0	0	0
2020/09/09 19:29:00	BASE	3.91	303	4.22	301	-1.5	100	-1.5	101	0	971.4	NA	0.0000		9999	430	0	0	0
2020/09/09 19:30:00	BASE	4.05	301	4.42	305	-1.5	100	-1.5	97	0	971.5	NA	0.0000		9999	390	0	0	0
2020/09/09 19:31:00	BASE	4.04	302	4.42	305	-1.5	100	-1.5	95	0	971.5	NA	0.0000		9999	360	0	0	0
2020/09/09 19:32:01	BASE	4.09	304	4.48	308	-1.6	100	-1.6	94	0	971.5	NA	0.0000		9999	330	0	0	0
2020/09/09 19:33:00	BASE	4.46	305	4.89	306	-1.6	100	-1.6	93	0	971.5	NA	0.0000		9999	330	0	0	0
2020/09/09 19:34:00	BASE	4.57	305	4.89	306	-1.6	100	-1.6	94	0	971.5	NA	0.0000		9999	260	0	0	0
2020/09/09 19:35:00	BASE	4.55	306	5.04	304	-1.6	100	-1.6	96	0	971.5	NA	0.0000		9999	300	0	0	0
2020/09/09 19:36:00	BASE	4.64	308	5.04	304	-1.6	100	-1.6	97	0	971.5	NA	0.0000		9999	260	0	0	0
2020/09/09 19:37:01	BASE	4.63	309	5.04	304	-1.6	100	-1.6	97	0	971.5	NA	0.0000		9999	300	0	0	0
2020/09/09 19:38:00	BASE	4.47	309	5.04	304	-1.6	100	-1.6	96	0	971.5	NA	0.0000		9999	330	0	0	0
2020/09/09 19:39:00	BASE	4.60	309	5.25	303	-1.6	100	-1.6	95	0	971.5	NA	0.0000		9999	330	0	0	0
2020/09/09 19:40:00	BASE	5.02	309	5.76	310	-1.6	100	-1.6	93	0	971.5	NA	0.0000		9999	300	0	0	0
2020/09/09 19:41:00	BASE	5.22	310	5.76	310	-1.6	100	-1.6	89	0	971.5	NA	0.0000		9999	260	0	0	0
2020/09/09 19:42:00	BASE	5.18	311	5.76	310	-1.6	100	-1.6	86	0	971.5	NA	0.0000		9999	260	0	0	0
2020/09/09 19:43:00	BASE	4.98	312	5.76	310	-1.5	100	-1.5	84	0	971.5	NA	0.0000		9999	230	0	0	0
2020/09/09 19:44:00	BASE	4.73	315	5.76	310	-1.5	100	-1.5	82	0	971.5	NA	0.0000		9999	230	0	0	0
2020/09/09 19:45:00	BASE	4.59	318	5.76	310	-1.5	100	-1.5	78	0	971.5	NA	0.0000		9999	230	0	0	0
2020/09/09 19:46:00	BASE	4.51	319	5.76	310	-1.5	100	-1.5	72	0	971.5	NA	0.0000		9999	200	0	0	0
2020/09/09 19:47:00	BASE	4.39	317	5.76	310	-1.5	100	-1.5	65	0	971.5	NA	0.0000		9999	200	0	0	0
2020/09/09 19:48:00	BASE	4.37	316	5.76	310	-1.5	100	-1.5	59	0	971.5	NA	0.0000		9999	200	0	0	0
2020/09/09 19:49:00	BASE	4.46	317	5.76	310	-1.5	100	-1.5	55	0	971.5	NA	0.0000		9999	0	0	0	1050
2020/09/09 19:50:00	BASE	4.63	319	5.71	312	-1.5	100	-1.5	55	0	971.5	NA	0.0000		9999	0	0	0	1020
2020/09/09 19:51:00	BASE	4.68	320	5.45	317	-1.5	100	-1.5	58	0	971.5	NA	0.0000		9999	0	0	0	920
2020/09/09 19:52:00	BASE	4.60	319	5.09	309	-1.5	100	-1.5	61	0	971.5	NA	0.0000		9999	0	0	0	890
2020/09/09 19:53:00	BASE	4.59	317	4.99	318	-1.4	100	-1.4	64	0	971.5	NA	0.0000		9999	0	0	0	920
2020/09/09 19:54:00	BASE	4.54	316	4.99	318	-1.4	100	-1.4	68	0	971.5	NA	0.0000		9999	0	0	0	980
2020/09/09 19:55:00	BASE	4.44	317	4.99	318	-1.4	100	-1.4	70	0	971.6	NA	0.0000		9999	0	0	0	980
2020/09/09 19:56:00	BASE	4.36	318	4.99	318	-1.4	100	-1.4	70	0	971.6	NA	0.0000		9999	0	0	0	1020
2020/09/09 19:57:00	BASE	4.33	318	4.99	318	-1.4	100	-1.4	69	0	971.6	NA	0.0000		9999	0	0	0	1080
2020/09/09 19:58:00	BASE	4.35	318	4.99	318	-1.4	100	-1.4	65	0	971.5	NA	0.0000		9999	0	0	0	950
2020/09/09 19:59:00	BASE	4.29	320	4.99	318	-1.4	100	-1.4	60	0	971.5	NA	0.0000		9999	0	0	0	950
2020/09/09 20:00:00	BASE	4.11	322	4.89	315	-1.4	100	-1.4	57	0	971.6	NA	0.0000		9999	0	0	0	790
2020/09/09 20:01:00	BASE	3.85	328	4.89	315	-1.4	100	-1.4	57	0	971.6	NA	0.0000		9999	0	0	0	1050
2020/09/09 20:02:00	BASE	3.60	334	4.73	318	-1.4	100	-1.4	59	0	971.6	NA	0.0000		9999	0	0	0	1150
2020/09/09 20:03:00	BASE	3.50	337	4.73	318	-1.4	100	-1.4	60	0	971.6	NA	0.0000		9999	200	0	0	0
2020/09/09 20:04:00	BASE	3.57	338	4.73	318	-1.4	100	-1.4	61	0	971.6	NA	0.0000		9999	230	0	0	0
2020/09/09 20:05:00	BASE	3.45	339	4.73	318	-1.5	100	-1.5	61	0	971.6	NA	0.0000		9999	520	0	0	0
2020/09/09 20:06:00	BASE	3.27	341	4.73	318	-1.5	100	-1.5	62	0	971.6	NA	0.0000		9999	560	0	0	0
2020/09/09 20:07:00	BASE	3.28	342	4.68	321	-1.5	100	-1.5	61	0	971.6	NA	0.0000		9999	430	0	0	0
2020/09/09 20:08:00	BASE	3.15	342	4.68	321	-1.6	100	-1.6	59	0	971.6	NA	0.0000		9999	490	0	0	0
2020/09/09 20:09:00	BASE	2.99	343	4.37	328	-1.6	100	-1.6	58	0	971.6	NA	0.0000		9999	520	0	0	0
2020/09/09 20:10:00	BASE	3.14	342	4.01	327	-1.6	100	-1.6	57	0	971.6	NA	0.0000		9999	560	0	0	0
2020/09/09 20:11:00	BASE	3.40	340	3.91	333	-1.7	100	-1.7	55	0	971.6	NA	0.0000		9999	660	0	0	0
2020/09/09 20:12:00	BASE	3.47	339	3.91	343	-1.7	100	-1.7	52	0	971.6	NA	0.0000		9999	590	0	0	0
2020/09/09 20:13:00	BASE	3.52	341	3.91	343	-1.7	100	-1.7	50	0	971.5	NA	0.0000		9999	520	0	0	0
2020/09/09 20:14:00	BASE	3.51	341	3.91	343	-1.7	100	-1.7	49	0	971.5	NA	0.0000		9999	390	0	0	0
2020/09/09 20:15:00	BASE	3.46	339	4.01	333	-1.7	100	-1.7	47	0	971.5	NA	0.0000		9999	590	0	0	0
2020/09/09 20:16:00	BASE	3.62	337	4.06	327	-1.7	100	-1.7	43	0	971.5	NA	0.0000		9999	690	0	0	0
2020/09/09 20:17:00	BASE	3.71	335	4.06	327	-1.7	100	-1.7	39	0	971.5	NA	0.0000		9999	590	0	0	0
2020/09/09 20:18:00	BASE	3.78	334	4.06	334	-1.7	100	-1.7	36	0	971.6	NA	0.0000		9999	720	0	0	0
2020/09/09 20:19:00	BASE	3.93	331	4.48	332	-1.6	100	-1.6	34	0	971.6	NA	0.0000		9999	620	0	0	0
2020/09/09 20:20:00	BASE	4.08	330	4.48	337	-1.7	100	-1.7	34	0	971.6	NA	0.0000		9999	790	0	0	0
2020/09/09 20:21:00	BASE	4.61	326	5.25	320	-1.7	100	-1.7	34	0	971.6	NA	0.0000		9999	390	0	0	0
2020/09/09 20:22:00	BASE	4.97	322	5.30	324	-1.7	100	-1.7	34	0	971.6	NA	0.0000		9999	520	0	0	0
2020/09/09 20:23:00	BASE	5.00	320	5.45	318	-1.7	100	-1.7	34	0	971.6	NA	0.0000		9999	460	0	0	0
2020/09/09 20:24:00	BASE	4.98	319	5.45	318	-1.7	100	-1.7	34	0	971.6	NA	0.0000		9999	520	0	0	0
2020/09/09 20:25:00	BASE	4.93	319	5.45	318	-1.7	100	-1.7	32	0	971.6	NA	0.0000		9999	460	0	0	0
2020/09/09 20:26:00	BASE	4.97	322	5.45	318	-1.7	100	-1.7	31	0	971.6	NA	0.0000		9999	330	0	0	0
2020/09/09 20:27:00	BASE	4.92	328	5.45	318	-1.6	100	-1.6	31	0	971.6	NA	0.0000		9999	300	0	0	0
2020/09/09 20:28:00	BASE	4.82	333	5.45	318	-1.6	100	-1.6	32	0	971.7	NA	0.0000		9999	690	0	0	0
2020/09/09 20:29:00	BASE	4.77	335	5.45	318	-1.6	100	-1.6	35	0	971.7	NA	0.0000		9999	520	0	0	0
2020/09/09 20:30:00	BASE	4.72	334	5.45	318	-1.6	100	-1.6	37	0	971.7	NA	0.0000		9999	490	0	0	0
2020/09/09 20:31:00	BASE	4.60	331	5.45	318	-1.6	100	-1.6	38	0	971.7	NA	0.0000		9999	390	0	0	0
2020/09/09 20:32:00	BASE	4.57	330	5.45	318	-1.5	100	-1.5	39	0	971.7	NA	0.0000		9999	390	0	0	0
2020/09/09 20:33:00	BASE	4.44	331	5.30	329	-1.5	100	-1.5	39	0	971.7	NA	0.0000		9999	460	0	0	0
2020/09/09 20:34:00	BASE	4.26	331	5.30	329	-1.5	100	-1.5	40	0	971.7	NA	0.0000		9999	460	0	0	0
2020/09/09 20:35:00	BASE	4.20	330	5.30	329	-1.5	100	-1.5	42	0	971.7	NA	0.0000		9999	490	0	0	0
2020/09/09 20:36:00	BASE	4.35	329	5.14	332	-1.5	100	-1.5	42	0	971.7	NA	0.0000		9999	490	0	0	0
2020/09/09 20:37:00	BASE	4.42	327	5.04	336	-1.6	100	-1.6	40	0	971.7	NA	0.0000		9999	360	0	0	0
2020/09/09 20:38:00	BASE	4.34	322	5.04	336	-1.6	100	-1.6	38	0	971.7	NA	0.0000		9999	390	0	0	0
2020/09/09 20:39:00	BASE	4.44	320	4.84	329	-1.6	100	-1.6	36	0	971.7	NA	0.0000		9999	330	0	0	0
2020/09/09 20:40:00	BASE	4.47	321	4.84	329	-1.6	100	-1.6	34	0	971.7	NA	0.0000		9999	460	0	0	0
2020/09/09 20:41:00	BASE	4.39	323	4.84	329	-1.6	100	-1.6	31	0	971.7	NA	0.0000		9999	330	0	0	0
2020/09/09 20:42:00	BASE	4.40	324	4.84	329	-1.7	100	-1.7	28	0	971.7	NA	0.0000		9999	430	0	0	0
2020/09/09 20:43:00	BASE	4.46	323	4.84	329	-1.7	100	-1.7	25	0	971.7	NA	0.0000		9999	330	0	0	0
2020/09/09 20:44:00	BASE	4.32	320	4.84	329	-1.7	100	-1.7	25	0	971.7	NA	0.0000		9999	360	0	0	0
2020/09/09 20:45:00	BASE	4.30	318	4.84	329	-1.6	100	-1.6	26	0	971.7	NA	0.0000		9999	390	0	0	0
2020/09/09 20:46:00	BASE	4.53	319	4.78	318	-1.6	100	-1.6	28	0	971.7	NA	0.0000		9999	460	0	0	0
2020/09/09 20:47:00	BASE	4.71	320	4.89	322	-1.6	100	-1.6	30	0	971.7	NA	0.0000		9999	460	0	0	0
2020/09/09 20:48:00	BASE	4.64	319	4.89	322	-1.6	100	-1.6	32	0	971.7	NA	0.0000		9999	330	0	0	0
2020/09/09 20:49:00	BASE	4.38	320	4.89	322	-1.6	100	-1.6	32	0	971.7	NA	0.0000		9999	390	0	0	0
2020/09/09 20:50:00	BASE	4.34	320	4.89	322	-1.6	100	-1.6	33	0	971.7	NA	0.0000		9999	360	0	0	0
2020/09/09 20:51:00	BASE	4.35	321	4.89	322	-1.6	100	-1.6	35	0	971.7	NA	0.0000		9999	360	0	0	0
2020/09/09 20:52:00	BASE	4.24	323	4.89	322	-1.6	100	-1.6	35	0	971.7	NA	0.0000		9999	360	0	0	0
2020/09/09 20:53:00	BASE	4.16	326	4.89	322	-1.6	100	-1.6	34	0	971.7	NA	0.0000		9999	330	0	0	0
2020/09/09 20:54:00	BASE	4.08	328	4.89	322	-1.6	100	-1.6	31	0	971.7	NA	0.0000		9999	330	0	0	0
2020/09/09 20:55:00	BASE	3.91	329	4.89	322	-1.6	100	-1.6	28	0	971.7	NA	0.0000		9999	300	0	0	0
2020/09/09 20:56:00	BASE	3.86	329	4.89	322	-1.6	100	-1.6	26	0	971.7	NA	0.0000		9999	300	0	0	0
2020/09/09 20:57:00	BASE	3.93	329	4.73	321	-1.6	100	-1.6	24	0	971.8	NA	0.0000		9999	260	0	0	0
2020/09/09 20:58:00	BASE	3.84	330	4.63	319	-1.6	100	-1.6	22	0	971.8	NA	0.0000		9999	260	0	0	0
2020/09/09 20:59:00	BASE	3.65	329	4.63	319	-1.6	100	-1.6	20	0	971.8	NA	0.0000		9999	300	0	0	0
2020/09/09 21:00:00	BASE	3.47	330	4.42	321	-1.6	100	-1.6	20	0	971.8	NA	0.0000		9999	260	0	0	0
2020/09/09 21:01:00	BASE	3.36	331	4.37	325	-1.6	100	-1.6	19	0	971.8	NA	0.0000		9999	300	0	0	0
2020/09/09 21:02:00	BASE	3.37	330	4.32	328	-1.6	100	-1.6	18	0	971.8	NA	0.0000		9999	300	0	0	0
2020/09/09 21:03:00	BASE	3.39	328	4.22	326	-1.6	100	-1.6	17	0	971.8	NA	0.0000		9999	300	0	0	0
2020/09/09 21:04:00	BASE	3.37	327	4.17	327	-1.6	100	-1.6	15	0	971.8	NA	0.0000		9999	330	0	0	0
2020/09/09 21:05:00	BASE	3.39	324	4.17	327	-1.5	100	-1.5	13	0	971.8	NA	0.0000		9999	330	0	0	0
2020/09/09 21:06:00	BASE	3.45	321	4.12	332	-1.5	100	-1.5	13	0	971.9	NA	0.0000		9999	330	0	0	0
2020/09/09 21:07:00	BASE	3.52	316	3.81	329	-1.5	100	-1.5	12	0	972.0	NA	0.0000		9999	330	0	0	0
2020/09/09 21:08:00	BASE	3.63	312	4.06	308	-1.5	100	-1.5	11	0	972.0	NA	0.0000		9999	330	0	0	0
2020/09/09 21:09:00	BASE	3.65	311	4.06	308	-1.5	100	-1.5	10	0	972.0	NA	0.0000		9999	330	0	0	0
2020/09/09 21:10:00	BASE	3.75	308	4.17	303	-1.5	100	-1.5	10	0	972.0	NA	0.0000		9999	330	0	0	0
2020/09/09 21:11:00	BASE	3.80	306	4.17	303	-1.6	100	-1.6	10	0	972.1	NA	0.0000		9999	330	0	0	0
2020/09/09 21:12:00	BASE	3.86	307	4.22	306	-1.6	100	-1.6	11	0	972.1	NA	0.0000		9999	360	0	0	0
2020/09/09 21:13:00	BASE	3.99	306	4.22	306	-1.6	100	-1.6	11	0	972.1	NA	0.0000		9999	330	0	0	0
2020/09/09 21:14:00	BASE	4.00	306	4.32	306	-1.7	100	-1.7	12	0	972.1	NA	0.0000		9999	330	0	0	0
2020/09/09 21:15:00	BASE	3.95	307	4.32	306	-1.7	100	-1.7	13	0	972.1	NA	0.0000		9999	330	0	0	0
2020/09/09 21:16:00	BASE	3.72	309	4.32	306	-1.7	100	-1.7	13	0	972.1	NA	0.0000		9999	330	0	0	0
2020/09/09 21:17:00	BASE	3.59	310	4.32	306	-1.7	100	-1.7	13	0	972.1	NA	0.0000		9999	360	0	0	0
2020/09/09 21:18:00	BASE	3.59	311	4.32	306	-1.7	100	-1.7	14	0	972.1	NA	0.0000		9999	390	0	0	0
2020/09/09 21:19:00	BASE	3.51	312	4.32	306	-1.7	100	-1.7	14	0	972.1	NA	0.0000		9999	430	0	0	0
2020/09/09 21:20:00	BASE	3.51	314	4.32	306	-1.8	100	-1.8	15	0	972.1	NA	0.0000		9999	390	0	0	0
2020/09/09 21:21:00	BASE	3.68	312	4.32	306	-1.8	100	-1.8	15	0	972.1	NA	0.0000		9999	360	0	0	0
2020/09/09 21:22:00	BASE	3.79	312	4.32	306	-1.8	100	-1.8	15	0	972.0	NA	0.0000		9999	330	0	0	0
2020/09/09 21:23:00	BASE	3.68	311	4.32	306	-1.8	100	-1.8	15	0	972.0	NA	0.0000		9999	330	0	0	0
2020/09/09 21:24:00	BASE	3.55	310	4.12	310	-1.7	100	-1.7	14	0	972.1	NA	0.0000		9999	330	0	0	0
2020/09/09 21:25:00	BASE	3.59	309	4.06	312	-1.7	100	-1.7	12	0	972.1	NA	0.0000		9999	360	0	0	0
2020/09/09 21:26:00	BASE	3.56	308	4.06	312	-1.7	100	-1.7	10	0	972.1	NA	0.0000		9999	330	0	0	0
2020/09/09 21:27:00	BASE	3.51	308	4.06	312	-1.7	100	-1.7	9	0	972.1	NA	0.0000		9999	330	0	0	0
2020/09/09 21:28:00	BASE	3.53	308	4.06	312	-1.7	100	-1.7	8	0	972.1	NA	0.0000		9999	330	0	0	0
2020/09/09 21:29:00	BASE	3.50	306	4.06	312	-1.7	100	-1.7	7	0	972.1	NA	0.0000		9999	330	0	0	0
2020/09/09 21:30:00	BASE	3.52	306	4.06	312	-1.7	100	-1.7	6	0	972.1	NA	0.0000		9999	360	0	0	0
2020/09/09 21:31:00	BASE	3.51	307	4.06	312	-1.7	100	-1.7	6	0	972.1	NA	0.0000		9999	390	0	0	0
2020/09/09 21:32:00	BASE	3.45	309	3.91	310	-1.7	100	-1.7	6	0	972.1	NA	0.0000		9999	390	0	0	0
2020/09/09 21:33:00	BASE	3.43	311	3.76	308	-1.7	100	-1.7	5	0	972.1	NA	0.0000		9999	460	0	0	0
2020/09/09 21:34:00	BASE	3.26	313	3.76	308	-1.7	100	-1.7	4	0	972.1	NA	0.0000		9999	490	0	0	0
2020/09/09 21:35:00	BASE	3.09	316	3.76	308	-1.7	100	-1.7	4	0	972.2	NA	0.0000		9999	560	0	0	0
2020/09/09 21:36:00	BASE	3.10	319	3.76	308	-1.7	100	-1.7	4	0	972.2	NA	0.0000		9999	590	0	0	0
2020/09/09 21:37:00	BASE	2.98	323	3.76	308	-1.7	100	-1.7	4	0	972.2	NA	0.0000		9999	620	0	0	0
2020/09/09 21:38:00	BASE	2.90	325	3.76	308	-1.7	100	-1.7	4	0	972.2	NA	0.0000		9999	490	0	0	0
2020/09/09 21:39:00	BASE	2.99	325	3.76	308	-1.8	100	-1.8	3	0	972.2	NA	0.0000		9999	590	0	0	0
2020/09/09 21:40:00	BASE	2.95	329	3.65	310	-1.8	100	-1.8	3	0	972.2	NA	0.0000		9999	690	0	0	0
2020/09/09 21:41:00	BASE	2.78	331	3.65	310	-1.8	100	-1.8	3	0	972.3	NA	0.0000		9999	790	0	0	0
2020/09/09 21:42:00	BASE	2.74	328	3.65	310	-1.8	100	-1.8	3	0	972.3	NA	0.0000		9999	820	0	0	0
2020/09/09 21:43:00	BASE	2.77	324	3.24	320	-1.8	100	-1.8	3	0	972.3	NA	0.0000		9999	790	0	0	0
2020/09/09 21:44:00	BASE	2.78	325	3.24	320	-1.8	100	-1.8	3	0	972.3	NA	0.0000		9999	720	0	0	0
2020/09/09 21:45:00	BASE	2.80	327	3.24	320	-1.8	100	-1.8	2	0	972.3	NA	0.0000		9999	690	0	0	0
2020/09/09 21:46:00	BASE	2.84	327	3.19	323	-1.8	100	-1.8	2	0	972.3	NA	0.0000		9999	560	0	0	0
2020/09/09 21:47:00	BASE	2.88	327	3.19	323	-1.8	100	-1.8	2	0	972.3	NA	0.0000		9999	460	0	0	0
2020/09/09 21:48:00	BASE	2.88	327	3.19	323	-1.8	100	-1.8	2	0	972.3	NA	0.0000		9999	490	0	0	0
2020/09/09 21:49:00	BASE	2.83	327	3.09	327	-1.8	100	-1.8	2	0	972.3	NA	0.0000		9999	490	0	0	0
2020/09/09 21:50:00	BASE	2.82	327	3.09	327	-1.8	100	-1.8	2	0	972.3	NA	0.0000		9999	560	0	0	0
2020/09/09 21:51:00	BASE	2.87	329	3.09	327	-1.8	100	-1.8	1	0	972.3	NA	0.0000		9999	620	0	0	0
2020/09/09 21:52:00	BASE	2.86	331	3.09	327	-1.8	100	-1.8	1	0	972.3	NA	0.0000		9999	690	0	0	0
2020/09/09 21:53:00	BASE	2.91	331	3.45	326	-1.8	100	-1.8	1	0	972.3	NA	0.0000		9999	820	0	0	0
2020/09/09 21:54:00	BASE	3.04	330	3.45	326	-1.7	100	-1.7	1	0	972.3	NA	0.0000		9999	820	0	0	0
2020/09/09 21:55:00	BASE	2.97	330	3.45	326	-1.7	100	-1.7	1	0	972.3	NA	0.0000		9999	850	0	0	0
2020/09/09 21:56:00	BASE	2.82	331	3.45	326	-1.7	100	-1.7	1	0	972.4	NA	0.0000		9999	1020	0	0	0
2020/09/09 21:57:00	BASE	2.79	331	3.45	326	-1.7	100	-1.7	1	0	972.3	NA	0.0000		9999	1020	0	0	0
2020/09/09 21:58:00	BASE	2.90	330	3.45	326	-1.7	100	-1.7	1	0	972.3	NA	0.0000		9999	950	0	0	0
2020/09/09 21:59:00	BASE	2.95	330	3.45	326	-1.7	100	-1.7	1	0	972.3	NA	0.0000		9999	1020	0	0	0
2020/09/09 22:00:00	BASE	2.83	330	3.45	326	-1.7	100	-1.7	1	0	972.4	NA	0.0000		9999	920	0	0	0
2020/09/09 22:01:00	BASE	2.75	328	3.45	326	-1.7	100	-1.7	1	0	972.4	NA	0.0000		9999	950	0	0	0
2020/09/09 22:02:00	BASE	2.87	324	3.45	326	-1.7	100	-1.7	1	0	972.4	NA	0.0000		9999	980	0	0	0
2020/09/09 22:03:00	BASE	3.22	320	3.65	316	-1.7	100	-1.7	0	0	972.4	NA	0.0000		9999	1080	0	0	0
2020/09/09 22:04:00	BASE	3.42	314	3.65	316	-1.7	100	-1.7	0	0	972.4	NA	0.0000		9999	1120	0	0	0
2020/09/09 22:05:00	BASE	3.45	311	3.70	311	-1.8	100	-1.8	0	0	972.4	NA	0.0000		9999	980	0	0	0
2020/09/09 22:06:00	BASE	3.60	309	3.96	308	-1.8	100	-1.8	0	0	972.5	NA	0.0000		9999	890	0	0	0
2020/09/09 22:07:00	BASE	3.87	307	4.32	305	-1.8	100	-1.8	0	0	972.5	NA	0.0000		9999	820	0	0	0
2020/09/09 22:08:00	BASE	4.39	305	5.25	305	-1.9	100	-1.9	0	0	972.5	NA	0.0000		9999	950	0	0	0
2020/09/09 22:09:00	BASE	4.64	311	5.25	305	-1.9	100	-1.9	0	0	972.5	NA	0.0000		9999	920	0	0	0
2020/09/09 22:10:00	BASE	4.55	317	5.25	305	-1.8	100	-1.8	0	0	972.5	NA	0.0000		9999	950	0	0	0
2020/09/09 22:11:00	BASE	4.66	316	5.35	310	-1.8	100	-1.8	0	0	972.5	NA	0.0000		9999	890	0	0	0
2020/09/09 22:12:00	BASE	5.09	314	5.86	311	-1.8	100	-1.8	0	0	972.6	NA	0.0000		9999	850	0	0	0
2020/09/09 22:13:00	BASE	5.75	311	6.58	308	-1.8	100	-1.8	0	0	972.6	NA	0.0000		9999	790	0	0	0
2020/09/09 22:14:00	BASE	6.15	308	6.58	308	-1.8	100	-1.8	0	0	972.5	NA	0.0000		9999	620	0	0	0
2020/09/09 22:15:00	BASE	5.80	308	6.58	308	-1.7	100	-1.7	0	0	972.5	NA	0.0000		9999	660	0	0	0
2020/09/09 22:16:00	BASE	5.26	310	6.58	308	-1.7	100	-1.7	0	0	972.6	NA	0.0000		9999	620	0	0	0
2020/09/09 22:17:00	BASE	5.48	312	6.58	308	-1.7	100	-1.7	0	0	972.5	NA	0.0000		9999	790	0	0	0
2020/09/09 22:18:00	BASE	5.88	313	6.58	308	-1.7	100	-1.7	0	0	972.5	NA	0.0000		9999	890	0	0	0
2020/09/09 22:19:00	BASE	5.74	314	6.58	308	-1.7	100	-1.7	0	0	972.5	NA	0.0000		9999	1080	0	0	0
2020/09/09 22:20:00	BASE	5.47	313	6.58	308	-1.7	100	-1.7	0	0	972.5	NA	0.0000		9999	1080	0	0	0
2020/09/09 22:21:00	BASE	5.30	314	6.58	308	-1.7	100	-1.7	0	0	972.6	NA	0.0000		9999	1120	0	0	0
2020/09/09 22:22:00	BASE	5.21	314	6.58	308	-1.7	100	-1.7	0	0	972.6	NA	0.0000		9999	1080	0	0	0
2020/09/09 22:23:00	BASE	5.13	316	6.48	305	-1.7	100	-1.7	0	0	972.6	NA	0.0000		9999	1150	0	0	0
2020/09/09 22:24:00	BASE	5.09	320	6.17	316	-1.7	100	-1.7	0	0	972.6	NA	0.0000		9999	1150	0	0	0
2020/09/09 22:25:00	BASE	5.35	322	6.17	316	-1.7	100	-1.7	0	0	972.6	NA	0.0000		9999	1250	0	0	0
2020/09/09 22:26:00	BASE	5.61	323	6.17	316	-1.7	100	-1.7	0	0	972.6	NA	0.0000		9999	1150	0	0	0
2020/09/09 22:27:00	BASE	5.62	322	6.17	316	-1.6	100	-1.6	0	0	972.6	NA	0.0000		9999	1250	0	0	0
2020/09/09 22:28:00	BASE	5.60	319	5.97	322	-1.6	100	-1.6	0	0	972.6	NA	0.0000		9999	1180	0	0	0
2020/09/09 22:29:00	BASE	5.80	317	6.28	316	-1.6	100	-1.6	0	0	972.6	NA	0.0000		9999	690	0	0	0
2020/09/09 22:30:00	BASE	5.97	316	6.28	316	-1.6	100	-1.6	0	0	972.6	NA	0.0000		9999	560	0	0	0
2020/09/09 22:31:00	BASE	6.10	315	6.43	315	-1.6	100	-1.6	0	0	972.7	NA	0.0000		9999	430	0	0	0
2020/09/09 22:32:00	BASE	6.03	314	6.43	314	-1.6	100	-1.6	0	0	972.7	NA	0.0000		9999	430	1350	0	0
2020/09/09 22:33:00	BASE	5.75	313	6.43	314	-1.6	100	-1.6	0	0	972.7	NA	0.0000		9999	660	0	0	0
2020/09/09 22:34:00	BASE	5.61	313	6.43	314	-1.6	100	-1.6	0	0	972.7	NA	0.0000		9999	490	0	0	0
2020/09/09 22:35:00	BASE	5.57	315	6.43	314	-1.6	100	-1.6	0	0	972.7	NA	0.0000		9999	1150	0	0	0
2020/09/09 22:36:00	BASE	5.47	313	6.43	314	-1.6	100	-1.6	0	0	972.7	NA	0.0000		9999	1050	0	0	0
2020/09/09 22:37:00	BASE	5.41	310	6.43	314	-1.6	100	-1.6	0	0	972.7	NA	0.0000		9999	620	0	0	0
2020/09/09 22:38:00	BASE	5.50	310	6.43	314	-1.6	100	-1.6	0	0	972.7	NA	0.0000		9999	690	0	0	0
2020/09/09 22:39:00	BASE	5.73	312	6.48	318	-1.6	100	-1.6	0	0	972.8	NA	0.0000		9999	490	0	0	0
2020/09/09 22:40:00	BASE	5.91	313	6.58	313	-1.6	100	-1.6	0	0	972.8	NA	0.0000		9999	590	0	0	0
2020/09/09 22:41:00	BASE	6.01	313	6.58	313	-1.6	100	-1.6	0	0	972.8	NA	0.0000		9999	430	0	0	0
2020/09/09 22:42:00	BASE	5.84	313	6.58	313	-1.6	100	-1.6	0	0	972.8	NA	0.0000		9999	520	0	0	0
2020/09/09 22:43:00	BASE	5.73	315	6.58	313	-1.6	100	-1.6	0	0	972.8	NA	0.0000		9999	490	0	0	0
2020/09/09 22:44:00	BASE	5.73	316	6.58	313	-1.6	100	-1.6	0	0	972.8	NA	0.0000		9999	430	0	0	0
2020/09/09 22:45:00	BASE	5.65	315	6.58	313	-1.6	100	-1.6	0	0	972.9	NA	0.0000		9999	430	0	0	0
2020/09/09 22:46:00	BASE	5.55	315	6.58	313	-1.6	100	-1.6	0	0	972.9	NA	0.0000		9999	360	0	0	0
2020/09/09 22:47:00	BASE	5.42	317	6.58	313	-1.6	100	-1.6	0	0	972.9	NA	0.0000		9999	430	1210	0	0
2020/09/09 22:48:00	BASE	5.55	320	6.58	313	-1.6	100	-1.6	0	0	972.9	NA	0.0000		9999	430	0	0	0
2020/09/09 22:49:00	BASE	5.48	321	6.58	313	-1.6	100	-1.6	0	0	972.9	NA	0.0000		9999	890	0	0	0
2020/09/09 22:50:00	BASE	5.20	325	6.48	313	-1.6	100	-1.6	0	0	972.9	NA	0.0000		9999	590	0	0	0
2020/09/09 22:51:00	BASE	5.14	326	6.12	316	-1.6	100	-1.6	0	0	972.9	NA	0.0000		9999	490	0	0	0
2020/09/09 22:52:00	BASE	5.15	325	6.12	316	-1.6	100	-1.6	0	0	972.9	NA	0.0000		9999	490	0	0	0
2020/09/09 22:53:00	BASE	5.13	326	6.02	317	-1.6	100	-1.6	0	0	972.9	NA	0.0000		9999	490	0	0	0
2020/09/09 22:54:00	BASE	4.91	326	5.97	317	-1.6	100	-1.6	0	0	972.9	NA	0.0000		9999	490	0	0	0
2020/09/09 22:55:00	BASE	4.63	327	5.97	317	-1.6	100	-1.6	0	0	972.9	NA	0.0000		9999	790	2490	0	0
2020/09/09 22:56:00	BASE	4.48	329	5.97	317	-1.5	100	-1.5	0	0	972.9	NA	0.0000		9999	690	2460	0	0
2020/09/09 22:57:00	BASE	4.50	328	5.97	317	-1.5	100	-1.5	0	0	972.9	NA	0.0000		9999	720	2360	0	0
2020/09/09 22:58:00	BASE	4.61	327	5.56	320	-1.5	100	-1.5	0	0	972.9	NA	0.0000		9999	690	0	0	0
2020/09/09 22:59:00	BASE	4.53	329	5.40	326	-1.5	100	-1.5	0	0	972.9	NA	0.0000		9999	560	2100	0	0
2020/09/09 23:00:00	BASE	4.35	328	5.35	328	-1.5	100	-1.5	0	0	973.0	NA	0.0000		9999	820	2070	0	0
2020/09/09 23:01:00	BASE	4.06	325	5.35	328	-1.5	100	-1.5	0	0	973.0	NA	0.0000		9999	950	2030	0	0
2020/09/09 23:02:00	BASE	3.84	323	5.35	328	-1.5	100	-1.5	0	0	973.0	NA	0.0000		9999	890	0	0	0
2020/09/09 23:03:00	BASE	3.82	325	5.04	322	-1.5	100	-1.5	0	0	973.0	NA	0.0000		9999	820	0	0	0
2020/09/09 23:04:00	BASE	3.76	325	4.89	329	-1.5	100	-1.5	0	0	973.0	NA	0.0000		9999	890	0	0	0
2020/09/09 23:05:00	BASE	3.60	322	4.89	329	-1.5	100	-1.5	0	0	973.0	NA	0.0000		9999	1050	0	0	0
2020/09/09 23:06:00	BASE	3.34	322	4.89	329	-1.5	100	-1.5	0	0	973.0	NA	0.0000		9999	1180	0	0	0
2020/09/09 23:07:00	BASE	3.18	322	4.89	329	-1.5	100	-1.5	0	0	973.0	NA	0.0000		9999	1180	2000	0	0
2020/09/09 23:08:00	BASE	3.27	320	4.58	327	-1.5	100	-1.5	0	0	973.0	NA	0.0000		9999	1510	2100	0	0
2020/09/09 23:09:00	BASE	3.19	320	4.37	328	-1.5	100	-1.5	0	0	973.0	NA	0.0000		9999	1440	2100	0	0
2020/09/09 23:10:00	BASE	2.91	318	4.06	326	-1.5	100	-1.5	0	0	973.0	NA	0.0000		9999	1510	0	0	0
2020/09/09 23:11:00	BASE	2.73	315	3.96	330	-1.5	100	-1.5	0	0	973.0	NA	0.0000		9999	1280	0	0	0
2020/09/09 23:12:00	BASE	2.68	314	3.96	330	-1.5	100	-1.5	0	0	973.0	NA	0.0000		9999	1640	0	0	0
2020/09/09 23:13:00	BASE	2.66	313	3.76	323	-1.5	100	-1.5	0	0	973.0	NA	0.0000		9999	1540	0	0	0
2020/09/09 23:14:00	BASE	2.62	311	3.65	322	-1.5	100	-1.5	0	0	973.0	NA	0.0000		9999	1540	0	0	0
2020/09/09 23:15:00	BASE	2.77	310	3.65	322	-1.5	100	-1.6	0	0	973.0	NA	0.0000		9999	1440	0	0	0
2020/09/09 23:16:00	BASE	2.87	312	3.65	322	-1.5	100	-1.5	0	0	973.1	NA	0.0000		9999	1380	0	0	0
2020/09/09 23:17:00	BASE	3.19	315	3.86	317	-1.5	100	-1.5	0	0	973.0	NA	0.0000		9999	1410	0	0	0
2020/09/09 23:18:00	BASE	3.50	316	4.01	318	-1.5	100	-1.5	0	0	973.0	NA	0.0000		9999	1380	0	0	0
2020/09/09 23:19:00	BASE	3.39	313	4.01	318	-1.5	100	-1.5	0	0	973.1	NA	0.0000		9999	1350	0	0	0
2020/09/09 23:20:00	BASE	3.38	314	4.01	318	-1.5	100	-1.5	0	0	973.1	NA	0.0000		9999	1350	0	0	0
2020/09/09 23:21:00	BASE	3.45	320	4.01	318	-1.5	100	-1.5	0	0	973.1	NA	0.0000		9999	1250	0	0	0
2020/09/09 23:22:00	BASE	3.36	322	4.01	318	-1.5	100	-1.5	0	0	973.1	NA	0.0000		9999	1480	0	0	0
2020/09/09 23:23:00	BASE	3.23	324	4.01	318	-1.5	100	-1.5	0	0	973.1	NA	0.0000		9999	1410	0	0	0
2020/09/09 23:24:00	BASE	3.06	325	4.01	318	-1.5	100	-1.5	0	0	973.1	NA	0.0000		9999	1310	0	0	0
2020/09/09 23:25:00	BASE	2.98	324	4.01	318	-1.5	100	-1.5	0	0	973.1	NA	0.0000		9999	1380	2760	0	0
2020/09/09 23:26:00	BASE	3.13	327	4.01	318	-1.5	100	-1.5	0	0	973.1	NA	0.0000		9999	1410	2690	0	0
2020/09/09 23:27:00	BASE	3.35	329	4.01	318	-1.5	100	-1.5	0	0	973.1	NA	0.0000		9999	1480	2590	0	0
2020/09/09 23:28:00	BASE	3.44	328	3.91	323	-1.5	100	-1.5	0	0	973.0	NA	0.0000		9999	1480	2620	0	0
2020/09/09 23:29:00	BASE	3.39	325	3.91	323	-1.5	100	-1.5	0	0	973.1	NA	0.0000		9999	1480	2620	0	0
2020/09/09 23:30:00	BASE	3.54	325	3.91	323	-1.5	100	-1.5	0	0	973.1	NA	0.0000		9999	1410	2530	0	0
2020/09/09 23:31:00	BASE	3.70	325	3.86	332	-1.4	100	-1.4	0	0	973.0	NA	0.0000		9999	1410	1900	2590	0
2020/09/09 23:32:00	BASE	3.72	324	3.86	326	-1.4	100	-1.4	0	0	973.0	NA	0.0000		9999	1480	2690	0	0
2020/09/09 23:33:00	BASE	3.58	320	3.86	326	-1.4	100	-1.4	0	0	973.1	NA	0.0000		9999	1440	2660	0	0
2020/09/09 23:34:00	BASE	3.33	312	3.86	326	-1.4	100	-1.4	0	0	973.0	NA	0.0000		9999	1410	2530	0	0
2020/09/09 23:35:00	BASE	3.12	305	3.86	326	-1.4	100	-1.4	0	0	973.1	NA	0.0000		9999	1640	2530	0	0
2020/09/09 23:36:00	BASE	3.00	299	3.86	326	-1.4	100	-1.4	0	0	973.1	NA	0.0000		9999	1640	6070	0	0
2020/09/09 23:37:00	BASE	3.07	295	3.86	326	-1.5	100	-1.5	0	0	973.1	NA	0.0000		9999	1710	2660	0	0
2020/09/09 23:38:00	BASE	3.32	294	3.86	326	-1.5	100	-1.5	0	0	973.1	NA	0.0000		9999	1640	2660	0	0
2020/09/09 23:39:00	BASE	3.63	293	3.91	293	-1.5	100	-1.5	0	0	973.2	NA	0.0000		9999	1510	2690	6270	0
2020/09/09 23:40:00	BASE	3.89	293	4.17	293	-1.5	100	-1.5	0	0	973.1	NA	0.0000		9999	1440	0	0	0
2020/09/09 23:41:00	BASE	4.06	293	4.27	292	-1.5	100	-1.5	0	0	973.1	NA	0.0000		9999	1480	0	0	0
2020/09/09 23:42:00	BASE	4.10	292	4.27	292	-1.4	100	-1.4	0	0	973.1	NA	0.0000		9999	1480	0	0	0
2020/09/09 23:43:00	BASE	4.03	289	4.37	293	-1.4	100	-1.4	0	0	973.2	NA	0.0000		9999	1480	6270	0	0
2020/09/09 23:44:00	BASE	4.03	288	4.48	286	-1.4	100	-1.4	0	0	973.2	NA	0.0000		9999	1480	6040	0	0
2020/09/09 23:45:00	BASE	4.02	289	4.89	296	-1.4	100	-1.4	0	0	973.2	NA	0.0000		9999	1440	5770	0	0
2020/09/09 23:46:00	BASE	3.97	292	4.89	296	-1.4	100	-1.4	0	0	973.2	NA	0.0000		9999	6140	0	0	0
2020/09/09 23:47:00	BASE	4.03	295	4.89	296	-1.4	100	-1.4	0	0	973.2	NA	0.0000		9999	1480	6270	0	0
2020/09/09 23:48:00	BASE	4.03	297	4.89	296	-1.4	100	-1.4	0	0	973.2	NA	0.0000		9999	1510	0	0	0
2020/09/09 23:49:00	BASE	3.96	298	4.89	296	-1.4	100	-1.4	0	0	973.3	NA	0.0000		9999	1480	0	0	0
2020/09/09 23:50:00	BASE	3.94	298	4.89	296	-1.5	100	-1.5	0	0	973.3	NA	0.0000		9999	1480	0	0	0
2020/09/09 23:51:00	BASE	3.87	299	4.89	296	-1.5	100	-1.5	0	0	973.3	NA	0.0000		9999	1480	0	0	0
2020/09/09 23:52:00	BASE	3.81	299	4.89	296	-1.5	100	-1.5	0	0	973.3	NA	0.0000		9999	1510	0	0	0
2020/09/09 23:53:00	BASE	3.95	301	4.89	296	-1.5	100	-1.5	0	0	973.3	NA	0.0000		9999	1510	0	0	0
2020/09/09 23:54:00	BASE	4.32	303	4.89	306	-1.5	100	-1.5	0	0	973.3	NA	0.0000		9999	1540	0	0	0
2020/09/09 23:55:00	BASE	4.78	304	5.25	306	-1.5	100	-1.5	0	0	973.3	NA	0.0000		9999	1510	0	0	0
2020/09/09 23:56:00	BASE	5.21	306	5.45	306	-1.5	100	-1.5	0	0	973.4	NA	0.0000		9999	1510	0	0	0
2020/09/09 23:57:00	BASE	5.28	308	5.45	306	-1.4	100	-1.4	0	0	973.4	NA	0.0000		9999	1510	0	0	0
2020/09/09 23:58:00	BASE	5.20	310	5.45	311	-1.4	100	-1.4	0	0	973.4	NA	0.0000		9999	1510	0	0	0
2020/09/09 23:59:00	BASE	5.29	314	5.50	317	-1.4	100	-1.4	0	0	973.3	NA	0.0000		9999	1510	0	0	0